[[{"header":{"parameterUnit":"m.s-1","parameterCategory":1,"la1":30.6,"la2":28.766,"lo1":-90.7593,"lo2":-88.6598,"dy":0.0162,"dx":0.0183,"nx":116,"ny":114,"refTime":"2024-07-06T06:00:00:Z","depth":0,"parameterNumber":2,"parameterNumberName":"U-component_of_WINDS"},"data":[0.0,0.0,0.0,0.0,0.0,0.0,0.0,0.0,0.0,0.0,0.0,0.0,0.0,0.0,0.0,0.0,0.0,0.0,0.0,0.0,0.0,0.0,0.0,0.0,0.0,0.0,0.0,0.0,0.0,0.0,0.0,0.0,0.0,0.0,0.0,0.0,0.0,0.0,0.0,0.0,0.0,0.0,0.0,0.0,0.0,0.0,0.0,0.0,0.0,0.0,0.0,0.0,0.0,0.0,0.0,0.0,0.0,0.0,0.0,0.0,0.0,0.0,0.0,0.0,0.0,0.0,0.0,0.0,0.0,0.0,0.0,0.0,0.0,0.0,0.0,0.0,0.0,0.0,0.0,0.0,0.0,0.0,0.0,0.0,0.0,0.0,0.0,0.0,0.0,0.0,0.0,0.0,0.0,0.0,0.0,0.0,0.0,0.0,0.0,0.0,0.0,0.0,0.0,0.0,0.0,0.0,0.0,0.0,0.0,0.0,0.0,0.0,0.0,0.0,0.0,0.0,0.0,0.0,0.0,0.0,0.0,0.0,0.0,0.0,0.0,0.0,0.0,0.0,0.0,0.0,0.0,0.0,0.0,0.0,0.0,0.0,0.0,0.0,0.0,0.0,0.0,0.0,0.0,0.0,0.0,0.0,0.0,0.0,0.0,0.0,0.0,0.0,0.0,0.0,0.0,0.0,0.0,0.0,0.0,0.0,0.0,0.0,0.0,0.0,0.0,0.0,0.0,0.0,0.0,0.0,0.0,0.0,0.0,0.0,0.0,0.0,0.0,0.0,0.0,0.0,0.0,0.0,0.0,0.0,0.0,0.0,0.0,0.0,0.0,0.0,0.0,0.0,0.0,0.0,0.0,0.0,0.0,0.0,0.0,0.0,0.0,0.0,0.0,0.0,0.0,0.0,0.0,0.0,0.0,0.0,0.0,0.0,0.0,0.0,0.0,0.0,0.0,0.0,0.0,0.0,0.0,0.0,0.0,0.0,0.0,0.0,0.0,0.0,0.0,0.0,0.0,0.0,0.0,0.0,0.0,0.0,0.0,0.0,0.0,0.0,0.0,0.0,0.0,0.0,0.0,0.0,0.0,0.0,0.0,0.0,0.0,0.0,0.0,0.0,0.0,0.0,0.0,0.0,0.0,0.0,0.0,0.0,0.0,0.0,0.0,0.0,0.0,0.0,0.0,0.0,0.0,0.0,0.0,0.0,0.0,0.0,0.0,0.0,0.0,0.0,0.0,0.0,0.0,0.0,0.0,0.0,0.0,0.0,0.0,0.0,0.0,0.0,0.0,0.0,0.0,0.0,0.0,0.0,0.0,0.0,0.0,0.0,0.0,0.0,0.0,0.0,0.0,0.0,0.0,0.0,0.0,0.0,0.0,0.0,0.0,0.0,0.0,0.0,0.0,0.0,0.0,0.0,0.0,0.0,0.0,0.0,0.0,0.0,0.0,0.0,0.0,0.0,0.0,0.0,0.0,0.0,0.0,0.0,0.0,0.0,0.0,0.0,0.0,0.0,0.0,0.0,0.0,0.0,0.0,0.0,0.0,0.0,0.0,0.0,0.0,0.0,0.0,0.0,0.0,0.0,0.0,0.0,0.0,0.0,0.0,0.0,0.0,0.0,0.0,0.0,0.0,0.0,0.0,0.0,0.0,0.0,0.0,0.0,0.0,0.0,0.0,0.0,0.0,0.0,0.0,0.0,0.0,0.0,0.0,0.0,0.0,0.0,0.0,0.0,0.0,0.0,0.0,0.0,0.0,0.0,0.0,0.0,0.0,0.0,0.0,0.0,0.0,0.0,0.0,0.0,0.0,0.0,0.0,0.0,0.0,0.0,0.0,0.0,0.0,0.0,0.0,0.0,0.0,0.0,0.0,0.0,0.0,0.0,0.0,0.0,0.0,0.0,0.0,0.0,0.0,0.0,0.0,0.0,0.0,0.0,0.0,0.0,0.0,0.0,0.0,0.0,0.0,0.0,0.0,0.0,0.0,0.0,0.0,0.0,0.0,0.0,0.0,0.0,0.0,0.0,0.0,0.0,0.0,0.0,0.0,0.0,0.0,0.0,0.0,0.0,0.0,0.0,0.0,0.0,0.0,0.0,0.0,0.0,0.0,0.0,0.0,0.0,0.0,0.0,0.0,0.0,0.0,0.0,0.0,0.0,0.0,0.0,0.0,0.0,0.0,0.0,0.0,0.0,0.0,0.0,0.0,0.0,0.0,0.0,0.0,0.0,0.0,0.0,0.0,0.0,0.0,0.0,0.0,0.0,0.0,0.0,0.0,0.0,0.0,0.0,0.0,0.0,0.0,0.0,0.0,0.0,0.0,0.0,0.0,0.0,0.0,0.0,0.0,0.0,0.0,0.0,0.0,0.0,0.0,0.0,0.0,0.0,0.0,0.0,0.0,0.0,0.0,0.0,0.0,0.0,0.0,0.0,0.0,0.0,0.0,0.0,0.0,0.0,0.0,0.0,0.0,0.0,0.0,0.0,0.0,0.0,0.0,0.0,0.0,0.0,0.0,0.0,0.0,0.0,0.0,0.0,0.0,0.0,0.0,0.0,0.0,0.0,0.0,0.0,0.0,0.0,0.0,0.0,0.0,0.0,0.0,0.0,0.0,0.0,0.0,0.0,0.0,0.0,0.0,0.0,0.0,0.0,0.0,0.0,0.0,0.0,0.0,0.0,0.0,0.0,0.0,0.0,0.0,0.0,0.0,0.0,0.0,0.0,0.0,0.0,0.0,0.0,0.0,0.0,0.0,0.0,0.0,0.0,0.0,0.0,0.0,0.0,0.0,0.0,0.0,0.0,0.0,0.0,0.0,0.0,0.0,0.0,0.0,0.0,0.0,0.0,0.0,0.0,0.0,0.0,0.0,0.0,0.0,0.0,0.0,0.0,0.0,0.0,0.0,0.0,0.0,0.0,0.0,0.0,0.0,0.0,0.0,0.0,0.0,0.0,0.0,0.0,0.0,0.0,0.0,0.0,0.0,0.0,0.0,0.0,0.0,0.0,0.0,0.0,0.0,0.0,0.0,0.0,0.0,0.0,0.0,0.0,0.0,0.0,0.0,0.0,0.0,0.0,0.0,0.0,0.0,0.0,0.0,0.0,0.0,0.0,0.0,0.0,0.0,0.0,0.0,0.0,0.0,0.0,0.0,0.0,0.0,0.0,0.0,0.0,0.0,0.0,0.0,0.0,0.0,0.0,0.0,0.0,0.0,0.0,0.0,0.0,0.0,0.0,0.0,0.0,0.0,0.0,0.0,0.0,0.0,0.0,0.0,0.0,0.0,0.0,0.0,0.0,0.0,0.0,0.0,0.0,0.0,0.0,0.0,0.0,0.0,0.0,0.0,0.0,0.0,0.0,0.0,0.0,0.0,0.0,0.0,0.0,0.0,0.0,0.0,0.0,0.0,0.0,0.0,0.0,0.0,0.0,0.0,0.0,0.0,0.0,0.0,0.0,0.0,0.0,0.0,0.0,0.0,0.0,0.0,0.0,0.0,0.0,0.0,0.0,0.0,0.0,0.0,0.0,0.0,0.0,0.0,0.0,0.0,0.0,0.0,0.0,0.0,0.0,0.0,0.0,0.0,0.0,0.0,0.0,0.0,0.0,0.0,0.0,0.0,0.0,0.0,0.0,0.0,0.0,0.0,0.0,0.0,0.0,0.0,0.0,0.0,0.0,0.0,0.0,0.0,0.0,0.0,0.0,0.0,0.0,0.0,0.0,0.0,0.0,0.0,0.0,0.0,0.0,0.0,0.0,0.0,0.0,0.0,0.0,0.0,0.0,0.0,0.0,0.0,0.0,0.0,0.0,0.0,0.0,0.0,0.0,0.0,0.0,0.0,0.0,0.0,0.0,0.0,0.0,0.0,0.0,0.0,0.0,0.0,0.0,0.0,0.0,0.0,0.0,0.0,0.0,0.0,0.0,0.0,0.0,0.0,0.0,0.0,0.0,0.0,0.0,0.0,0.0,0.0,0.0,0.0,0.0,0.0,0.0,0.0,0.0,0.0,0.0,0.0,0.0,0.0,0.0,0.0,0.0,0.0,0.0,0.0,0.0,0.0,0.0,0.0,0.0,0.0,0.0,0.0,0.0,0.0,0.0,0.0,0.0,0.0,0.0,0.0,0.0,0.0,0.0,0.0,0.0,0.0,0.0,0.0,0.0,0.0,0.0,0.0,0.0,0.0,0.0,0.0,0.0,0.0,0.0,0.0,0.0,0.0,0.0,0.0,0.0,0.0,0.0,0.0,0.0,0.0,0.0,0.0,0.0,0.0,0.0,0.0,0.0,0.0,0.0,0.0,0.0,0.0,0.0,0.0,0.0,0.0,0.0,0.0,0.0,0.0,0.0,0.0,0.0,0.0,0.0,0.0,0.0,0.0,0.0,0.0,0.0,0.0,0.0,0.0,0.0,0.0,0.0,0.0,0.0,0.0,0.0,0.0,0.0,0.0,0.0,0.0,0.0,0.0,0.0,0.0,0.0,0.0,0.0,0.0,0.0,0.0,0.0,0.0,0.0,0.0,0.0,0.0,0.0,0.0,0.0,0.0,0.0,0.0,0.0,0.0,0.0,0.0,0.0,0.0,0.0,0.0,0.0,0.0,0.0,0.0,0.0,0.0,0.0,0.0,0.0,0.0,0.0,0.0,0.0,0.0,0.0,0.0,0.0,0.0,0.0,0.0,0.0,0.0,0.0,0.0,0.0,0.0,0.0,0.0,0.0,0.0,0.0,0.0,0.0,0.0,0.0,0.0,0.0,0.0,0.0,0.0,0.0,0.0,0.0,0.0,0.0,0.0,0.0,0.0,0.0,0.0,0.0,0.0,0.0,0.0,0.0,0.0,0.0,0.0,0.0,0.0,0.0,0.0,0.0,0.0,0.0,0.0,0.0,0.0,0.0,0.0,0.0,0.0,0.0,0.0,0.0,0.0,0.0,0.0,0.0,0.0,0.0,0.0,0.0,0.0,0.0,0.0,0.0,0.0,0.0,0.0,0.0,0.0,0.0,0.0,0.0,0.0,0.0,0.0,0.0,0.0,0.0,0.0,0.0,0.0,0.0,0.0,0.0,0.0,0.0,0.0,0.0,0.0,0.0,0.0,0.0,0.0,0.0,0.0,0.0,0.0,0.0,0.0,0.0,0.0,0.0,0.0,0.0,0.0,0.0,0.0,0.0,0.0,0.0,0.0,0.0,0.0,0.0,0.0,0.0,0.0,0.0,0.0,0.0,0.0,0.0,0.0,0.0,0.0,0.0,0.0,0.0,0.0,0.0,0.0,0.0,0.0,0.0,0.0,0.0,0.0,0.0,0.0,0.0,0.0,0.0,0.0,0.0,0.0,0.0,0.0,0.0,0.0,0.0,0.0,0.0,0.0,0.0,0.0,0.0,0.0,0.0,0.0,0.0,0.0,0.0,0.0,0.0,0.0,0.0,0.0,0.0,0.0,0.0,0.0,0.0,0.0,0.0,0.0,0.0,0.0,0.0,0.0,0.0,0.0,0.0,0.0,0.0,0.0,0.0,0.0,0.0,0.0,0.0,0.0,0.0,0.0,0.0,0.0,0.0,0.0,0.0,0.0,0.0,0.0,0.0,0.0,0.0,0.0,0.0,0.0,0.0,0.0,0.0,0.0,0.0,0.0,0.0,0.0,0.0,0.0,0.0,0.0,0.0,0.0,0.0,0.0,0.0,0.0,0.0,0.0,0.0,0.0,0.0,0.0,0.0,0.0,0.0,0.0,0.0,0.0,0.0,0.0,0.0,0.0,0.0,0.0,0.0,0.0,0.0,0.0,0.0,0.0,0.0,0.0,0.0,0.0,0.0,0.0,0.0,0.0,0.0,0.0,0.0,0.0,0.0,0.0,0.0,0.0,0.0,0.0,0.0,0.0,0.0,0.0,0.0,0.0,0.0,0.0,0.0,0.0,0.0,0.0,0.0,0.0,0.0,0.0,0.0,0.0,0.0,0.0,0.0,0.0,0.0,0.0,0.0,0.0,0.0,0.0,0.0,0.0,0.0,0.0,0.0,0.0,0.0,0.0,0.0,0.0,0.0,0.0,0.0,0.0,0.0,0.0,0.0,0.0,0.0,0.0,0.0,-3.244,-3.1695,0.0,0.0,0.0,0.0,0.0,0.0,0.0,0.0,0.0,0.0,0.0,0.0,0.0,0.0,0.0,0.0,0.0,0.0,0.0,0.0,0.0,0.0,0.0,-2.4575,-2.4264,-2.3646,-2.3887,-2.3954,-2.3625,0.0,0.0,0.0,0.0,0.0,-2.0724,-2.0524,-2.0524,-2.0699,-2.0398,-2.0271,-2.0347,-2.022,-1.9914,-1.9488,0.0,0.0,0.0,0.0,0.0,0.0,0.0,0.0,0.0,0.0,0.0,0.0,0.0,0.0,0.0,0.0,0.0,0.0,0.0,0.0,0.0,0.0,0.0,0.0,0.0,0.0,0.0,0.0,0.0,0.0,0.0,0.0,0.0,0.0,0.0,0.0,0.0,0.0,0.0,0.0,0.0,0.0,0.0,0.0,0.0,0.0,0.0,0.0,0.0,0.0,0.0,0.0,0.0,0.0,0.0,0.0,0.0,0.0,0.0,0.0,0.0,0.0,0.0,0.0,0.0,0.0,0.0,0.0,0.0,0.0,-3.4075,-3.3713,0.0,0.0,0.0,0.0,0.0,0.0,0.0,0.0,0.0,0.0,0.0,0.0,0.0,0.0,0.0,0.0,0.0,0.0,0.0,0.0,0.0,-2.3626,-2.4307,-2.4416,-2.4201,-2.3655,-2.4096,-2.4186,-2.364,-2.3508,0.0,0.0,0.0,-2.1589,-2.0724,-2.0687,-2.0687,-2.0699,-2.0587,-2.0423,-2.0258,-2.0423,-2.0118,-1.9422,-1.9277,0.0,0.0,0.0,0.0,0.0,0.0,0.0,0.0,0.0,0.0,0.0,0.0,0.0,0.0,0.0,0.0,0.0,0.0,0.0,0.0,0.0,0.0,0.0,0.0,0.0,0.0,0.0,0.0,0.0,0.0,0.0,0.0,0.0,0.0,0.0,0.0,0.0,0.0,0.0,0.0,0.0,0.0,0.0,0.0,0.0,0.0,0.0,0.0,0.0,0.0,0.0,0.0,0.0,0.0,0.0,0.0,0.0,0.0,0.0,0.0,0.0,0.0,0.0,-3.6625,-3.67,-3.7213,-3.6728,-3.6771,-3.7094,-3.5797,-3.5942,-3.6937,-3.5439,0.0,0.0,0.0,0.0,0.0,0.0,0.0,0.0,0.0,0.0,0.0,0.0,0.0,0.0,0.0,0.0,0.0,0.0,0.0,-2.3492,-2.4225,-2.3964,-2.3699,-2.361,-2.3684,-2.3684,-2.361,-2.3224,0.0,0.0,-2.1708,-2.1253,-2.0699,-2.0587,-2.0587,-2.0699,-2.0687,-2.0599,-2.0461,-2.0486,-2.0436,-2.0334,-2.0131,-2.0041,-2.0015,0.0,0.0,0.0,0.0,0.0,0.0,0.0,0.0,0.0,0.0,0.0,0.0,0.0,0.0,0.0,0.0,0.0,0.0,0.0,0.0,0.0,0.0,0.0,0.0,0.0,0.0,0.0,0.0,0.0,0.0,0.0,0.0,0.0,0.0,0.0,0.0,0.0,0.0,0.0,0.0,0.0,-3.1173,-3.1916,0.0,0.0,0.0,0.0,0.0,0.0,0.0,0.0,0.0,0.0,0.0,0.0,0.0,-3.6803,-3.7315,-3.8148,-3.8512,-3.843,-3.9117,-3.9405,-3.9295,-3.8804,-3.9036,-3.973,-3.8609,0.0,-3.7293,-3.654,0.0,0.0,0.0,0.0,0.0,0.0,0.0,0.0,0.0,0.0,0.0,0.0,0.0,0.0,0.0,0.0,0.0,0.0,0.0,0.0,0.0,-2.4063,-2.4007,-2.3625,-2.3954,-2.4014,-2.3625,-2.3157,-2.2807,-2.261,-2.1839,-2.1316,-2.1145,-2.0794,-2.0637,-2.0699,-2.0699,-2.0687,-2.0612,-2.0612,-2.0612,-2.0612,-2.0524,-2.0553,-2.0681,-2.0271,0.0,0.0,0.0,0.0,0.0,0.0,0.0,0.0,0.0,0.0,0.0,0.0,0.0,0.0,0.0,0.0,0.0,0.0,0.0,0.0,0.0,0.0,0.0,0.0,0.0,0.0,0.0,0.0,0.0,0.0,0.0,0.0,0.0,0.0,0.0,0.0,0.0,0.0,0.0,-3.0875,-3.2303,-3.2991,-3.3395,-3.3469,0.0,0.0,0.0,0.0,0.0,0.0,0.0,0.0,0.0,-3.7121,-3.7481,-3.7846,-3.8265,-3.8893,-3.9259,-3.9259,-3.9738,-4.0156,-4.0428,-4.0341,-4.0356,-4.0497,-4.0052,-3.9328,-3.8482,-3.7823,-3.7389,-3.706,0.0,0.0,0.0,0.0,-3.6133,-3.6222,0.0,0.0,0.0,0.0,0.0,0.0,0.0,0.0,0.0,0.0,0.0,0.0,-2.3571,-2.4146,-2.4273,-2.364,-2.4073,-2.4126,-2.3625,-2.3157,-2.2864,-2.2764,-2.1894,-2.1356,-2.1302,-2.0896,-2.0699,-2.0699,-2.0699,-2.0699,-2.0699,-2.0699,-2.0699,-2.0699,-2.0699,-2.0821,-2.0978,-2.063,-2.0332,0.0,0.0,0.0,0.0,0.0,0.0,0.0,0.0,0.0,0.0,0.0,0.0,0.0,0.0,0.0,0.0,0.0,0.0,0.0,0.0,0.0,0.0,0.0,0.0,0.0,0.0,0.0,0.0,0.0,0.0,0.0,0.0,0.0,0.0,0.0,0.0,0.0,0.0,-3.2168,-3.326,-3.3933,-3.4592,-3.4758,0.0,0.0,0.0,0.0,0.0,0.0,-3.6911,-3.6971,-3.7338,-3.8101,-3.8512,-3.8802,-3.8958,-3.9313,-3.9553,-3.9681,-3.9818,-4.0106,-4.06,-4.0805,-4.0721,-4.0432,-4.0432,-4.0095,-3.9451,-3.8856,-3.8542,-3.8347,-3.7853,-3.7554,-3.7434,-3.7599,-3.7659,-3.7749,0.0,0.0,0.0,0.0,0.0,0.0,0.0,0.0,0.0,0.0,0.0,-2.4069,-2.3638,-2.4024,-2.4124,-2.3653,-2.3625,-2.364,0.0,-2.3157,-2.2663,-2.217,-2.1688,-2.1193,-2.0751,-2.0725,-2.0699,-2.0699,-2.0699,-2.0699,-2.0699,-2.0699,-2.0699,-2.0699,-2.0699,-2.07,-2.0727,-2.1108,-2.0693,-1.9886,0.0,0.0,0.0,0.0,0.0,0.0,0.0,0.0,0.0,0.0,0.0,0.0,0.0,0.0,0.0,0.0,0.0,0.0,0.0,0.0,0.0,0.0,0.0,0.0,0.0,0.0,0.0,0.0,0.0,0.0,0.0,0.0,0.0,0.0,0.0,0.0,0.0,0.0,0.0,-3.5325,-3.5983,0.0,0.0,0.0,0.0,-3.6387,-3.6926,-3.7569,-3.8257,-3.8287,-3.8601,-3.929,-3.9514,-3.9636,-3.9636,-3.9666,-3.9681,-3.9681,-3.9517,-3.946,-3.9481,-3.9681,-3.9788,-3.9753,-3.9753,-3.9717,-3.9661,-3.9451,-3.8975,-3.8392,-3.8347,-3.7958,-3.7479,-3.8108,-3.8347,-3.8437,0.0,0.0,0.0,-2.2508,-2.2373,-2.2453,-2.2778,-2.3053,-2.3295,-2.3548,-2.376,-2.3782,-2.3616,-2.376,-2.3767,-2.3616,-2.3595,-2.3595,-2.3595,-2.3157,-2.2836,-2.268,-2.1866,-2.118,-2.0699,-2.0699,-2.0699,-2.0699,-2.0699,-2.0699,-2.0699,-2.0699,-2.0699,-2.0699,-2.0699,-2.0699,-2.0713,-2.1225,-2.1225,-2.0952,-2.1719,-2.1549,0.0,0.0,0.0,0.0,0.0,0.0,0.0,0.0,0.0,0.0,0.0,0.0,0.0,0.0,0.0,0.0,0.0,0.0,0.0,0.0,0.0,0.0,0.0,0.0,0.0,0.0,0.0,0.0,0.0,0.0,0.0,0.0,0.0,0.0,0.0,0.0,0.0,-3.6656,-3.73,0.0,-3.6791,-3.6941,-3.7255,-3.7674,-3.7913,-3.8332,-3.902,-3.905,-3.917,-3.9373,-3.9445,-3.9517,-3.9517,-3.9517,-3.9517,-3.9517,-3.9553,-3.9809,-4.0239,-4.0428,-4.0462,-4.0343,-4.0343,-4.0025,-3.9517,-3.9424,-3.9275,-3.905,-3.905,-3.8916,-3.8736,-3.8975,-3.905,-3.9095,-2.2878,-2.2479,0.0,-2.2214,-2.2031,-2.2133,-2.2919,-2.3188,-2.3409,-2.3593,-2.3739,-2.3782,-2.3616,-2.3739,-2.3767,-2.3616,-2.3595,-2.3595,-2.3595,-2.3157,-2.2836,-2.2694,-2.171,-2.1008,-2.0699,-2.0699,-2.0699,-2.0699,-2.0699,-2.0699,-2.0699,-2.0699,-2.0699,-2.0699,-2.0699,-2.0699,-2.0751,-2.1498,-2.1694,-2.1577,-2.2335,-2.2336,-2.1799,0.0,0.0,0.0,0.0,0.0,0.0,0.0,0.0,0.0,0.0,0.0,0.0,0.0,0.0,0.0,0.0,0.0,0.0,0.0,0.0,0.0,0.0,0.0,0.0,0.0,0.0,0.0,0.0,0.0,0.0,0.0,0.0,0.0,0.0,-3.5684,-3.6941,-3.736,-3.8197,-3.8467,-3.7808,-3.7943,-3.8272,-3.8706,-3.8736,-3.8931,-3.9394,-3.9388,-3.9388,-3.9388,-3.9388,-3.946,-3.9604,-3.946,-3.946,-3.9604,-3.9589,-3.9844,-4.0274,-4.0393,-4.0393,-4.0274,-4.0274,-3.992,-3.9388,-3.9388,-3.9388,-3.9388,-3.9388,-3.9388,-3.9388,-3.9388,-3.9388,-3.9388,-2.2197,-2.1812,-2.1598,-2.1898,-2.21,-2.2324,-2.2695,-2.3242,-2.3595,-2.3595,-2.3994,-2.4099,-2.3638,-2.4009,-2.4114,-2.3638,-2.3595,-2.3595,-2.3595,-2.3157,-2.2649,-2.2105,-2.1215,-2.0699,-2.0699,-2.0699,-2.0699,-2.0699,-2.0699,-2.0699,-2.0699,-2.0699,-2.0699,-2.0699,-2.0699,-2.0699,-2.0777,-2.1917,-2.2061,-2.1642,-2.2752,-2.2897,-2.2414,0.0,0.0,0.0,0.0,0.0,0.0,0.0,0.0,0.0,0.0,0.0,0.0,0.0,0.0,0.0,0.0,0.0,0.0,0.0,0.0,0.0,0.0,0.0,0.0,0.0,0.0,0.0,0.0,0.0,0.0,0.0,0.0,0.0,-3.5564,-3.6641,-3.7449,-3.7464,-3.8631,-3.9155,-3.8482,-3.9035,-3.9388,-3.9388,-3.9388,-3.9388,-3.9388,-3.9388,-3.9388,-3.9388,-3.9388,-3.9604,-3.9975,-3.9604,-3.9604,-3.9996,-3.964,-3.946,-3.9445,-3.9445,-3.9445,-3.9445,-3.9445,-3.9445,-3.9409,-3.9409,-3.9409,-3.9388,-3.9388,-3.9388,-3.9388,-3.9388,-3.9388,-3.9388,-2.2003,-2.1631,-2.1697,-2.2792,-2.2556,-2.2574,-2.3692,-2.3704,-2.3595,-2.3595,-2.3702,-2.3739,-2.3616,-2.3717,-2.3739,-2.3595,-2.3595,-2.3595,-2.3595,-2.3157,-2.2526,-2.1612,-2.1337,-2.1033,-2.0699,-2.0699,-2.0699,-2.0699,-2.0699,-2.0699,-2.0699,-2.0699,-2.0699,-2.0699,-2.0699,-2.0699,-2.0751,-2.1459,-2.189,-2.2257,-2.3393,-2.3511,-2.2988,0.0,0.0,0.0,0.0,0.0,0.0,0.0,0.0,0.0,0.0,0.0,0.0,0.0,0.0,0.0,0.0,0.0,0.0,0.0,0.0,0.0,0.0,0.0,0.0,0.0,0.0,0.0,0.0,0.0,0.0,0.0,-3.5594,-3.6881,-3.6881,-3.7599,-3.8302,-3.8811,-3.92,-3.9349,-3.9155,-3.9305,-3.9388,-3.9388,-3.9388,-3.9388,-3.9388,-3.9388,-3.9388,-3.9388,-3.9388,-3.946,-3.9568,-3.946,-3.9717,-4.0355,-4.025,-4.0443,-4.0925,-4.0925,-4.0925,-4.0925,-4.0925,-4.0634,-4.0216,-4.0216,-3.9879,-3.9388,-3.9388,-3.9388,-3.9388,-3.9388,-3.9388,-3.9388,-2.1955,-2.1861,-2.2151,-2.3252,-2.3012,-2.3036,-2.4133,-2.3909,-2.3595,-2.3595,-2.3595,-2.3595,-2.3595,-2.3595,-2.3595,-2.3595,-2.3595,-2.3595,-2.3595,-2.3157,-2.2457,-2.1434,-2.1399,-2.118,-2.0699,-2.0699,-2.0699,-2.0699,-2.0699,-2.0699,-2.0699,-2.0699,-2.0699,-2.0699,-2.0699,-2.0699,-2.0738,-2.1263,-2.1838,-2.2467,-2.3367,-2.3652,-2.3561,-2.3561,-2.3393,-2.3067,-2.2831,-2.274,-2.2715,-2.2467,0.0,0.0,0.0,0.0,0.0,0.0,0.0,0.0,0.0,0.0,0.0,0.0,0.0,0.0,0.0,0.0,0.0,0.0,0.0,0.0,0.0,0.0,0.0,0.0,-3.6896,-3.7913,-3.8212,-3.8571,-3.8975,-3.9328,-3.9388,-3.9388,-3.9388,-3.9388,-3.9388,-3.9388,-3.9388,-3.9388,-3.9388,-3.9388,-3.9388,-3.9388,-3.9388,-3.946,-3.9517,-3.9445,-3.9646,-4.0181,-4.0374,-4.0703,-4.1075,-4.1075,-4.1075,-4.106,-4.0771,-4.0409,-4.0056,-4.0056,-3.9788,-3.9388,0.0,0.0,0.0,0.0,-3.9388,-3.9388,-2.2249,-2.248,-2.2867,-2.35,-2.3483,-2.3566,-2.4194,-2.3909,-2.3595,-2.3595,-2.3595,-2.3595,-2.3595,-2.3595,-2.3595,-2.3595,-2.367,-2.3723,-2.3754,-2.3253,-2.2555,-2.1567,-2.1499,-2.1229,-2.0699,-2.0699,-2.0699,-2.0699,-2.0699,-2.0699,-2.0699,-2.0699,-2.0699,-2.0699,-2.0699,-2.0699,-2.0738,-2.1223,-2.1786,-2.244,-2.2923,-2.3524,-2.4083,-2.4083,-2.4083,-2.4018,-2.3483,-2.3287,-2.3237,-2.2754,0.0,0.0,0.0,0.0,0.0,0.0,0.0,0.0,0.0,0.0,0.0,0.0,0.0,0.0,0.0,0.0,0.0,0.0,0.0,0.0,0.0,0.0,0.0,0.0,-3.8078,-3.8721,-3.9334,-3.9388,-3.9388,-3.9388,-3.9388,-3.9388,-3.9388,-3.9388,-3.9388,-3.9388,-3.9388,-3.9388,-3.9388,-3.9388,0.0,0.0,0.0,-3.9601,-3.9766,-3.9601,-3.9592,-3.9788,-4.0285,-4.0581,-4.0737,-4.0737,-4.0737,-4.0703,-4.0041,-3.9681,-3.9517,-3.9517,-3.9496,-3.9388,-3.9388,-3.9388,-3.9388,-3.9388,-3.9388,-3.9388,-2.3712,-2.3701,-2.3835,-2.4229,-2.3968,-2.3826,-2.4236,-2.3909,-2.3595,-2.3595,-2.3595,-2.3595,-2.3595,-2.3595,-2.3595,-2.3595,-2.4081,-2.4476,0.0,0.0,-2.3084,-2.2226,-2.2066,-2.1565,-2.0724,-2.0699,-2.0699,-2.0699,-2.0699,-2.0699,-2.0699,-2.0699,-2.0699,-2.0699,-2.0699,-2.0699,-2.0712,-2.0805,-2.1459,-2.2413,-2.2519,-2.3171,-2.4083,-2.4083,-2.4083,-2.407,-2.3981,-2.3913,-2.39,-2.3812,-2.3524,-2.3169,-2.3093,0.0,0.0,0.0,0.0,0.0,0.0,0.0,0.0,0.0,0.0,0.0,0.0,0.0,0.0,0.0,0.0,0.0,0.0,0.0,0.0,-3.8048,-3.8781,-3.9275,-3.9394,-3.9388,-3.9388,-3.9388,-3.9388,-3.9388,-3.9388,-3.9388,-3.9388,-3.9388,-3.9388,-3.9388,-3.9388,-3.9388,-3.9664,-4.0187,-4.0217,-4.0217,-4.0276,-4.0217,-4.0245,-4.0355,-4.0443,0.0,-4.219,-4.219,-4.219,-4.219,-4.2061,-4.1343,-4.0285,-4.0285,-3.995,-3.9388,-3.9388,-3.9388,-3.9388,-3.9388,-3.9388,-3.9388,-2.5095,-2.4829,-2.4545,-2.4506,-2.4425,-2.4351,-2.4318,-2.3909,-2.3595,-2.3595,-2.3595,-2.3595,-2.3595,-2.3595,-2.3595,-2.3595,-2.4201,0.0,0.0,-2.4335,-2.3811,-2.3176,-2.2465,-2.1766,-2.1057,-2.0823,-2.0699,-2.0699,-2.0699,-2.0699,-2.0699,-2.0699,-2.0699,-2.0699,-2.0699,-2.0699,-2.0725,-2.0988,-2.1616,-2.2413,-2.2675,-2.3315,-2.4083,-2.4083,-2.4083,-2.4083,-2.4083,-2.4083,-2.4083,-2.4083,-2.3858,-2.3553,-2.3553,-2.3632,-2.3682,0.0,0.0,0.0,0.0,0.0,0.0,0.0,0.0,0.0,0.0,0.0,0.0,0.0,0.0,-3.5716,-3.6342,0.0,-3.8123,-3.8796,-3.9185,-3.9388,-3.9388,-3.9388,-3.9388,-3.9388,-3.9388,-3.9388,-3.9388,-3.9388,-3.9388,-3.9388,-3.9723,-3.9903,-3.9903,-4.0217,-4.0546,-4.0876,-4.0891,-4.0891,-4.0891,-4.0561,-4.0401,-4.0436,-4.0473,-4.0873,-4.1558,-4.1558,-4.1558,-4.1525,-4.116,-4.06,-3.995,-3.995,-3.9717,-3.9388,-3.9388,-3.9388,-3.9388,-3.9388,-3.9388,-3.9388,-2.6104,-2.5722,-2.517,-2.4657,-2.4751,-2.4724,-2.4224,-2.3846,-2.3595,-2.3595,-2.3595,-2.3595,-2.3595,-2.3595,-2.3655,0.0,0.0,0.0,0.0,-2.4874,-2.454,-2.3974,-2.2871,-2.1985,-2.1277,-2.0898,-2.0699,-2.0699,-2.0699,-2.0699,-2.0699,-2.0817,-2.0869,-2.0857,-2.0987,-2.104,-2.1066,-2.1485,-2.2008,-2.2543,-2.2972,-2.3491,-2.3995,-2.3995,-2.4024,-2.4083,-2.4083,-2.4083,-2.4083,-2.4054,-2.3979,-2.3891,-2.3861,-2.4163,-2.454,-2.461,-2.5029,0.0,0.0,0.0,0.0,0.0,0.0,0.0,0.0,-3.3286,-3.4078,-3.4872,-3.6089,-3.7176,-3.7704,-3.8227,-3.8766,-3.9334,-3.9388,-3.9388,-3.9388,-3.9388,-3.9388,-3.9388,-3.9388,-3.9388,-3.9388,-3.9388,-3.9433,-3.9568,-4.0098,-4.0457,-4.0591,-4.11,-4.1482,-4.1602,-4.1564,-4.1564,-4.1564,-4.1055,-4.0651,-4.0397,-4.0462,-4.0477,-4.0512,-4.0512,-4.0512,-4.0443,-3.9717,-3.9388,-3.9388,-3.9388,-3.9388,-3.9388,-3.9388,-3.9388,-3.9388,-3.9388,-3.9388,-3.9388,-2.6205,-2.6119,-2.5821,-2.4987,-2.4875,-2.4623,-2.3809,-2.3638,-2.3595,-2.3595,-2.3595,-2.3595,-2.3595,-2.3595,-2.3849,-2.444,0.0,0.0,-2.6303,-2.5824,-2.5064,-2.412,-2.3364,-2.228,-2.0812,-2.0724,-2.0699,-2.0699,-2.0699,-2.0699,-2.0712,-2.1172,-2.142,-2.1433,-2.1969,-2.2205,-2.2205,-2.227,-2.2541,-2.2935,-2.3,-2.3289,-2.3658,-2.3658,-2.3848,-2.4083,-2.4083,-2.4083,-2.4083,-2.3949,-2.392,-2.3861,-2.3688,-2.4236,-2.4874,-2.4522,-2.509,-2.5719,-2.5191,-2.6296,-2.836,-3.1432,-3.2283,-3.2856,0.0,-3.5727,-3.6491,-3.7455,-3.8273,-3.888,-3.9134,-3.926,-3.9334,-3.9373,-3.9388,-3.9388,-3.9388,-3.9388,-3.9388,-3.9388,-3.9388,-3.9388,-3.9388,-3.9388,-3.9664,-4.0247,-4.0367,-4.0651,-4.125,-4.1339,-4.1692,-4.2276,-4.2291,-4.2291,-4.2291,-4.2216,-4.1587,-4.0397,-4.0396,-4.0455,-4.0512,-4.0512,-4.0512,-4.0443,-3.9717,-3.9388,-3.9388,-3.9388,-3.9388,-3.9388,-3.9388,-3.9388,-3.9388,-3.9388,-3.9388,-3.9388,-2.6203,-2.6202,-2.6007,-2.5368,-2.5059,-2.4704,-2.4099,-2.3782,-2.3595,-2.3595,-2.3595,-2.3595,-2.3595,-2.3595,-2.3879,-2.4545,-2.4963,-2.56,-2.6527,-2.6333,-2.5985,-2.5565,-2.4301,-2.3317,-2.2631,-2.2007,-2.1681,-2.1708,-2.1681,-2.1708,-2.1708,-2.1917,-2.2021,-2.2035,-2.2283,-2.2401,-2.2413,-2.2727,-2.2918,-2.3036,-2.3459,-2.3615,-2.3628,-2.373,-2.3848,-2.3979,-2.3979,-2.3979,0.0,0.0,-2.3819,-2.37,-2.3539,-2.3918,-2.4482,-2.4716,-2.5223,-2.5922,-2.6804,-2.8483,-3.0417,-3.2072,-3.3143,-3.4203,-3.5804,-3.6409,-3.6998,-3.8373,-3.8911,-3.9141,-3.9337,-3.9388,-3.9388,-3.9388,-3.9388,-3.9388,-3.9388,-3.9388,-3.9388,-3.9388,-3.9388,-3.9388,-3.9388,-3.9388,-3.9694,-4.0352,-4.0756,-4.125,-4.1961,-4.2312,-4.2641,-4.291,-4.2925,-4.2925,-4.2925,-4.259,-4.1931,-4.0965,-4.0591,-4.022,-3.9844,-3.9844,-3.9844,-3.9844,-3.9517,-3.9388,-3.9388,-3.9388,-3.9388,-3.9388,-3.9388,-3.9388,-3.9388,-3.9388,-3.9388,-3.9388,-2.6202,-2.6202,-2.6097,-2.574,-2.5349,-2.4883,-2.4385,-2.4015,-2.376,-2.3616,-2.3595,-2.3595,-2.3595,-2.3595,-2.3879,-2.4545,-2.5202,-2.5884,-2.6566,-2.6752,-2.6668,-2.6179,-2.4962,-2.4052,-2.3577,-2.2804,-2.2401,-2.24,-2.2401,-2.2388,-2.2388,-2.2544,-2.2622,-2.2637,-2.2964,-2.3121,-2.3145,-2.3678,-2.3855,-2.3748,-2.4294,-2.4343,-2.4064,-2.4086,-2.4051,-2.4038,-2.3942,-2.392,0.0,0.0,-2.373,-2.3569,-2.339,-2.3631,-2.4136,-2.4804,-2.5547,-2.6455,-2.8061,-2.9905,-3.1549,-3.2295,-3.3583,-3.4923,-3.6018,-3.6543,-3.7141,-3.8427,-3.8862,-3.9068,-3.9265,-3.9337,-3.9388,-3.9388,-3.9388,-3.9388,-3.9388,-3.9388,-3.9388,-3.9388,-3.9388,-3.9388,-3.9388,-3.9388,-3.9768,-4.0606,-4.1115,-4.1782,-4.2581,-4.3075,-4.329,-4.329,-4.329,-4.329,-4.329,-4.2865,-4.2207,-4.1369,-4.0905,-4.0232,-3.9388,-3.9388,-3.9388,-3.9388,-3.9388,-3.9388,-3.9388,-3.9388,-3.9388,-3.9388,-3.9388,-3.9388,-3.9388,-3.9388,-3.9388,-3.9388,-2.6202,-2.6202,-2.6202,-2.6168,-2.5793,-2.5218,-2.4426,-2.4281,-2.4114,-2.3659,-2.3595,-2.3595,-2.3595,-2.3595,-2.3879,-2.4545,-2.5202,-2.5884,-2.6566,-2.721,-2.6802,-2.5109,-2.4988,-2.417,-2.2482,-2.2415,-2.2388,-2.2388,-2.2388,-2.2388,-2.2401,-2.2936,-2.3197,-2.3237,-2.4416,-2.4913,-2.4966,-2.5497,-2.5652,-2.554,-2.5553,-2.5427,-2.5192,-2.4672,-2.4466,-2.442,-2.4055,0.0,0.0,0.0,-2.3599,-2.3539,-2.3198,-2.354,0.0,-2.4657,-2.6043,-2.7611,-2.8298,-2.9518,-3.0849,-3.2162,-3.347,-3.4588,-3.5276,-3.6409,-3.7361,-3.7594,-3.826,-3.887,-3.9068,-3.9265,-3.9388,-3.9388,-3.9388,-3.9388,-3.9388,-3.9388,-3.9388,-3.9388,-3.9388,-3.9388,-3.9388,-3.9388,-3.9963,-4.125,-4.1407,-4.1938,-4.32,-4.329,-4.329,-4.329,-4.329,-4.329,-4.329,-4.3275,-4.2656,-4.1422,-4.1392,-4.0666,-3.9388,-3.9388,-3.9388,-3.9388,-3.9388,-3.9388,-3.9388,-3.9388,-3.9388,-3.9388,-3.9388,-3.9388,-3.9388,-3.9388,-3.9388,-3.9388,-2.6202,-2.6202,-2.6202,-2.6202,-2.6061,-2.5772,-2.5195,-2.4639,-2.4135,-2.3659,-2.3595,0.0,0.0,0.0,0.0,0.0,-2.5202,-2.5884,-2.6566,-2.7225,-2.7344,-2.6736,-2.5954,-2.5255,-2.4668,-2.4308,-2.4115,-2.4115,-2.4465,-2.4661,-2.4661,-2.4827,-2.4918,-2.4931,-2.5354,-2.5537,-2.555,-2.5702,-2.5844,-2.5897,-2.5639,-2.5512,-2.5456,-2.5167,-2.4782,-2.4436,0.0,0.0,0.0,-2.3688,-2.3599,-2.3539,-2.3198,0.0,0.0,-2.4104,-2.5875,-2.7687,-2.7908,-2.9547,-3.1389,-3.2289,-3.3166,-3.4099,-3.516,-3.5741,-3.6212,-3.6812,-3.7254,-3.7748,-3.8377,-3.8629,-3.8886,-3.9349,-3.9388,-3.9388,-3.9388,-3.9388,-3.9388,-3.9388,-3.9388,-3.9388,-3.9388,-3.9388,-3.9963,-4.128,-4.1422,-4.1953,-4.323,-4.329,-4.329,-4.329,-4.329,-4.329,-4.329,-4.329,-4.2895,-4.2051,-4.1145,-4.0277,-3.9388,-3.9388,-3.9388,-3.9388,-3.9388,-3.9388,-3.9388,-3.9388,-3.9388,-3.9388,-3.9388,-3.9388,-3.9388,-3.9388,-3.9388,-3.9388,-2.6202,-2.6202,-2.6202,-2.6202,-2.6202,0.0,0.0,0.0,0.0,0.0,0.0,0.0,0.0,0.0,0.0,0.0,0.0,-2.5884,-2.6566,-2.6788,-2.6937,-2.6967,-2.6041,-2.5384,-2.5147,-2.4776,-2.4706,-2.4888,-2.5235,-2.5553,-2.5793,-2.5793,-2.5793,-2.5806,-2.6046,-2.6125,-2.6138,-2.6315,-2.6473,-2.6574,-2.6311,-2.6245,-2.6238,-2.5904,-2.5574,0.0,0.0,0.0,0.0,-2.3888,-2.3658,-2.3569,-2.33,0.0,0.0,-2.418,-2.6033,-2.7985,-2.7985,-2.9704,-3.1582,-3.2063,-3.2817,-3.3707,-3.4535,-3.5072,-3.5543,-3.607,-3.6488,-3.7066,-3.7914,-3.8231,-3.8546,-3.9269,-3.9388,-3.9388,-3.9388,-3.9388,-3.9514,-3.9738,-3.9768,-3.9858,-4.0098,-4.0113,-4.0472,-4.1324,-4.1632,-4.2207,-4.323,-4.329,-4.329,-4.329,-4.329,-4.329,-4.329,-4.329,-4.2895,-4.2036,-4.092,-4.0053,-3.9388,-3.9388,-3.9388,-3.9388,-3.9388,-3.9388,-3.9388,-3.9388,-3.9388,-3.9388,-3.9388,-3.9388,-3.9388,-3.9388,-3.9388,-3.9388,-2.6202,-2.6202,-2.6202,0.0,0.0,0.0,0.0,0.0,0.0,0.0,0.0,0.0,0.0,0.0,0.0,0.0,0.0,0.0,-2.6557,-2.6054,0.0,-2.5836,-2.5286,-2.4677,-2.3979,-2.3972,-2.4227,-2.4732,-2.4796,-2.5169,-2.5884,-2.5884,-2.5871,-2.5897,-2.6478,-2.6745,-2.6784,-2.7301,-2.7516,-2.7542,-2.7503,-2.7516,-2.7443,-2.6935,0.0,0.0,0.0,0.0,0.0,-2.4403,-2.385,-2.3646,-2.3539,-2.4091,-2.482,-2.4852,-2.6556,-2.8483,-2.8515,-2.9971,-3.1451,-3.148,-3.2483,-3.346,-3.3489,-3.4462,-3.5348,-3.5348,-3.5968,-3.6787,-3.7691,-3.8023,-3.8424,-3.9269,-3.9388,-3.9388,-3.9388,-3.9388,-3.9649,-4.0277,-4.0382,-4.0651,-4.1265,-4.1384,-4.1467,-4.1467,-4.2051,-4.2641,-4.326,-4.329,-4.329,-4.329,-4.329,-4.329,-4.329,-4.329,-4.2671,-4.1407,-4.0756,-4.0083,-3.9388,-3.9388,-3.9388,-3.9388,-3.9388,-3.9388,-3.9388,-3.9388,-3.9388,-3.9388,-3.9388,-3.9388,-3.9388,-3.9388,-3.9388,-3.9388,0.0,0.0,0.0,0.0,0.0,0.0,0.0,0.0,0.0,0.0,0.0,0.0,0.0,0.0,0.0,0.0,0.0,0.0,-2.6572,-2.6495,0.0,0.0,0.0,-2.492,-2.4734,-2.4953,0.0,0.0,0.0,-2.66,-2.694,-2.694,-2.696,-2.7059,-2.7216,-2.7314,-2.7281,-2.7438,-2.7683,-2.7898,0.0,-2.7514,-2.7674,0.0,0.0,0.0,0.0,0.0,0.0,-2.5312,-2.504,-2.4871,-2.4822,-2.4919,-2.5116,-2.5628,-2.676,-2.7997,-2.8521,-2.972,-3.093,-3.1409,-3.215,-3.289,-3.3402,-3.4114,-3.4646,-3.4646,-3.4928,-3.56,-3.691,-3.7341,-3.7888,-3.9194,-3.9388,-3.9388,-3.9388,-3.9388,-3.9448,-3.9649,-4.0113,-4.0472,-4.0636,-4.1572,-4.2156,-4.2156,-4.2306,-4.2641,-4.326,-4.329,-4.329,-4.329,-4.329,-4.329,-4.329,-4.329,-4.2671,-4.1422,-4.1205,-4.0531,-3.9388,-3.9388,-3.9388,-3.9388,-3.9388,-3.9388,-3.9388,-3.9388,-3.9388,-3.9388,-3.9388,-3.9388,-3.9388,-3.9388,-3.9388,-3.9388,0.0,0.0,0.0,0.0,0.0,0.0,0.0,0.0,0.0,0.0,0.0,0.0,0.0,0.0,0.0,0.0,0.0,0.0,0.0,-2.6377,0.0,0.0,0.0,-2.4679,-2.4319,-2.4719,-2.4922,0.0,0.0,0.0,0.0,-2.6873,-2.6972,-2.7012,-2.6831,-2.6889,-2.7157,-2.7157,0.0,0.0,0.0,0.0,0.0,0.0,0.0,0.0,0.0,0.0,0.0,0.0,0.0,-2.5465,-2.566,-2.5797,-2.6024,-2.6689,-2.7666,-2.8612,-2.8979,-2.9827,-3.0685,-3.1018,-3.1816,-3.2614,-3.2977,-3.3761,-3.4414,-3.4414,-3.4782,-3.5395,-3.6306,-3.7134,-3.7933,-3.8805,-3.9454,-3.9843,-3.9843,-4.0098,-4.0382,-4.0681,-4.104,-4.1369,-4.1654,-4.2357,-4.2776,-4.2776,-4.2776,-4.294,-4.3275,-4.329,-4.329,-4.329,-4.329,-4.329,-4.329,-4.329,-4.2821,-4.1856,-4.1557,-4.0846,-3.9843,-3.9508,-3.9388,-3.9388,-3.9388,-3.9388,-3.9388,-3.9388,-3.9388,-3.9388,-3.9388,-3.9388,-3.9388,-3.9388,-3.9388,-3.9388,0.0,0.0,0.0,0.0,0.0,0.0,0.0,0.0,0.0,-2.3921,-2.4304,-2.4747,0.0,0.0,0.0,0.0,0.0,0.0,0.0,0.0,0.0,0.0,0.0,-2.4321,-2.3492,-2.3948,-2.4184,0.0,0.0,0.0,0.0,0.0,0.0,0.0,0.0,0.0,0.0,0.0,0.0,0.0,0.0,0.0,0.0,0.0,0.0,0.0,0.0,0.0,0.0,0.0,-2.6942,-2.617,-2.649,-2.689,-2.7367,-2.8013,-2.8895,-2.9654,-2.9747,-3.016,-3.0598,-3.0598,-3.1482,-3.2379,-3.2466,-3.3427,-3.4312,-3.4433,-3.5035,-3.5678,-3.5996,-3.7164,-3.8171,-3.8461,-3.9514,-4.0307,-4.0382,-4.0891,-4.1527,-4.2186,-4.2351,-4.262,-4.315,-4.3245,-4.329,-4.329,-4.329,-4.329,-4.329,-4.329,-4.329,-4.329,-4.329,-4.329,-4.329,-4.329,-4.3015,-4.2396,-4.1737,-4.104,-4.0382,-3.9723,-3.9388,-3.9388,-3.9388,-3.9388,-3.9388,-3.9388,-3.9388,-3.9388,-3.9388,-3.9388,-3.9388,-3.9388,-3.9388,-3.9388,0.0,0.0,0.0,0.0,0.0,0.0,0.0,0.0,0.0,0.0,-2.4977,-2.5461,0.0,0.0,0.0,0.0,0.0,0.0,0.0,0.0,0.0,0.0,0.0,-2.4408,-2.3832,-2.407,-2.4196,0.0,0.0,0.0,0.0,0.0,0.0,0.0,0.0,0.0,0.0,0.0,0.0,0.0,0.0,0.0,0.0,0.0,0.0,0.0,0.0,0.0,0.0,0.0,-2.8508,-2.8656,-2.8255,-2.8448,-2.9018,-2.97,-2.9815,-2.9901,-3.0447,-3.0598,-3.0598,-3.0598,-3.1134,-3.1814,-3.2365,-3.3093,-3.3842,-3.4514,-3.4752,-3.5282,-3.6719,-3.7174,-3.7799,-3.9029,-3.9439,-3.9783,-4.0322,-4.0502,-4.0816,-4.1512,-4.2066,-4.244,-4.256,-4.3015,-4.329,-4.329,-4.329,-4.329,-4.329,-4.329,-4.329,-4.329,-4.329,-4.329,-4.329,-4.329,-4.3015,-4.2396,-4.1737,-4.104,-4.0382,-3.9723,-3.9388,-3.9388,-3.9388,-3.9388,-3.9388,-3.9388,-3.9388,-3.9388,-3.9388,-3.9388,-3.9388,-3.9388,-3.9388,-3.9388,0.0,0.0,0.0,0.0,0.0,0.0,0.0,0.0,-2.5961,-2.6266,-2.6422,-2.6457,-2.6381,-2.6847,0.0,0.0,0.0,0.0,0.0,0.0,0.0,0.0,0.0,-2.5161,-2.4115,-2.4845,-2.4867,-2.4085,0.0,0.0,0.0,0.0,0.0,0.0,0.0,0.0,0.0,0.0,0.0,0.0,0.0,0.0,0.0,0.0,0.0,0.0,0.0,0.0,0.0,0.0,-2.9135,-2.9877,-2.9635,-2.967,-2.9962,-3.0613,-3.0657,-3.0507,-3.0732,-3.0821,-3.0879,-3.1019,-3.1678,-3.2326,-3.2553,-3.3448,-3.4248,-3.4317,-3.496,-3.5725,-3.6535,-3.7307,-3.8083,-3.8745,-3.9469,-4.0157,-4.0816,-4.1205,-4.1669,-4.2312,-4.2671,-4.2865,-4.2865,-4.315,-4.329,-4.329,-4.329,-4.329,-4.329,-4.329,-4.329,-4.329,-4.329,-4.329,-4.329,-4.329,-4.3125,-4.2865,-4.1863,-4.122,-4.0876,-3.9873,-3.9388,-3.9388,-3.9388,-3.9388,-3.9388,-3.9388,-3.9388,-3.9388,-3.9388,-3.9388,-3.9388,-3.9388,-3.9388,-3.9388,0.0,0.0,0.0,0.0,0.0,0.0,0.0,-2.6202,-2.6523,-2.7427,-2.7563,-2.7337,-2.6658,-2.7287,-2.776,0.0,0.0,0.0,0.0,0.0,0.0,0.0,0.0,0.0,0.0,0.0,0.0,-2.4293,-2.5441,0.0,0.0,0.0,0.0,0.0,-2.4445,0.0,0.0,0.0,0.0,0.0,0.0,0.0,0.0,0.0,0.0,0.0,0.0,0.0,0.0,0.0,-2.96,-3.0463,-3.0654,-3.073,-3.0877,-3.1397,-3.1456,-3.1324,-3.116,-3.1117,-3.1161,-3.1519,-3.2214,-3.2825,-3.2947,-3.3862,-3.4625,-3.4322,-3.5174,-3.6075,-3.641,-3.7391,-3.8272,-3.8556,-3.9499,-4.0472,-4.1265,-4.1856,-4.2447,-4.32,-4.329,-4.329,-4.329,-4.329,-4.329,-4.329,-4.317,-4.3135,-4.3135,-4.3135,-4.306,-4.2886,-4.2871,-4.3064,-4.3341,-4.3341,-4.3419,-4.3583,-4.244,-4.1729,-4.1362,-4.0188,-3.9553,-3.9388,-3.9388,-3.9388,-3.9388,-3.9388,-3.9388,-3.9388,-3.9388,-3.9388,-3.9388,-3.9388,-3.9388,-3.9388,0.0,0.0,0.0,0.0,0.0,0.0,0.0,-2.6202,-2.6467,-2.7226,-2.7486,-2.7655,-2.7813,-2.807,-2.8231,0.0,0.0,0.0,0.0,0.0,0.0,0.0,0.0,0.0,0.0,0.0,0.0,-2.5186,-2.5504,0.0,0.0,0.0,0.0,0.0,0.0,-2.4622,-2.4191,0.0,0.0,0.0,0.0,0.0,0.0,0.0,0.0,0.0,0.0,0.0,0.0,0.0,0.0,-3.0597,-3.1205,-3.1826,-3.2303,-3.2363,-3.2288,-3.2183,-3.2153,-3.1649,-3.1235,-3.1809,-3.2,-3.2399,-3.3608,-3.3977,-3.4277,-3.4955,-3.5195,-3.5692,-3.7037,-3.7385,-3.7898,-3.9125,-3.9388,-3.9948,-4.1205,-4.1467,-4.1938,-4.314,-4.329,-4.329,-4.329,-4.329,-4.329,-4.329,-4.2776,-4.2485,-4.2485,-4.2485,-4.2216,-4.1579,-4.1564,-4.2198,-4.349,-4.349,-4.3809,-4.4483,-4.3729,-4.2708,-4.1367,-4.0696,-4.0021,-3.9388,-3.9388,-3.9388,-3.9388,-3.9388,-3.9388,-3.9388,-3.9388,-3.9388,-3.9388,-3.9388,-3.9388,-3.9388,0.0,0.0,0.0,0.0,0.0,0.0,0.0,-2.6202,-2.6634,-2.7812,-2.8039,-2.8351,-2.9004,-2.8884,-2.8543,0.0,0.0,0.0,0.0,0.0,0.0,0.0,0.0,0.0,0.0,0.0,-2.7049,-2.644,-2.6751,0.0,0.0,0.0,0.0,0.0,0.0,-2.4874,-2.4622,0.0,0.0,0.0,0.0,0.0,0.0,0.0,0.0,0.0,0.0,0.0,-2.958,-3.0683,0.0,0.0,-3.1278,-3.1959,0.0,0.0,-3.2467,-3.2497,-3.2808,-3.2719,-3.2659,-3.3081,-3.3369,-3.3627,-3.4036,-3.4545,-3.4894,-3.481,-3.5108,-3.578,-3.7146,-3.7404,-3.7853,-3.92,-3.9388,-3.9738,-4.0666,-4.113,-4.1728,-4.2641,-4.309,-4.329,-4.329,-4.329,-4.3125,-4.2776,-4.2545,-4.2051,-4.122,-4.1587,-4.1692,-4.1384,-4.1422,-4.1851,-4.2821,-4.2858,-4.3206,-4.3936,-4.3276,-4.2616,-4.2044,-4.1406,-4.094,-4.0634,-4.025,-4.0056,-4.0021,-3.9589,-3.9388,-3.9388,-3.9388,-3.9388,-3.9388,-3.9388,-3.9388,-3.9388,0.0,0.0,0.0,0.0,0.0,-2.6202,-2.6202,-2.6202,-2.6733,-2.821,-2.8392,-2.8761,-2.9691,-2.9698,-2.9226,-2.8197,0.0,0.0,0.0,0.0,0.0,0.0,0.0,0.0,0.0,0.0,-2.8432,-2.7578,-2.7814,-2.7509,0.0,0.0,-2.6211,-2.6046,0.0,0.0,0.0,0.0,0.0,0.0,0.0,0.0,0.0,0.0,0.0,0.0,0.0,0.0,0.0,0.0,0.0,0.0,0.0,0.0,0.0,0.0,-3.2811,-3.2946,-3.3727,-3.3726,-3.3649,-3.4261,-3.4599,-3.4722,-3.4616,-3.5194,-3.5565,-3.494,-3.5325,-3.6133,-3.721,-3.7569,-3.8078,0.0,-3.9388,-3.9649,-4.0307,-4.0965,-4.1662,-4.2321,-4.2776,-4.312,-4.3275,-4.3125,-4.2776,-4.2156,-4.1931,-4.1294,-4.0172,-4.0546,-4.0801,-4.0801,-4.1009,-4.1584,-4.2441,-4.2669,-4.3142,-4.3855,-4.3391,-4.2924,-4.2502,-4.2042,-4.1722,-4.1459,-4.1008,-4.0805,-4.0737,-4.0021,-3.9717,-3.9681,-3.9481,-3.9388,-3.9388,-3.9388,-3.9388,-3.9388,0.0,0.0,0.0,0.0,0.0,0.0,0.0,-2.6202,-2.6733,-2.821,-2.8392,-2.8761,-2.9691,-3.0441,-3.0447,-2.9385,0.0,0.0,0.0,0.0,0.0,0.0,0.0,0.0,0.0,0.0,-2.9173,-2.85,-2.85,-2.8157,-2.749,-2.7477,-2.721,-2.6667,0.0,0.0,0.0,0.0,0.0,0.0,0.0,0.0,0.0,0.0,0.0,0.0,0.0,0.0,0.0,0.0,0.0,0.0,0.0,-3.1511,-3.1765,0.0,-3.3484,-3.3772,-3.5048,-3.4471,-3.3787,-3.5064,-3.5368,-3.5416,-3.5486,-3.5958,-3.6227,-3.5604,-3.6013,-3.6671,-3.73,-3.7943,-3.8601,-3.9305,-3.9388,-3.9649,-4.0307,-4.0965,-4.1662,-4.2321,-4.241,-4.2626,-4.323,-4.2746,-4.2141,-4.1482,-4.0786,-4.0127,-3.9433,-3.9439,-3.9403,-3.9403,-4.0141,-4.1165,-4.257,-4.3314,-4.402,-4.4705,-4.4688,-4.3955,-4.2601,-4.2585,-4.219,-4.1492,-4.1492,-4.1492,-4.1426,-4.0771,-4.0478,-4.0409,-3.9681,-3.9388,-3.9388,-3.9388,-3.9388,-3.9388,0.0,0.0,0.0,0.0,0.0,0.0,0.0,-2.6202,-2.6733,-2.821,-2.8392,-2.8761,-2.9691,-3.0464,-3.0639,-3.0048,0.0,0.0,0.0,0.0,0.0,0.0,0.0,0.0,0.0,-2.9857,-3.009,-2.9872,-2.9393,-2.8839,-2.8157,-2.7723,-2.7398,-2.7236,-2.6661,-2.6308,0.0,0.0,0.0,0.0,0.0,0.0,0.0,0.0,0.0,0.0,0.0,0.0,0.0,0.0,0.0,0.0,0.0,0.0,0.0,-3.3188,-3.3752,-3.4392,-3.5723,-3.6105,-3.6267,-3.6679,-3.6772,-3.6759,-3.6783,-3.6966,-3.7041,-3.6845,-3.6969,-3.7306,-3.7961,-3.8239,-3.8616,-3.9305,-3.9798,0.0,-4.0367,-4.1354,-4.2171,-4.2366,-4.2746,-4.294,-4.2701,-4.2515,-4.1946,-4.0786,-4.0516,-4.0113,-3.9454,-3.9879,-4.0146,-4.0146,-4.0389,-4.1169,-4.2575,-4.2814,-4.3286,-4.3959,-4.3959,-4.3707,-4.3265,-4.3265,-4.3174,-4.2896,-4.2443,-4.2253,-4.219,-4.1492,-4.0907,-4.0478,-4.025,-3.9844,-3.9388,-3.9388,-3.9388,-3.9388,0.0,0.0,0.0,0.0,0.0,0.0,0.0,-2.6202,-2.6733,-2.821,-2.8392,-2.8821,-2.9928,-3.0974,-3.1399,-3.0939,0.0,0.0,0.0,0.0,0.0,0.0,0.0,0.0,-2.9924,-3.0567,-3.076,-3.0494,-3.0072,-2.9518,-2.8871,-2.8189,-2.7875,-2.7848,-2.7052,-2.6706,0.0,0.0,0.0,0.0,0.0,0.0,-2.8811,0.0,0.0,0.0,0.0,0.0,0.0,0.0,0.0,0.0,0.0,0.0,0.0,0.0,-3.4142,-3.4965,-3.6333,-3.7046,-3.7442,-3.7677,-3.7735,-3.7677,-3.7458,-3.7576,-3.7677,-3.7458,-3.7793,-3.8276,-3.8711,-3.8999,-3.9309,-3.9748,-4.0007,-4.0222,-4.0462,-4.1438,-4.2203,-4.2381,-4.2716,-4.2701,-4.2096,-4.1811,-4.128,-4.0457,-4.0398,-4.0262,-3.9839,-4.0478,-4.1008,-4.126,-4.1309,-4.1722,-4.2585,-4.2851,-4.3204,-4.3598,-4.3598,-4.3628,-4.3704,-4.3628,-4.3628,-4.3704,-4.3204,-4.2974,0.0,-4.2221,-4.1656,-4.1243,-4.0718,-4.0216,-3.9788,-3.9517,-3.9388,-3.9388,0.0,0.0,0.0,0.0,0.0,0.0,0.0,0.0,0.0,-2.821,-2.8392,-2.8956,-3.034,-3.1818,-3.2478,0.0,0.0,0.0,0.0,0.0,0.0,0.0,0.0,0.0,-3.0492,-3.1152,-3.119,-3.0584,-3.0524,-3.0178,-2.9566,-2.8871,-2.8565,-2.8519,-2.7351,-2.6823,0.0,0.0,0.0,0.0,-2.8548,-2.8931,0.0,0.0,0.0,0.0,0.0,0.0,0.0,0.0,0.0,0.0,0.0,0.0,0.0,0.0,0.0,0.0,0.0,-3.7315,-3.7584,-3.8157,-3.8346,-3.8222,-3.7663,-3.7982,0.0,-3.7663,-3.8567,-3.9471,-3.9392,-4.0006,-4.0512,-4.0443,-4.0101,-4.0004,-4.0622,-4.1279,-4.1866,-4.2261,-4.2336,-4.2081,-4.1407,-4.083,-4.0441,-4.0396,-4.0497,-4.0581,-4.0581,-4.1194,-4.1884,-4.2585,-4.2648,-4.2679,-4.2679,-4.3295,-4.3598,-4.3598,-4.3598,-4.3704,-4.3898,-4.3704,-4.3734,-4.3898,-4.3687,-4.3628,-4.3568,-4.2943,-4.2648,-4.2443,-4.1109,-4.0547,-4.0409,-3.9681,-3.9388,-3.9388,0.0,0.0,0.0,0.0,0.0,0.0,0.0,0.0,0.0,0.0,-2.8392,-2.8956,-3.034,-3.1818,-3.2478,0.0,0.0,0.0,0.0,0.0,0.0,0.0,0.0,0.0,-3.0507,-3.1152,-3.1409,-3.1248,-3.0748,-3.0419,-3.0238,-2.958,-2.9268,-2.9223,-2.8415,-2.8085,0.0,0.0,0.0,0.0,-2.9424,-2.9613,0.0,0.0,0.0,0.0,-3.1087,-3.138,0.0,0.0,0.0,0.0,0.0,0.0,0.0,0.0,-3.4894,-3.5976,-3.6882,0.0,-3.8056,-3.819,-3.8655,-3.9023,0.0,-3.8969,-3.9023,-3.8887,-3.956,-3.9978,-3.9424,-4.0056,-4.0478,-3.9985,-4.0334,-4.0707,-4.0697,-4.1279,-4.1686,-4.1632,-4.1776,-4.1558,-4.0733,-4.094,-4.0965,-4.0526,-4.0966,-4.126,-4.126,-4.1949,-4.2412,-4.2585,-4.3113,-4.3355,-4.3355,-4.3522,-4.3598,-4.3598,-4.3598,-4.3704,-4.3898,-4.3868,-4.3868,-4.3898,-4.3868,-4.3734,-4.3598,-4.3432,-4.3066,-4.2522,-4.1624,-4.094,-4.0409,-3.9681,-3.9388,-3.9388,0.0,0.0,0.0,0.0,0.0,0.0,0.0,0.0,0.0,0.0,0.0,0.0,0.0,0.0,0.0,0.0,0.0,0.0,0.0,0.0,0.0,0.0,0.0,-3.0657,-3.0943,-3.1316,-3.1511,-3.1511,-3.1161,-3.097,-3.094,-3.0269,-2.995,-2.9919,-2.9268,-2.8967,0.0,0.0,0.0,0.0,-2.9969,0.0,0.0,0.0,0.0,0.0,-3.1261,-3.1301,0.0,-3.1719,-3.212,-3.2508,0.0,0.0,0.0,0.0,-3.4963,-3.5661,-3.639,-3.7632,-3.8791,-3.9123,-3.9504,-3.9812,-3.9812,-3.9812,-3.9713,-3.9365,-4.0412,-4.1135,-4.0421,-4.0769,-4.1109,-4.0703,-4.0677,-4.072,-4.0828,-4.1427,-4.1776,-4.1535,-4.134,-4.1061,-4.0574,-4.0576,-4.0582,-4.0509,-4.1127,-4.1656,-4.1997,-4.2679,-4.3066,-4.3066,-4.3402,-4.3598,-4.3598,-4.3598,-4.3598,-4.3598,-4.3687,-4.3822,-4.3998,-4.3998,-4.4027,-4.4085,-4.3939,-4.3839,-4.3734,-4.3628,-4.3402,-4.2943,-4.1917,-4.1294,-4.0873,-4.0181,-3.9681,-3.9445,0.0,0.0,0.0,0.0,0.0,0.0,0.0,0.0,0.0,0.0,0.0,0.0,0.0,0.0,0.0,0.0,0.0,0.0,0.0,0.0,0.0,0.0,-3.0999,-3.0913,-3.1496,-3.1511,-3.1511,-3.1511,-3.1511,-3.1511,-3.1511,-3.0925,-3.0614,-3.0494,-2.9919,-2.9659,0.0,0.0,0.0,0.0,-3.0463,0.0,0.0,0.0,0.0,0.0,0.0,0.0,0.0,-3.2032,-3.2535,-3.2819,-3.3806,0.0,0.0,0.0,0.0,0.0,-3.6108,-3.7864,-3.9564,-3.9951,-4.0243,-4.0376,-4.026,0.0,-4.0094,-3.9564,-4.0994,-4.2129,-4.1514,-4.1648,-4.1803,-4.1689,-4.0904,-4.044,-4.0842,-4.1368,-4.1659,-4.1474,-4.0924,-4.0634,-4.0692,-4.0248,-4.0216,-4.0786,-4.1426,-4.2078,-4.271,-4.3325,-4.3658,-4.3658,-4.3658,-4.3687,-4.3687,-4.3658,-4.3658,-4.3687,-4.3852,-4.3998,-4.4126,-4.4126,-4.4196,-4.4281,-4.4056,-4.3927,-4.3898,-4.3687,-4.3598,-4.3462,-4.2173,-4.1591,-4.1426,-4.0873,-4.0111,-3.9481,0.0,0.0,0.0,0.0,0.0,0.0,0.0,0.0,0.0,0.0,0.0,0.0,0.0,0.0,0.0,0.0,0.0,0.0,0.0,0.0,0.0,-3.2287,-3.1677,-3.1391,-3.1511,-3.1511,-3.1511,-3.1511,-3.1511,-3.1511,-3.1511,-3.138,-3.1029,-3.0494,-3.0389,-3.0359,-3.0359,-3.0359,0.0,-3.199,-3.153,0.0,0.0,0.0,0.0,0.0,0.0,0.0,0.0,-3.2324,-3.3033,-3.3857,-3.4034,0.0,0.0,0.0,0.0,0.0,-3.75,-3.9007,-3.9962,-3.8825,-3.9471,-4.0243,-3.9613,-3.9481,-3.9613,0.0,-4.0945,-4.1552,-4.1499,-4.1786,-4.1867,-4.1227,-4.0681,-4.0342,-4.0414,-4.0486,-4.0477,-4.0279,-4.0188,-4.0258,-4.0666,-4.1037,-4.1525,-4.2221,-4.2912,-4.3342,-4.3432,-4.3704,-4.3868,-4.3868,-4.3952,-4.401,-4.401,-4.391,-4.391,-4.401,-4.4039,-4.4155,-4.4281,-4.4281,-4.4281,-4.431,-4.4126,-4.3998,-4.3898,-4.3687,-4.3598,-4.3522,-4.2741,-4.2045,-4.1492,-4.1393,-4.0531,-3.9424,0.0,0.0,0.0,0.0,0.0,0.0,0.0,0.0,0.0,0.0,0.0,0.0,0.0,0.0,0.0,0.0,0.0,0.0,0.0,0.0,-3.3212,-3.2992,-3.2397,-3.1869,-3.1511,-3.1137,-3.0943,-3.0943,-3.0642,-3.0657,-3.0957,-3.1331,-3.1351,-3.1029,-3.1029,-3.1029,-3.1029,-3.1029,-3.159,-3.2452,0.0,0.0,0.0,0.0,0.0,0.0,0.0,0.0,0.0,0.0,-3.3678,-3.4151,-3.4448,0.0,0.0,0.0,0.0,0.0,-3.7317,-3.8676,-3.9746,-3.9454,-4.0464,-4.1442,-4.111,-4.1028,-4.1011,-4.0945,-4.1896,-4.2601,-4.2121,-4.2052,-4.1722,-4.0768,-4.0489,-4.0331,-4.0172,-4.0137,-4.0066,-3.9874,-3.9839,-4.0056,-4.0634,-4.0925,-4.1492,-4.2522,-4.2881,-4.3204,-4.3598,-4.3687,-4.3793,-4.3898,-4.3956,-4.4056,-4.4212,-4.4155,-4.4097,-4.4097,-4.4167,-4.4253,-4.431,-4.4412,-4.4468,-4.444,-4.4281,-4.4126,-4.3998,-4.3822,-4.3704,-4.3522,-4.2865,-4.238,-4.1981,-4.1227,-4.0771,-4.0443,0.0,0.0,0.0,0.0,0.0,0.0,0.0,0.0,0.0,0.0,0.0,0.0,0.0,0.0,0.0,0.0,0.0,0.0,0.0,-3.4005,-3.3516,-3.3432,-3.284,-3.2104,-3.1271,-3.0748,-3.0432,-3.0283,-2.9846,-2.9894,-3.0522,-3.1346,-3.1735,-3.1735,-3.1899,-3.1959,-3.1959,-3.1959,-3.2377,-3.2916,0.0,0.0,0.0,0.0,0.0,0.0,0.0,0.0,0.0,0.0,0.0,0.0,0.0,0.0,0.0,-3.4899,-3.5545,-3.6423,-3.7168,-3.8427,-3.973,-4.0431,-4.1326,-4.2054,-4.2191,-4.2137,-4.1955,-4.1723,-4.2671,-4.3352,-4.2657,-4.2118,-4.1444,-4.0455,-4.0401,-4.0366,-4.0101,-4.0031,-3.9925,-3.9803,-3.9732,-3.995,-4.0634,-4.0789,-4.136,-4.2522,-4.2758,-4.3066,-4.3568,-4.3687,-4.3793,-4.3939,-4.3998,-4.4172,-4.4367,-4.4367,-4.4327,-4.4212,-4.431,-4.4367,-4.4367,-4.4542,-4.4615,-4.4598,-4.4395,-4.4224,-4.4097,-4.3956,-4.3763,-4.3568,-4.3035,-4.2741,-4.2428,-4.1008,-4.0805,-4.1093,0.0,0.0,0.0,0.0,0.0,0.0,0.0,0.0,0.0,0.0,0.0,0.0,0.0,0.0,0.0,0.0,0.0,0.0,0.0,-3.3991,-3.3793,-3.3251,-3.2691,-3.1848,-3.0597,-3.0522,-3.0223,-2.9666,-2.9636,-2.9894,-3.0537,-3.1809,-3.2437,-3.2467,-3.308,-3.335,-3.335,-3.335,-3.3724,-3.4309,-3.3619,0.0,0.0,0.0,0.0,0.0,0.0,0.0,0.0,0.0,0.0,0.0,0.0,0.0,-3.4899,-3.4899,-3.5909,-3.7185,-3.793,-3.9206,-4.0492,-4.116,-4.0928,-4.0696,-4.1342,-4.0994,-4.0895,-4.2142,-4.2535,-4.2607,-4.2577,-4.1755,-4.0907,-4.0366,-4.0312,-4.0312,-4.0277,-4.0101,-3.9996,-3.996,-3.9803,-3.995,-4.0634,-4.116,-4.1754,-4.2554,-4.3174,-4.3568,-4.3598,-4.3894,-4.4068,-4.4085,-4.4372,-4.4559,-4.457,-4.457,-4.457,-4.4542,-4.457,-4.457,-4.457,-4.4598,-4.4615,-4.4598,-4.4395,-4.4224,-4.4097,-4.3956,-4.3763,-4.3598,-4.3568,-4.3143,-4.2428,-4.1008,-4.0512,-4.0443,0.0,0.0,0.0,0.0,0.0,0.0,0.0,0.0,0.0,0.0,0.0,0.0,0.0,0.0,0.0,0.0,0.0,0.0,0.0,-3.4578,-3.4588,-3.4374,-3.3835,-3.2738,-3.1101,-3.031,-2.9609,-2.8966,-2.9412,-2.9726,-2.9968,-3.1704,-3.2273,-3.1914,-3.2587,-3.2662,-3.2273,-3.2706,-3.326,-3.3905,-3.4,-3.4162,0.0,0.0,0.0,0.0,0.0,0.0,0.0,0.0,-3.4715,-3.4899,-3.4899,-3.4899,-3.4899,-3.4899,-3.5943,-3.7168,-3.745,-3.8924,-4.0475,-4.0696,-4.0895,-4.121,-4.191,-4.2253,-4.2551,-4.3069,-4.3273,-4.3132,-4.2363,-4.1852,-4.1176,-4.0261,-4.0101,-4.0066,-3.9945,-3.9874,-3.9783,-3.964,-3.9553,-3.9773,-4.0512,-4.0771,-4.136,-4.2522,-4.2834,-4.3174,-4.3598,-4.3717,-4.3835,-4.3969,-4.4172,-4.4327,-4.4412,-4.4542,-4.4615,-4.4615,-4.4615,-4.4615,-4.4615,-4.4615,-4.4615,-4.4598,-4.4395,-4.4224,-4.4097,-4.3956,-4.3763,-4.3598,-4.3598,-4.3432,-4.3035,-4.1656,-4.1127,-4.0974,0.0,0.0,0.0,0.0,0.0,0.0,0.0,0.0,0.0,0.0,0.0,0.0,0.0,0.0,0.0,0.0,0.0,0.0,-3.3839,-3.4333,-3.4567,-3.4457,-3.408,-3.3094,-3.1439,-3.0219,-2.9397,-2.8906,-2.9564,-2.9864,-2.9909,-3.1689,-3.2243,-3.1854,-3.2527,-3.2572,-3.2153,-3.2632,-3.32,-3.386,-3.4468,-3.467,0.0,0.0,0.0,0.0,0.0,0.0,0.0,0.0,-3.4899,-3.4899,0.0,0.0,-3.4949,-3.5181,-3.629,-3.75,-3.7731,-3.9056,-4.0459,-4.0647,-4.1061,-4.1579,-4.2324,-4.2886,-4.3317,-4.3549,-4.3372,-4.2865,-4.2013,-4.1525,-4.0922,-4.0051,-3.996,-3.9925,-3.9732,-3.9661,-3.9553,-3.9424,-3.9388,-3.9589,-4.0111,-4.0339,-4.0974,-4.2158,-4.2491,-4.2881,-4.3552,-4.3658,-4.3793,-4.3956,-4.4097,-4.4241,-4.4395,-4.4542,-4.4615,-4.4615,-4.4615,-4.4615,-4.4615,-4.4615,-4.4615,-4.4598,-4.4395,-4.4224,-4.4097,-4.3956,-4.3763,-4.3598,-4.3598,-4.3462,-4.3143,-4.1949,-4.1492,-4.1294,0.0,0.0,0.0,0.0,0.0,0.0,0.0,0.0,0.0,0.0,0.0,0.0,0.0,0.0,0.0,0.0,0.0,0.0,-3.1598,-3.2978,-3.3564,-3.304,-3.3144,-3.2646,-3.1424,-3.0235,-2.9621,-2.9592,-3.0193,-3.0492,-3.0537,-3.1884,-3.2512,-3.2512,-3.3185,-3.3484,-3.3469,-3.3484,-3.3889,-3.4551,-3.5171,-3.5323,-3.5272,0.0,0.0,0.0,0.0,0.0,0.0,0.0,-3.4899,-3.4899,0.0,0.0,0.0,-3.5794,-3.7052,-3.8377,-3.91,-3.9829,-4.0575,-4.1226,-4.1409,-4.1595,-4.2324,-4.2489,-4.2704,-4.3449,-4.2475,-4.1525,-4.1525,-4.0699,-3.996,-3.9732,-3.9889,-3.9925,-3.9732,-3.9517,-3.9388,-3.9388,-3.9388,-3.9388,-3.9388,-4.0056,-4.0771,-4.1459,-4.219,-4.2881,-4.3552,-4.3793,-4.3956,-4.4097,-4.4224,-4.4395,-4.4615,-4.4615,-4.4615,-4.4615,-4.4615,-4.4615,-4.4615,-4.4615,-4.4615,-4.4587,-4.4384,-4.4224,-4.4097,-4.3939,-4.3763,-4.3598,-4.3598,-4.3204,-4.2522,-4.1787,-4.1525,-4.1327,0.0,0.0,0.0,0.0,0.0,0.0,0.0,0.0,0.0,0.0,0.0,0.0,0.0,0.0,0.0,0.0,0.0,0.0,-3.1631,-3.2497,-3.3197,-3.3548,-3.3259,-3.2937,-3.2688,-3.1548,-3.0283,-2.8891,-2.9535,-3.0073,-3.0537,-3.1884,-3.2243,-3.1824,-3.2512,-3.2512,-3.2138,-3.3059,-3.3539,-3.384,-3.531,-3.5559,-3.5123,0.0,0.0,0.0,0.0,0.0,0.0,0.0,0.0,0.0,0.0,0.0,0.0,-3.6092,-3.74,-3.8907,-3.8609,-3.9437,-4.0459,-4.0658,-4.1442,-4.2224,-4.244,-4.2886,-4.3363,-4.3759,-4.3174,-4.2506,-4.211,-4.1309,-4.0562,-4.0191,-3.9945,-3.9768,-3.9717,-3.9517,-3.9388,-3.9388,-3.9388,-3.9388,-3.9388,-3.9589,-4.0216,-4.1426,-4.1689,-4.2349,-4.3539,-4.3658,-4.3763,-4.3939,-4.4097,-4.4224,-4.4395,-4.4542,-4.4615,-4.4615,-4.4615,-4.4615,-4.4615,-4.4615,-4.4615,-4.457,-4.4298,-4.4126,-4.4068,-4.3805,-4.3658,-4.3598,-4.3598,-4.3462,-4.3235,-4.2522,-4.2285,-4.2078,0.0,0.0,0.0,0.0,0.0,0.0,0.0,0.0,0.0,0.0,-3.0886,-3.1267,0.0,0.0,0.0,0.0,0.0,0.0,0.0,-3.2034,-3.258,-3.3348,-3.3134,-3.2848,-3.2499,-3.1569,-3.0524,-2.9355,-3.0028,-3.0552,-3.0898,-3.172,-3.1884,-3.1525,-3.2161,-3.208,-3.1475,-3.2453,-3.3041,-3.3403,-3.476,-3.5182,-3.5062,0.0,0.0,0.0,0.0,0.0,0.0,0.0,0.0,0.0,-3.5346,0.0,-3.7135,-3.7268,-3.847,-3.9779,-3.9885,-4.0564,-4.1293,-4.1591,-4.2104,-4.2572,-4.287,-4.3267,-4.3628,-4.3763,-4.3066,-4.238,-4.2045,-4.116,-4.0355,-4.0016,-3.9803,-3.9661,-3.9589,-3.9496,-3.9388,-3.9388,-3.9388,-3.9388,-3.9388,-3.9388,-3.997,-4.1393,-4.1492,-4.211,-4.3522,-4.3598,-4.3717,-4.3969,-4.4056,-4.4212,-4.4412,-4.4542,-4.4615,-4.4615,-4.4615,-4.4615,-4.4615,-4.4615,-4.4615,-4.457,-4.4258,-4.401,-4.3894,-4.3687,-4.3598,-4.3598,-4.3598,-4.3598,-4.3492,-4.2506,-4.2522,-4.271,0.0,0.0,-2.9728,-3.0472,0.0,0.0,0.0,0.0,0.0,-3.0506,-3.0506,-3.0754,0.0,0.0,0.0,-3.2453,0.0,0.0,0.0,-3.1499,-3.1868,-3.2669,-3.2954,-3.2627,-3.1608,-3.097,-3.0666,-3.0666,-3.1165,-3.1451,-3.1511,-3.1436,-3.1435,-3.1521,-3.2056,-3.1921,-3.1301,-3.1981,-3.2582,-3.3161,-3.3876,-3.4507,-3.5059,-3.5679,0.0,0.0,0.0,0.0,0.0,0.0,0.0,0.0,-3.6108,-3.6655,-3.7549,-3.8834,-3.9812,-4.0746,-4.1988,-4.234,-4.2572,-4.3317,-4.3035,-4.2771,-4.3449,-4.3598,-4.3598,-4.3628,-4.2506,-4.1558,-4.1558,-4.0547,-3.9661,-3.9496,-3.9589,-3.9625,-3.9445,-3.9409,-3.9388,-3.9388,-3.9388,-3.9388,-3.9388,-3.9388,-3.997,-4.1393,-4.1492,-4.211,-4.3522,-4.3598,-4.3747,-4.4097,-4.4097,-4.4241,-4.4615,-4.4615,-4.4615,-4.4615,-4.4615,-4.4615,-4.4615,-4.4615,-4.457,-4.4542,-4.4212,-4.3923,-4.3598,-4.3598,-4.3598,-4.3598,-4.3598,-4.3598,-4.3432,-4.2173,-4.2506,-4.3235,0.0,0.0,-3.0506,-3.1234,0.0,0.0,0.0,0.0,-3.0506,-3.0506,-3.0506,-3.0555,-3.0721,-3.125,0.0,-3.1023,-3.1366,0.0,0.0,-3.0737,-3.1321,-3.2652,-3.3444,-3.354,-3.2819,-3.2261,-3.2002,-3.2002,-3.1121,-3.0972,-3.1496,-3.0957,-3.094,-3.1353,-3.1543,-3.1424,-3.1177,-3.2933,-3.3416,-3.3119,-3.4267,-3.4814,-3.4946,-3.5083,-3.5032,0.0,0.0,0.0,0.0,0.0,0.0,0.0,-3.687,-3.7765,-3.8785,-3.851,-3.9752,-4.1143,-4.0912,-4.1243,-4.1794,-4.2539,-4.3035,-4.34,-4.3565,-4.3598,-4.3628,-4.3793,-4.2787,-4.1901,-4.1901,-4.0805,-3.9925,-3.9889,-3.9768,-3.9681,-3.9661,-3.9481,-3.9388,-3.9388,-3.9388,-3.9388,-3.9388,-3.9388,-3.997,-4.1393,-4.1492,-4.211,-4.3522,-4.3598,-4.3747,-4.4097,-4.4097,-4.4241,-4.4615,-4.4615,-4.4615,-4.4615,-4.4615,-4.4615,-4.4615,-4.4615,-4.4457,-4.4184,-4.4126,-4.3923,-4.3598,-4.3598,-4.3598,-4.3598,-4.3598,-4.3598,-4.3552,-4.3265,-4.3325,-4.3372,0.0,0.0,0.0,0.0,0.0,0.0,0.0,0.0,-3.1835,-3.1118,-3.1035,-3.1035,-3.1035,-3.1366,0.0,0.0,-3.1383,-3.1449,0.0,0.0,-3.1664,-3.3143,-3.3787,-3.3815,-3.3209,-3.2668,-3.2398,-3.2398,-3.1726,-3.1449,-3.1496,-3.1434,-3.1558,-3.1859,-3.2447,-3.2225,-3.1526,-3.3258,-3.3523,-3.2941,-3.3961,-3.4584,-3.4899,-3.4899,-3.4899,-3.4949,-3.5346,0.0,0.0,0.0,0.0,0.0,0.0,0.0,-3.9299,-3.9255,-4.005,-4.0994,-4.1309,-4.1674,-4.2092,-4.2837,-4.3317,-4.3598,-4.3598,-4.3598,-4.3628,-4.3734,-4.2694,-4.1755,-4.1755,-4.0634,-3.9711,-3.9711,-3.9625,-3.9553,-3.9553,-3.9445,-3.9388,-3.9388,-3.9388,-3.9388,-3.9388,-3.9388,-3.997,-4.1393,-4.1492,-4.211,-4.3522,-4.3687,-4.3835,-4.4097,-4.4155,-4.4327,-4.4615,-4.4615,-4.4615,-4.4615,-4.4615,-4.4615,-4.4615,-4.4615,-4.4429,-4.4097,-4.4097,-4.3923,-4.3598,-4.3598,-4.3598,-4.3598,-4.3598,-4.3598,-4.3552,-4.3235,-4.3325,-4.3355,0.0,0.0,0.0,0.0,0.0,0.0,0.0,0.0,0.0,-3.178,-3.1598,-3.1598,-3.1598,-3.1499,-3.1416,0.0,0.0,0.0,-3.1416,0.0,0.0,-3.3557,-3.4014,-3.3993,-3.3511,-3.2839,-3.2575,-3.2683,-3.2451,-3.2226,-3.1991,-3.2238,-3.2416,-3.254,-3.3512,-3.3226,-3.2113,-3.3446,-3.3557,-3.2967,-3.3673,-3.4352,-3.4899,-3.4899,-3.4899,-3.4916,-3.5032,-3.5081,-3.5197,-3.5943,0.0,0.0,0.0,0.0,-3.9232,-3.9846,-4.021,-4.0658,-4.1823,-4.2307,-4.2671,-4.3416,-4.3598,-4.3598,-4.3598,-4.3492,-4.3432,-4.3432,-4.2412,-4.1492,-4.1492,-4.0339,-3.9388,-3.9388,-3.9388,-3.9388,-3.9388,-3.9388,-3.9388,-3.9388,-3.9388,-3.9388,-3.9388,-3.9388,-3.997,-4.1393,-4.1492,-4.211,-4.3522,-4.3793,-4.3956,-4.4097,-4.4224,-4.4412,-4.4615,-4.4615,-4.4615,-4.4615,-4.4615,-4.4615,-4.4615,-4.4615,-4.4429,-4.4097,-4.4097,-4.3923,-4.3598,-4.3598,-4.3598,-4.3598,-4.3598,-4.3598,-4.3522,-4.2974,-4.3113,-4.3325,0.0,0.0,0.0,0.0,0.0,0.0,0.0,0.0,0.0,0.0,-3.1598,-3.1598,-3.1598,-3.1035,-3.0638,-3.0638,-3.0638,-3.0638,0.0,0.0,0.0,-3.2851,-3.4084,-3.4763,-3.4675,-3.3518,-3.323,-3.3857,-3.2707,-3.2746,-3.3893,-3.2762,-3.2466,-3.294,-3.3145,-3.3001,-3.2689,-3.413,-3.4319,-3.3707,-3.4452,-3.48,-3.4899,-3.4899,-3.4899,-3.4982,-3.5628,-3.586,-3.5976,-3.6704,-3.7036,0.0,0.0,0.0,-3.8377,-3.8477,-3.9388,-4.0442,-4.0641,-4.1574,-4.2671,-4.3416,-4.3598,-4.3598,-4.3598,-4.3143,-4.2741,-4.2741,-4.2094,-4.1492,-4.1492,-4.0339,-3.9388,-3.9388,-3.9388,-3.9388,-3.9388,-3.9388,-3.9388,-3.9388,-3.9388,-3.9388,-3.9388,-3.9388,-3.997,-4.1393,-4.1492,-4.211,-4.3522,-4.3793,-4.3956,-4.4097,-4.4224,-4.4412,-4.4615,-4.4615,-4.4615,-4.4615,-4.4615,-4.4615,-4.4615,-4.4615,-4.4429,-4.4097,-4.4097,-4.3923,-4.3598,-4.3598,-4.3598,-4.3598,-4.3598,-4.3598,-4.3598,-4.3492,-4.3522,-4.3402,0.0,0.0,0.0,0.0,0.0,0.0,0.0,0.0,0.0,0.0,0.0,-3.185,-3.2183,-3.1184,-3.0506,-3.0506,-3.0506,0.0,0.0,0.0,0.0,-3.2685,-3.3707,-3.3931,-3.3221,-3.308,-3.3153,-3.3461,-3.2489,-3.3101,-3.5233,-3.4193,-3.4103,-3.4774,-3.4742,-3.4435,-3.3972,-3.4618,-3.4468,-3.3856,-3.4601,-3.5396,-3.6042,-3.5214,-3.5413,-3.6075,-3.5562,-3.5379,-3.5495,-3.6241,-3.6771,-3.7102,-3.7102,0.0,0.0,0.0,-3.8659,-3.9437,-4.063,-4.1723,-4.2671,-4.3416,-4.3598,-4.3598,-4.3598,-4.3066,-4.2617,-4.2617,-4.1722,-4.094,-4.094,-4.0111,-3.9388,-3.9388,-3.9388,-3.9388,-3.9388,-3.9388,-3.9388,-3.9388,-3.9388,-3.9388,-3.9388,-3.9388,-3.997,-4.1393,-4.1492,-4.211,-4.3522,-4.3864,-4.4056,-4.4097,-4.4327,-4.4514,-4.4615,-4.4615,-4.4615,-4.4615,-4.4615,-4.4615,-4.4615,-4.4615,-4.4429,-4.4097,-4.4097,-4.3923,-4.3598,-4.3598,-4.3598,-4.3598,-4.3598,-4.3598,-4.3598,-4.3598,-4.3355,-4.2881,0.0,0.0,0.0,0.0,0.0,0.0,0.0,0.0,0.0,0.0,0.0,-3.1921,-3.2387,0.0,0.0,0.0,-3.0506,0.0,0.0,0.0,0.0,0.0,-3.3309,-3.3281,-3.2134,-3.2631,-3.2908,-3.2908,-3.2371,-3.3432,-3.5992,-3.5628,-3.6009,-3.6969,-3.6479,-3.5876,-3.5181,-3.5181,-3.4866,-3.4402,-3.4965,-3.5843,-3.6738,-3.6009,-3.6307,-3.697,-3.586,-3.5346,-3.523,-3.5595,-3.6092,-3.6539,-3.6539,-3.7052,0.0,0.0,0.0,-3.8616,-4.0613,-4.1674,-4.239,-4.3135,-4.3449,-4.3568,-4.3386,-4.2803,-4.2285,-4.2094,-4.1075,-4.0216,-4.0216,-3.9788,-3.9388,-3.9388,-3.9388,-3.9388,-3.9388,-3.9388,-3.9388,-3.9388,-3.9388,-3.9388,-3.9388,-3.9589,-4.0181,-4.1393,-4.1689,-4.2317,-4.3522,-4.3923,-4.4097,-4.4097,-4.4429,-4.4615,-4.4615,-4.4615,-4.4615,-4.4615,-4.4615,-4.4615,-4.4615,-4.4615,-4.4429,-4.4097,-4.4097,-4.3923,-4.3598,-4.3598,-4.3598,-4.3598,-4.3598,-4.3598,-4.3598,-4.3598,-4.3174,-4.2475,0.0,0.0,0.0,0.0,0.0,0.0,0.0,0.0,0.0,0.0,0.0,-3.1615,-3.1648,-3.0952,-3.0506,-3.0506,-3.0506,0.0,0.0,0.0,0.0,0.0,0.0,0.0,-3.2674,-3.2707,-3.2724,-3.2724,-3.2674,-3.3799,-3.6009,-3.6688,-3.7765,-3.9063,-3.7682,-3.6638,-3.5943,-3.5943,-3.5926,-3.5893,-3.5926,-3.5992,-3.6208,-3.7533,-3.7649,-3.7102,-3.7019,-3.6539,-3.5843,-3.5181,-3.4982,-3.5015,-3.5015,-3.5512,-3.6108,0.0,0.0,0.0,-4.0034,-4.0945,-4.1612,-4.2357,-4.3069,-4.3432,-4.2803,-4.2078,-4.1393,-4.0737,-3.9985,-3.9445,-3.9445,-3.9424,-3.9388,-3.9388,-3.9388,-3.9388,-3.9388,-3.9388,-3.9388,-3.9388,-3.9388,-3.9388,-3.9388,-4.0021,-4.0737,-4.1459,-4.2158,-4.2851,-4.3552,-4.3923,-4.4097,-4.4097,-4.4429,-4.4615,-4.4615,-4.4615,-4.4615,-4.4615,-4.4615,-4.4615,-4.4615,-4.4615,-4.4429,-4.4097,-4.4097,-4.3923,-4.3598,-4.3598,-4.3598,-4.3598,-4.3598,-4.3598,-4.3598,-4.3598,-4.3174,-4.2475,0.0,0.0,0.0,0.0,0.0,0.0,0.0,0.0,0.0,0.0,0.0,0.0,0.0,-3.1366,-3.1019,-3.0539,-3.0506,0.0,0.0,0.0,0.0,0.0,0.0,0.0,-3.2017,-3.2448,-3.2702,-3.2702,-3.2232,-3.3127,-3.5297,-3.5562,-3.6224,-3.7168,-3.7119,-3.7218,-3.7334,-3.5893,-3.5843,-3.6671,-3.6191,-3.7135,-3.8725,-3.7831,-3.8493,-3.9686,-3.8311,-3.7649,-3.7384,-3.7119,-3.6704,-3.6241,-3.576,-3.5794,-3.6009,-3.6009,-3.7052,-3.8427,-3.9431,-4.0227,-4.1044,-4.2191,-4.2377,-4.2295,-4.255,-4.1689,-4.0805,-4.0547,-3.9915,-3.9388,-3.9388,-3.9388,-3.9388,-3.9388,-3.9388,-3.9388,-3.9388,-3.9388,-3.9388,-3.9388,-3.9388,-3.9388,-3.9388,-4.0091,-4.0771,-4.1459,-4.219,-4.2881,-4.3552,-4.3923,-4.4097,-4.4097,-4.4429,-4.4615,-4.4615,-4.4615,-4.4615,-4.4615,-4.4615,-4.4615,-4.4615,-4.4615,-4.4429,-4.4097,-4.4097,-4.3923,-4.3598,-4.3598,-4.3598,-4.3598,-4.3598,-4.3598,-4.3568,-4.3113,-4.2522,-4.1787,0.0,0.0,0.0,-3.5649,0.0,-3.5041,-3.3551,-3.3317,-3.3028,-3.2214,0.0,0.0,0.0,0.0,-3.1399,-3.0903,-3.0638,-3.0605,-3.0853,-3.0638,0.0,0.0,0.0,0.0,-3.1962,-3.2448,-3.2702,-3.2702,-3.2216,-3.2978,-3.4899,-3.5148,-3.5661,-3.639,-3.6622,-3.7003,-3.7384,-3.6158,-3.6208,-3.7102,-3.7102,-3.8129,-3.9603,-3.9106,-3.9818,-4.0912,-3.9702,-3.9139,-3.8907,-3.8642,-3.8079,-3.735,-3.6605,-3.6025,-3.5678,-3.5926,-3.687,-3.7996,-3.8725,-3.9663,-4.0635,-4.1564,-4.149,-4.1295,-4.1773,-4.0988,-4.0182,-4.0135,-3.9753,-3.9388,-3.9388,-3.9388,-3.9388,-3.9388,-3.9388,-3.9388,-3.9388,-3.9388,-3.9388,-3.9388,-3.9388,-3.9388,-3.9388,-4.0091,-4.0771,-4.1459,-4.219,-4.2881,-4.3552,-4.3923,-4.4155,-4.4241,-4.4485,-4.4615,-4.4615,-4.4615,-4.4615,-4.4615,-4.4615,-4.4615,-4.4615,-4.4542,-4.4355,-4.4097,-4.4056,-4.3881,-4.3598,-4.3598,-4.3598,-4.3598,-4.3598,-4.3598,-4.3522,-4.2851,-4.2126,-4.1393,-3.8212,-3.8212,-3.7748,-3.629,-3.6009,-3.5512,-3.4038,-3.3806,-3.3547,-3.2801,0.0,0.0,0.0,0.0,0.0,-3.1631,-3.0986,-3.087,-3.1598,-3.0952,-3.0886,0.0,0.0,0.0,-3.2735,-3.2735,-3.2735,-3.2735,-3.2735,-3.3458,-3.4883,-3.5628,-3.6357,-3.7003,-3.629,-3.5976,-3.6009,-3.6738,-3.7069,-3.7251,-3.8652,-3.8825,-3.8583,-4.1314,-4.1591,-4.0591,-4.1193,-4.0994,-4.0359,-3.9647,-3.8874,-3.8112,-3.735,-3.6125,-3.5098,-3.5794,-3.6539,-3.7284,0.0,0.0,0.0,-4.0385,-4.0399,-4.0408,-4.0463,-3.9924,-3.9443,-3.9418,-3.9373,-3.9394,-3.9388,-3.9388,-3.9388,-3.9388,-3.9388,-3.9388,-3.9388,-3.9388,-3.9388,-3.9388,-3.9388,-3.9388,-3.9388,-4.0091,-4.0805,-4.1459,-4.2221,-4.2912,-4.3568,-4.3923,-4.4241,-4.4587,-4.4615,-4.4615,-4.4615,-4.4615,-4.4615,-4.4615,-4.4615,-4.4615,-4.4598,-4.4395,-4.4224,-4.4097,-4.3956,-4.3793,-4.3598,-4.3598,-4.3598,-4.3598,-4.3598,-4.3598,-4.3492,-4.282,-4.2094,-4.136,-3.8379,-3.8341,-3.7914,-3.697,-3.6357,-3.5678,-3.4733,-3.4137,-3.3547,0.0,0.0,0.0,-3.2768,-3.2514,-3.2398,-3.2398,-3.2199,-3.2183,-3.2381,-3.2199,-3.2183,-3.2381,-3.3094,-3.3491,-3.3491,-3.3491,-3.3491,-3.3491,-3.3491,-3.369,-3.4104,-3.4849,-3.5313,-3.5495,-3.5297,-3.5197,-3.5214,-3.5413,-3.6439,-3.7847,-3.7185,-3.8361,-4.042,-3.9675,-4.0751,-4.2618,-4.174,-4.1624,-4.1889,-4.169,-4.0448,-3.8758,-3.75,-3.682,-3.6439,-3.6108,-3.6903,-3.7831,-3.75,0.0,0.0,0.0,0.0,0.0,-3.9532,-3.8861,-3.8245,-3.9206,-3.902,-3.8826,-3.9334,-3.9388,-3.9388,-3.9388,-3.9388,-3.9388,-3.9388,-3.9388,-3.9388,-3.9388,-3.9388,-3.9388,-3.9388,-4.0512,-4.1294,-4.1492,-4.2632,-4.3402,-4.3598,-4.3923,-4.4241,-4.4587,-4.4615,-4.4615,-4.4615,-4.4615,-4.4615,-4.4615,-4.4615,-4.4615,-4.4598,-4.4395,-4.4224,-4.4097,-4.3956,-4.3793,-4.3598,-4.3598,-4.3598,-4.3598,-4.3598,-4.3295,-4.2772,-4.2078,-4.136,-4.0668,-3.8744,-3.879,-3.8427,-3.7698,-3.6953,-3.6307,-3.5876,-3.4932,-3.4203,0.0,0.0,0.0,-3.3249,-3.3425,-3.3475,-3.3199,-3.2884,-3.2834,-3.3149,-3.2884,-3.2851,-3.3149,-3.358,-3.3938,-3.4237,-3.3955,-3.3938,-3.4253,-3.3938,-3.3955,-3.427,-3.47,-3.4899,-3.4899,-3.4899,-3.4899,-3.4899,-3.4899,-3.5827,-3.7301,-3.735,-3.846,-4.0034,-3.9659,-4.0834,-4.2605,-4.2042,-4.2324,-4.2953,-4.2953,-4.1541,-3.9564,-3.8377,-3.7599,-3.7036,-3.6589,-3.7301,-3.806,-3.7337,-3.7715,-3.8343,-3.8523,0.0,0.0,-3.8723,-3.8178,-3.7793,-3.9104,-3.9095,-3.8945,-3.9313,-3.9388,-3.9388,-3.9388,-3.9388,-3.9388,-3.9388,-3.9388,-3.9388,-3.9388,-3.9388,-3.9388,-3.9388,-4.0409,-4.1194,-4.1492,-4.2554,-4.3372,-4.3776,-4.3981,-4.4241,-4.4587,-4.4615,-4.4615,-4.4615,-4.4615,-4.4615,-4.4615,-4.4615,-4.4542,-4.4468,-4.4298,-4.4155,-4.3998,-4.3852,-4.3704,-4.3598,-4.3598,-4.3598,-4.3598,-4.3598,-4.3204,-4.2522,-4.1754,-4.1075,-4.0374,0.0,-3.9299,-3.91,-3.8444,-3.7715,-3.7235,-3.7235,-3.6042,-3.5379,0.0,-3.5545,-3.4883,-3.4237,-3.4667,-3.4783,-3.422,-3.3408,-3.3265,-3.3988,-3.3342,-3.3249,-3.3889,-3.3905,-3.422,-3.4883,-3.4253,-3.4237,-3.4899,-3.4237,-3.4253,-3.4899,-3.4899,-3.4899,-3.4899,-3.4899,-3.4899,-3.4899,-3.4899,-3.533,-3.6174,-3.8155,-3.8676,-3.8526,-4.0365,-4.1182,-4.1491,-4.2071,-4.2738,-4.335,-4.335,-4.2154,-4.0492,-3.968,-3.856,-3.7533,-3.7301,-3.7814,-3.8263,-3.7416,-3.7725,-3.8165,-3.7468,-3.6905,0.0,-3.7916,-3.7719,-3.7674,-3.8931,-3.914,-3.914,-3.9239,-3.9305,-3.9305,-3.9305,-3.9328,-3.9388,-3.9388,-3.9388,-3.9388,-3.9388,-3.9388,-3.9388,-3.9388,-4.0111,-4.0873,-4.1459,-4.2253,-4.3127,-4.4039,-4.4097,-4.4241,-4.4587,-4.4615,-4.4615,-4.4615,-4.4615,-4.4615,-4.4615,-4.4615,-4.4497,-4.431,-4.4155,-4.4027,-4.3898,-4.3687,-4.3598,-4.3598,-4.3598,-4.3598,-4.3598,-4.3522,-4.3113,-4.2506,-4.1689,-4.0992,-4.0374,-3.9325,-3.9379,-3.9249,-3.9116,-3.8477,-3.7996,-3.7996,-3.7251,-3.6721,-3.687,-3.6771,-3.6622,-3.6473,-3.6059,-3.5976,-3.6423,-3.5247,-3.4783,-3.5528,-3.4883,-3.4535,-3.4667,-3.4684,-3.475,-3.4899,-3.475,-3.475,-3.4899,-3.475,-3.475,-3.4899,-3.4899,-3.4899,-3.4899,-3.4899,-3.4899,-3.4899,-3.4899,-3.533,-3.6042,-3.6473,-3.7615,-3.9083,-3.8891,-3.9918,-4.1359,-4.0945,-4.1243,-4.1839,-4.1839,-4.1955,-4.1872,-4.0608,-4.0348,-4.0233,-3.851,-3.8924,-3.9577,-3.7703,-3.7799,-3.8098,-3.6878,-3.6903,0.0,-3.6915,-3.6761,-3.6881,-3.7644,-3.7404,-3.7375,-3.8407,-3.8601,-3.8601,-3.8601,-3.905,-3.9388,-3.9388,-3.9388,-3.9388,-3.9388,-3.9388,-3.9388,-3.9388,-4.0581,-4.136,-4.1492,-4.2679,-4.3611,-4.4068,-4.4097,-4.4241,-4.4587,-4.4615,-4.4615,-4.4615,-4.4615,-4.4615,-4.4615,-4.4615,-4.4497,-4.431,-4.4155,-4.4027,-4.3898,-4.3687,-4.3598,-4.3598,-4.3598,-4.3598,-4.3539,-4.3005,-4.271,-4.2459,-4.1176,-4.0615,-4.0374,-3.9339,-3.9352,-3.9299,-3.9299,-3.8692,-3.8328,-3.8692,-3.7814,-3.7235,-3.7615,-3.7665,-3.7516,-3.7152,-3.7102,-3.7102,-3.7102,-3.6423,-3.6009,-3.6009,-3.5644,-3.528,-3.4916,-3.4899,-3.4899,-3.4899,-3.4899,-3.4899,-3.4899,-3.4899,-3.4899,-3.4899,-3.4899,-3.5098,-3.5429,-3.5048,-3.5098,-3.5413,-3.5048,-3.5114,-3.5512,-3.6257,-3.7433,-3.8742,-3.8742,-3.9636,-4.0862,-4.0525,-4.0829,-4.1409,-4.1409,-4.1425,-4.1392,-4.1011,-4.0895,-4.068,-3.9603,-3.9594,-3.9511,-3.7769,-3.734,-3.7251,-3.6619,-3.6471,0.0,0.0,-3.6716,-3.6761,-3.7704,-3.7389,-3.724,-3.8212,-3.8123,-3.8003,-3.8347,-3.8676,-3.9035,-3.9328,-3.9388,-3.9388,-3.9388,-3.9388,-3.9388,-3.9388,-4.0374,-4.1294,-4.1981,-4.3005,-4.3747,-4.4068,-4.4097,-4.4241,-4.4587,-4.4615,-4.4615,-4.4615,-4.4615,-4.4615,-4.4615,-4.4615,-4.4457,-4.4196,-4.4126,-4.3952,-4.3734,-4.3628,-4.3598,-4.3598,-4.3598,-4.3402,-4.3066,-4.271,-4.2396,-4.1917,-4.0873,-4.0285,-3.9879,-3.9299,-3.9299,-3.9299,-3.9299,-3.8808,-3.8609,-3.9216,-3.8278,-3.7748,-3.8344,-3.8421,-3.8236,-3.7772,-3.8008,-3.805,-3.7755,-3.7354,-3.6927,-3.6437,-3.6298,-3.6018,-3.5562,-3.5396,-3.5313,-3.5313,-3.5181,-3.5098,-3.5098,-3.4965,-3.4965,-3.5098,-3.5098,-3.5429,-3.5976,-3.5528,-3.5644,-3.6158,-3.5413,-3.528,-3.5628,-3.6688,-3.7384,-3.788,-3.8742,-3.9464,-3.9984,-4.0144,-4.0613,-4.1226,-4.1226,-4.0928,-4.0647,-4.1077,-4.1011,-4.0713,-4.031,-4.001,-3.9469,-3.8003,-3.7278,-3.6891,-3.6571,-3.6267,-3.6237,0.0,0.0,0.0,-3.7644,-3.7404,-3.724,-3.7898,-3.7584,-3.7404,-3.7943,-3.8227,-3.8542,-3.8975,-3.926,-3.9388,-3.9388,-3.9388,-3.9388,-3.9388,-4.0091,-4.1075,-4.2491,-4.3113,-4.3611,-4.4068,-4.4097,-4.4241,-4.4587,-4.4615,-4.4615,-4.4615,-4.4615,-4.4615,-4.4615,-4.4615,-4.4429,-4.4097,-4.4097,-4.3923,-4.3598,-4.3598,-4.3598,-4.3598,-4.3598,-4.3265,-4.2789,-4.2475,-4.2126,-4.1591,-4.0634,-4.0076,-3.9788,-3.9299,-3.9299,-3.9299,-3.9299,-3.9232,-3.9199,-3.9282,-3.9166,-3.9083,-3.9166,-3.9175,-3.9394,-3.9963,-3.8927,-3.8697,-3.99,-3.8275,-3.7409,-3.7926,-3.7355,-3.7226,-3.7805,-3.7201,-3.6854,-3.6854,-3.6208,-3.5876,-3.5876,-3.5214,-3.523,-3.5876,-3.5876,-3.5926,-3.6025,-3.6605,-3.6903,-3.6936,-3.6191,-3.6638,-3.7798,-3.7301,-3.6771,-3.6406,-3.7798,-3.8394,-3.8543,-3.9199,-3.9895,-4.0525,-4.0525,-4.0862,-4.121,-4.0663,-4.1309,-4.1905,-3.9995,-4.0255,-4.0742,-3.881,-3.8621,-3.8575,-3.6914,-3.7285,-3.7659,-3.6088,0.0,-3.6357,-3.5923,0.0,-3.5923,-3.6582,0.0,0.0,-3.6686,-3.7644,-3.8212,-3.7704,-3.8661,-3.9388,-3.9388,-3.9388,-3.9388,-3.9388,-4.0091,-4.1075,-4.2491,-4.2679,-4.3127,-4.4039,-4.4097,-4.4241,-4.4587,-4.4615,-4.4615,-4.4615,-4.4615,-4.4615,-4.4615,-4.4615,-4.4429,-4.4097,-4.4097,-4.3923,-4.3598,-4.3598,-4.3598,-4.3598,-4.3598,-4.3568,-4.3355,-4.211,-4.1981,-4.2253,-4.0235,-4.027,-4.1093,-3.9299,-3.9299,-3.9299,-3.9299,-3.9299,-3.9299,-3.9299,-3.9663,-3.9945,-3.9945,-3.9946,-4.0191,-4.09,-4.0087,-3.9729,-4.0353,-3.9585,-3.8983,-3.8843,-3.8149,-3.8084,-3.8798,-3.7344,-3.6908,-3.7706,-3.6638,-3.6235,-3.6655,-3.5909,-3.5694,-3.6009,-3.6009,-3.6241,-3.6671,-3.7417,-3.798,-3.8328,-3.7599,-3.74,-3.7524,-3.7235,-3.6671,-3.6208,-3.8096,-3.8825,-3.8874,-3.9199,-3.9497,-3.9763,-3.9763,-3.9962,-4.0266,-4.0812,-4.111,-4.1177,-4.0663,-4.0136,-3.9516,-3.8645,-3.8059,-3.7582,-3.7121,-3.715,-3.7075,-3.6267,-3.5998,-3.5953,-3.6058,0.0,0.0,0.0,0.0,0.0,0.0,-3.6941,-3.7449,-3.7913,-3.8467,-3.8975,-3.9328,-3.9388,-3.9388,-3.9388,-4.0091,-4.0907,-4.1884,-4.2349,-4.3035,-4.4039,-4.4097,-4.4241,-4.4587,-4.4615,-4.4615,-4.4615,-4.4615,-4.4615,-4.4615,-4.4615,-4.4429,-4.4097,-4.4097,-4.3923,-4.3598,-4.3598,-4.3598,-4.3568,-4.3174,-4.3005,-4.2881,-4.1459,-4.136,-4.1754,-4.0041,-3.9773,-4.0216,-3.9564,-3.9448,-3.9299,-3.9299,-3.9299,-3.9365,-3.9564,-4.0227,-4.0663,-4.0663,-4.0689,-4.0974,-4.1629,-4.0951,-4.051,-4.0693,-4.0354,-3.9896,-3.9366,-3.884,-3.8849,-3.9588,-3.8103,-3.7655,-3.8481,-3.7486,-3.7108,-3.7417,-3.6462,-3.6224,-3.6605,-3.6413,-3.662,-3.7152,-3.8079,-3.8791,-3.9265,-3.8725,-3.8311,-3.7996,-3.7781,-3.7384,-3.7052,-3.8444,-3.9133,-3.9299,-3.9299,-3.9299,-3.9299,-3.9299,-3.9431,-3.9752,-4.0555,-4.0887,-4.0922,-4.0664,-3.9971,-3.9226,-3.8791,-3.799,-3.7364,-3.7635,-3.7229,-3.6656,-3.6297,-3.5983,-3.5908,-3.6387,-3.6237,0.0,0.0,0.0,-3.6133,-3.6432,0.0,-3.706,-3.7988,-3.8272,-3.8646,-3.9298,-3.9388,-3.9388,-3.9388,-3.9879,-4.0581,-4.1426,-4.1981,-4.2803,-4.3981,-4.4068,-4.4212,-4.4514,-4.457,-4.4615,-4.4615,-4.4542,-4.4542,-4.4615,-4.4514,-4.4344,-4.4097,-4.4056,-4.3864,-4.3598,-4.3598,-4.3509,-4.3295,-4.2803,-4.2475,-4.219,-4.1176,-4.0974,-4.1075,-3.9844,-3.9517,-3.9681,-4.0227,-3.9796,-3.9299,-3.9299,-3.9299,-3.9547,-4.026,-4.0945,-4.1375,-4.1375,-4.1403,-4.1724,-4.2381,-4.1294,-4.0746,-4.1429,-4.0209,-3.9425,-3.9398,-3.937,-3.9672,-4.034,-4.0297,-3.9952,-3.9273,-3.921,-3.8874,-3.8153,-3.6796,-3.6796,-3.8119,-3.7454,-3.7149,-3.7168,-3.8636,-3.9282,-3.9299,-3.9282,-3.9663,-4.0243,-3.9514,-3.9216,-3.9133,-3.8477,-3.8676,-3.9299,-3.9299,-3.9299,-3.9299,-3.9299,-3.9779,-4.0249,-3.9572,-4.0778,-4.1893,-3.9251,-3.9871,-4.1091,-3.9738,-3.9336,-3.918,-3.8616,-3.7916,-3.706,-3.5818,-3.6013,-3.6462,-3.6492,-3.6941,-3.736,-3.7375,-3.736,-3.715,-3.6582,-3.6985,0.0,0.0,-3.7988,-3.8646,-3.9298,-3.9388,-3.9388,-3.9388,-3.9409,-4.0005,-4.1393,-4.1525,-4.2221,-4.3822,-4.4027,-4.4167,-4.431,-4.4514,-4.4615,-4.4615,-4.4412,-4.4412,-4.4615,-4.4286,-4.4097,-4.4097,-4.3985,-4.3793,-4.3598,-4.3598,-4.3235,-4.2617,-4.2617,-4.219,-4.1525,-4.1492,-4.1093,-4.0443,-3.9681,-3.9844,-4.0339,-4.1011,-4.0862,-4.0696,-4.0696,-4.0315,-4.0276,-4.0961,-4.1674,-4.1964,-4.152,-4.1476,-4.1586,-4.1804,-4.1005,-4.0526,-4.0792,-4.0409,-4.0124,-4.012,-3.9674,-3.9915,-4.1081,-3.9816,-3.9581,-4.0712,-3.9838,-3.9466,-3.9653,-3.8688,-3.821,-3.8169,-3.7475,-3.7376,-3.788,-3.8868,-3.9829,-4.0696,-4.0696,-4.0829,-4.0961,-3.9779,-3.9299,-3.9282,-3.9033,-3.9083,-3.9299,-3.9299,-3.9299,-3.9299,-3.9299,-3.9481,-3.9638,-3.9434,-3.9523,-3.9568,-3.8715,-3.8306,-3.8106,-3.809,-3.7791,-3.7537,-3.7718,-3.7293,-3.6686,-3.6252,-3.6327,-3.6492,-3.6492,-3.6985,-3.7404,-3.7404,-3.7404,-3.7345,-3.7135,-3.727,-3.7404,0.0,-3.7599,-3.8153,-3.9254,-3.9388,-3.9388,-3.9388,-3.9844,-4.0512,-4.1426,-4.1949,-4.271,-4.3839,-4.3939,-4.4027,-4.4167,-4.4241,-4.4286,-4.4286,-4.4212,-4.4212,-4.4286,-4.4155,-4.4039,-4.3985,-4.3927,-4.3793,-4.3598,-4.3598,-4.3235,-4.2554,-4.2078,-4.1722,-4.1393,-4.0478,-4.0285,-4.0478,-4.0216,-3.9985,-3.9753,-4.1728,-4.1591,-4.1409,-4.1409,-4.1259,-4.1293,-4.174,-4.2215,-4.2362,-4.1951,-4.1656,-4.1502,-4.1511,-4.0852,-4.0442,-4.0516,-4.025,-4.0111,-4.0111,-3.9664,-3.9811,-4.0706,-3.9732,-3.9645,-4.0722,-4.0103,-3.9854,-4.0015,-3.9327,-3.8849,0.0,0.0,0.0,0.0,-3.8984,-3.9962,-4.1061,-4.1309,-4.1546,-4.1707,-4.0514,-4.0034,-4.0034,-4.0034,-3.9746,-3.9299,-3.9299,-3.9299,-3.9299,-3.9299,-3.933,-3.9303,-3.9118,-3.8897,-3.8606,-3.7966,-3.7497,-3.7184,-3.7369,-3.7112,-3.6918,-3.7322,-3.6947,-3.6492,-3.6492,-3.6656,-3.6881,-3.712,-3.7674,-3.8123,-3.8123,-3.8123,-3.8033,-3.7793,-3.7764,-3.7674,0.0,-3.7823,-3.8347,-3.8975,-3.905,-3.9155,-3.9394,-3.9809,-4.0512,-4.1426,-4.1949,-4.2679,0.0,-4.3868,-4.3956,-4.4027,-4.4085,-4.4097,-4.4097,-4.4039,-4.4039,-4.4097,-4.3981,-4.391,-4.3898,-4.3839,-4.3734,-4.3598,-4.3598,-4.3066,-4.219,-4.1689,-4.1194,-4.0703,-4.0041,-3.9915,-4.0111,-4.0111,-3.9824,-3.9388,-4.2406,-4.1976,-4.1496,-4.1468,-4.2075,-4.2539,-4.251,-4.2563,-4.2585,-4.2522,-4.19,-4.1426,-4.1393,-4.0839,-4.0443,-4.0443,-3.9809,-3.9388,-3.9388,-3.9388,-3.9388,-3.9388,-4.0076,-4.0136,-3.9456,-4.0075,-4.0086,-3.9405,-3.881,-3.8798,0.0,0.0,0.0,0.0,-3.8941,-3.9696,-4.0492,-4.1127,-4.1839,-4.2423,-4.1756,-4.1413,-4.1409,-4.1409,-4.0564,-3.9398,-3.9365,-3.9332,-3.9299,-3.9272,-3.9303,-3.9227,-3.8502,-3.8777,-3.8968,-3.7013,-3.7337,-3.8215,-3.757,-3.7357,-3.7335,-3.7441,-3.6962,-3.6447,-3.6477,-3.6941,-3.7539,-3.8167,-3.8871,-3.9328,-3.9328,-3.9394,-3.92,-3.8542,-3.8407,-3.8182,-3.7584,-3.8556,-3.9095,-3.8512,-3.8442,-3.8697,-3.9349,-3.9445,-4.0041,-4.1393,-4.1525,-4.2142,0.0,-4.3763,-4.3868,-4.3898,-4.4027,-4.4068,-4.4068,-4.3939,-4.3939,-4.4068,-4.3747,-4.3704,-4.3868,-4.3687,-4.3598,-4.3598,-4.3598,-4.2803,-4.1492,-4.1492,-4.0668,-3.9445,-4.0181,-4.0021,-3.9388,-3.9388,-3.9388,-3.9388,-4.3267,-4.3168,-4.2871,-4.2388,-4.2854,-4.3152,-4.2666,-4.2596,-4.2221,-4.1176,-4.0873,-4.0547,-4.0005,-3.9788,-3.9681,-3.9681,-3.9517,-3.9388,-3.9388,-3.9388,-3.9388,-3.9388,-3.9589,-3.9839,-4.0216,-4.0371,-4.0635,-4.0936,-4.0238,-3.9949,-4.0094,0.0,0.0,0.0,-3.8642,-3.9471,-4.116,-4.1342,-4.1839,-4.2473,-4.2274,-4.1877,-4.1409,-4.1409,-4.1193,-4.0796,-4.031,-3.9779,-3.9202,-3.8717,-3.8565,-3.8382,-3.7262,-3.7049,-3.7001,-3.6034,-3.5994,-3.6232,-3.6067,-3.5979,-3.6106,-3.6637,-3.6267,-3.5893,-3.6372,-3.6611,-3.6776,-3.6941,-3.7868,-3.8661,-3.8661,-3.9065,-3.9328,-3.9185,-3.8721,-3.8512,-3.8856,-3.8297,-3.8227,-3.9065,-3.9182,-3.9275,-3.9385,-4.0339,-4.1093,-4.1459,-4.2029,-4.2679,-4.3552,-4.3174,-4.3174,-4.3658,-4.3717,-4.3747,-4.3747,-4.3687,-4.3687,-4.3717,-4.3658,-4.3628,-4.3674,-4.3628,-4.3598,-4.3598,-4.3598,-4.2803,-4.1492,-4.1492,-4.0668,-3.9409,-3.9625,-3.9589,-3.9388,-3.9388,-3.9388,-3.9388,-4.3615,-4.3599,-4.3331,-4.2655,-4.3089,-4.3234,-4.2286,-4.1852,-4.1409,-4.0615,-4.0216,-3.9844,-3.946,-3.9388,-3.9388,-3.9388,-3.9388,-3.9388,-3.9388,-3.9388,-3.9388,-3.9388,-3.9388,-3.9589,-4.0021,-4.0021,-4.0208,-4.0578,-4.0131,-3.9927,-3.9898,0.0,0.0,0.0,0.0,-3.9686,-4.143,-4.1769,-4.2157,-4.2506,-4.2525,-4.2469,0.0,-4.2357,-4.2142,-4.1839,-4.1458,-4.0647,-3.9648,-3.8632,-3.8108,-3.7735,-3.6723,-3.6227,-3.5941,-3.5587,-3.5504,-3.5504,-3.5504,-3.5504,-3.5594,-3.5968,-3.5774,-3.5684,-3.6342,-3.6492,-3.6567,-3.6836,-3.7464,-3.7958,-3.7958,-3.8512,-3.9065,-3.9328,-3.9095,-3.8871,-3.896,-3.8571,-3.8452,-3.8916,-3.9259,-3.9435,-3.9415,-4.0668,-4.1393,-4.1093,-4.1722,-4.2412,-4.3143,-4.282,-4.2912,-4.3598,-4.3598,-4.3598,-4.3598,-4.3598,-4.3598,-4.3598,-4.3598,-4.3598,-4.3598,-4.3598,-4.3598,-4.3582,-4.3295,-4.2538,-4.1492,-4.1194,-4.0409,-3.9388,-3.9388,-3.9388,-3.9388,-3.9388,-3.9388,-3.9388,-4.3894,-4.3759,-4.3424,-4.2771,-4.3132,-4.3047,-4.1682,-4.0991,-4.0566,-4.0512,-3.9833,-3.9388,-3.9388,-3.9388,-3.9388,-3.9388,-3.9388,-3.9388,-3.9388,-3.9388,-3.9388,-3.9388,-3.9388,-3.9388,-3.9388,-3.9388,-3.9466,-3.9551,-3.9401,-3.9373,-3.9451,0.0,0.0,0.0,0.0,-4.004,-4.1321,-4.2118,-4.2486,-4.2525,-4.259,-4.3005,-4.3598,-4.3598,-4.3201,-4.2622,-4.2435,-4.1572,-4.0315,-3.891,-3.803,-3.7422,-3.6646,-3.5985,-3.5504,-3.5504,-3.5504,-3.5504,-3.5504,-3.5504,-3.5504,-3.5504,-3.5504,-3.5654,-3.6237,-3.6357,-3.6507,-3.7045,-3.7225,-3.7285,-3.7285,-3.7823,-3.8512,-3.929,-3.9349,-3.911,-3.8601,-3.9035,-3.92,-3.8601,-3.9122,0.0,-3.9424,-4.06,-4.1127,-4.0547,-4.1026,-4.1722,-4.2554,0.0,-4.282,-4.3598,-4.3598,-4.3598,-4.3598,-4.3598,-4.3598,-4.3598,-4.3598,-4.3598,-4.3598,-4.3598,-4.3598,-4.3552,-4.2881,-4.219,-4.1459,-4.0771,-4.0091,-3.9388,-3.9388,-3.9388,-3.9388,-3.9388,-3.9388,-3.9388,-4.541,-4.487,-4.4194,-4.3506,-4.3497,-4.3099,-4.162,-4.1341,-4.1031,-4.0495,-3.9826,-3.9388,-3.9388,-3.9388,-3.9388,-3.9388,-3.9388,-3.9388,-3.9388,-3.9388,-3.9388,-3.9388,-3.9388,-3.9388,-3.9388,-3.9388,-3.9692,-4.0309,-3.9668,-3.9658,-4.0192,-3.9583,0.0,0.0,0.0,-3.9775,-4.0602,-4.1369,-4.2032,-4.2593,-4.2599,-4.3005,-4.3598,-4.3598,-4.3515,-4.3258,-4.2108,-4.1488,-4.1024,-3.9658,-3.8819,-3.8087,-3.689,-3.6022,-3.5504,-3.5504,-3.5504,-3.5504,-3.5504,-3.5504,-3.5504,-3.5504,-3.5504,-3.5534,-3.5654,-3.5684,-3.5714,-3.5818,-3.6267,-3.6656,-3.6656,-3.7165,-3.7988,-3.9179,-3.8945,-3.8721,-3.917,-3.9349,-3.9379,-3.9245,-3.9874,-4.0091,-3.9445,-4.0181,-4.065,-4.0512,-4.0615,-4.1243,-4.2522,0.0,-4.2285,0.0,-4.3598,-4.3598,0.0,0.0,-4.3598,-4.3598,-4.3598,-4.3598,-4.3598,-4.3598,-4.3598,-4.3552,-4.2881,-4.219,-4.1459,-4.0771,-4.0091,-3.9388,-3.9388,-3.9388,-3.9388,-3.9388,-3.9388,-3.9388,-4.5241,-4.4835,-4.4239,-4.3152,-4.3236,-4.3098,-4.2076,-4.1919,-4.1563,-4.0524,-4.0127,-3.9798,-3.9454,-3.9388,-3.9388,-3.9388,-3.9388,-3.9388,-3.9388,-3.9388,-3.9388,-3.9388,-3.9388,-3.9388,-3.9388,-3.9388,-3.9574,-3.9915,-3.9562,-3.9726,-4.04,-4.0031,-3.9879,-3.9852,0.0,-4.0078,0.0,-4.0833,-4.1182,-4.1502,-4.1869,-4.2443,-4.3113,-4.3462,-4.3598,-4.3489,-4.2443,-4.2071,-4.1708,-3.9582,-3.8905,-3.8732,-3.7395,-3.6522,-3.6013,-3.6013,-3.5774,-3.5504,-3.5504,-3.5504,-3.5504,-3.5504,-3.5504,-3.5504,-3.5504,-3.5504,-3.5504,-3.5504,-3.5759,-3.6088,-3.6432,-3.6985,-3.7614,-3.8272,-3.8691,-3.8916,-3.8886,-3.9185,-3.9388,-3.9388,-3.9717,-3.9788,-3.9409,-3.9717,-4.0076,-4.0478,-4.0512,-4.1109,-4.2506,0.0,-4.2158,0.0,0.0,0.0,-4.3598,0.0,-4.3598,-4.3598,-4.3598,-4.3598,-4.3598,-4.3598,-4.3402,-4.3035,-4.2349,-4.1624,-4.094,-4.0216,-3.9717,-3.9388,-3.9388,-3.9388,-3.9388,-3.9388,-3.9388,-3.9388,-4.4895,-4.4662,-4.4167,-4.3029,-4.3244,-4.3347,-4.268,-4.2605,-4.2186,-4.0965,-4.0696,-4.0367,-3.9709,-3.9634,-3.9574,-3.9388,-3.9388,-3.9388,-3.9388,-3.9388,-3.9388,-3.9388,-3.9559,-3.9634,-3.9634,-3.9634,-3.9634,-3.9634,-3.948,-3.9653,-4.0208,-4.0181,-4.0183,-4.016,-4.0189,-4.0166,0.0,0.0,-4.0321,-4.0491,-4.1041,-4.1722,-4.2412,-4.2943,-4.3157,-4.3066,-4.238,-4.2253,-4.1981,-3.9464,-3.8967,-3.9216,-3.7994,-3.718,-3.6686,-3.6686,-3.6222,-3.5714,-3.5714,-3.5609,-3.5504,-3.5504,-3.5504,-3.5504,-3.5504,-3.5504,-3.5504,-3.5504,-3.5504,-3.5699,-3.6372,-3.6761,-3.709,-3.736,-3.8302,-3.8856,-3.8437,-3.899,-3.9388,-3.9388,-3.9388,-3.9388,-3.9388,-3.9388,-3.9717,-4.0443,-4.0512,-4.1042,-4.2285,-4.1949,0.0,0.0,0.0,-4.3598,-4.3598,0.0,-4.3598,-4.3598,-4.3598,-4.3598,-4.3598,-4.3462,-4.3113,-4.2554,-4.1656,-4.0907,-4.0216,-3.9646,-3.9388,-3.9388,-3.9388,-3.9388,-3.9388,-3.9388,-3.9388,-3.9388,-4.5457,-4.4989,-4.4457,-4.4319,-4.4365,-4.4128,-4.3334,-4.32,-4.2985,-4.2306,-4.1692,-4.104,-4.0382,-4.0307,-4.0068,-3.9433,-3.9388,-3.9388,-3.9388,-3.9388,-3.9388,-3.9388,-3.9993,-4.0307,-4.0307,-4.0307,-4.0307,-4.0307,-3.9721,-3.9435,-3.948,-3.9486,-3.9462,-3.9391,-3.9392,-3.9437,0.0,-3.9493,-3.9912,-4.0488,-4.055,-4.1008,-4.1624,-4.1689,-4.1689,-4.1624,-4.094,-4.1109,-4.1377,-3.9833,-3.9393,-3.9336,-3.8566,-3.7853,-3.733,-3.733,-3.6881,-3.6402,-3.6402,-3.5953,-3.5504,-3.5504,-3.5504,-3.5504,-3.5504,-3.5504,-3.5504,-3.5504,-3.5504,-3.5699,-3.6372,-3.6043,-3.6073,-3.7225,-3.7524,-3.7778,-3.8317,-3.899,-3.9388,-3.9388,-3.9388,-3.9388,-3.9388,-3.9388,-3.9717,-4.0443,-4.0512,-4.0805,-4.1558,-4.219,-4.2851,-4.3598,-4.3598,-4.3598,-4.3598,-4.3598,-4.3598,-4.3598,-4.3598,-4.3598,-4.3598,-4.2974,-4.2648,-4.2522,-4.1176,-4.0181,-3.9481,-3.9424,-3.9388,-3.9388,-3.9388,-3.9388,-3.9388,-3.9388,-3.9388,-3.9388,-4.4999,-4.4699,-4.4373,-4.3849,-4.3771,-4.3654,-4.3369,-4.329,-4.32,-4.297,-4.2372,-4.1752,-4.1055,-4.0636,-4.0292,-4.0023,-3.9649,-3.9553,-3.9978,-4.0008,-4.0187,-4.0576,-4.0846,-4.0995,-4.0995,-4.0995,-4.0786,-4.0397,-4.0142,-4.003,-4.0078,-4.0078,-4.0246,-4.0592,-3.9729,-3.9617,-4.0043,-3.9575,-3.9567,-3.9879,-4.0305,-4.065,-4.094,-4.136,-4.1492,-4.1426,-4.0737,-4.0668,-4.0737,-3.9753,-3.9698,-3.9975,-3.9239,-3.8542,-3.8003,-3.8003,-3.7539,-3.6956,-3.6596,-3.6297,-3.5998,-3.5609,-3.5504,-3.5504,-3.5504,-3.5504,-3.5504,-3.5504,-3.5504,-3.5594,-3.5848,-3.6013,-3.6133,-3.6252,-3.724,-3.7943,-3.7823,-3.8736,-3.9388,-3.9388,-3.9388,-3.9388,-3.9388,-3.9388,-3.9517,-3.9824,-3.9844,-4.032,-4.1459,-4.1787,-4.2285,-4.2974,0.0,-4.3598,-4.3598,-4.3598,-4.3598,-4.3598,-4.3598,-4.3598,-4.3598,-4.2912,-4.2126,-4.126,-4.0285,-3.9681,-3.9388,-3.9388,-3.9388,-3.9388,-3.9388,-3.9388,-3.9388,-3.9388,-3.9388,-3.9388,-4.4259,-4.4143,-4.3966,-4.3409,-4.329,-4.329,-4.329,-4.329,-4.329,-4.329,-4.294,-4.244,-4.1782,-4.125,-4.0905,-4.0711,-4.0262,-4.0187,-4.0651,-4.0681,-4.0891,-4.1392,-4.1602,-4.1707,-4.1707,-4.1707,-4.1482,-4.098,-4.0591,-4.0435,-4.0471,-4.0272,-4.0443,-4.0842,-3.9833,-3.9703,-4.0146,-3.961,-3.9388,-3.946,-3.9985,-4.0181,-4.025,-4.094,-4.106,-4.0839,-4.0581,-4.0339,-4.0091,-3.9589,-3.9753,-4.0091,-3.9553,-3.9095,-3.8691,-3.8691,-3.8212,-3.7599,-3.7165,-3.6776,-3.6372,-3.5908,-3.5654,-3.5504,-3.5504,-3.5504,-3.5504,-3.5504,-3.5504,-3.5504,-3.5504,-3.5893,-3.6043,-3.5579,-3.6971,-3.7943,-3.7479,-3.8571,-3.9388,-3.9388,-3.9245,-3.92,-3.9394,-3.923,-3.9272,-3.9702,-3.9717,-4.0235,-4.1426,-4.1722,-4.2158,0.0,0.0,0.0,-4.3598,-4.3598,-4.3598,-4.3598,-4.3598,-4.3492,-4.3265,-4.238,-4.1327,-4.0146,-3.9625,-3.9388,-3.9388,-3.9388,-3.9388,-3.9388,-3.9388,-3.9388,-3.9388,-3.9388,-3.9388,-3.9388,-4.3329,-4.3329,-4.3329,-4.329,-4.329,-4.329,-4.329,-4.329,-4.329,-4.329,-4.329,-4.3075,-4.2455,-4.2381,-4.2111,-4.1467,-4.1392,-4.1392,-4.1407,-4.1407,-4.1407,-4.1422,-4.2036,-4.2396,-4.2396,-4.2396,-4.2381,-4.2381,-4.104,-4.0397,-4.0382,-3.9723,-3.9424,-3.9409,-3.9409,-3.9409,-3.9409,-3.9409,-3.9388,-3.9388,-3.9424,-3.9409,-3.9481,-4.0216,-4.0056,-3.9517,-4.025,-4.0021,-3.9409,-3.9388,-3.9424,-3.9409,-3.9388,-3.9373,-3.9373,-3.9373,-3.8916,-3.8377,-3.8362,-3.7449,-3.6492,-3.6477,-3.5983,-3.5504,-3.5504,-3.5504,-3.5504,-3.5504,-3.5504,-3.5504,-3.5504,-3.5519,-3.5519,-3.5504,0.0,-3.7419,-3.7404,-3.8571,-3.9388,-3.9388,-3.8811,-3.8676,-3.9349,-3.8796,-3.8978,-4.0397,-4.0478,-4.0771,-4.1459,-4.219,-4.2881,-4.3568,-4.3598,0.0,-4.3598,-4.3598,-4.3598,-4.3598,-4.3598,-4.3235,-4.2554,-4.116,-4.0111,-3.9409,-3.9409,-3.9388,-3.9388,-3.9388,-3.9388,-3.9388,-3.9388,-3.9388,-3.9388,-3.9388,-3.9388,-3.9388,-4.329,-4.329,-4.329,-4.329,-4.329,-4.329,-4.329,-4.329,-4.329,-4.329,-4.329,-4.3215,-4.3045,-4.2626,-4.2306,-4.2111,-4.1677,-4.1564,-4.2051,-4.2096,-4.2252,-4.2686,-4.291,-4.3015,-4.3015,-4.3015,-4.2806,-4.2396,0.0,0.0,-3.9723,-3.9514,-3.9388,-3.9388,-3.9388,-3.9388,-3.9424,-3.995,-4.0146,-4.0146,-4.0146,-4.0409,-4.0805,-4.0581,-4.0339,-4.0181,-4.0409,-4.0021,-3.9388,-3.9388,-3.9388,-3.9388,-3.9388,-3.9388,-3.9388,-3.9388,-3.926,-3.899,-3.8512,-3.8093,-3.7584,-3.6701,-3.6327,-3.6058,-3.5609,-3.5504,-3.5504,-3.5504,-3.5504,-3.5504,-3.5504,-3.5504,-3.5654,-3.6103,-3.6866,0.0,-3.8018,-3.8856,-3.9589,-4.0076,-3.9947,-4.0109,-4.0789,-4.0621,-4.0691,-4.1145,-4.116,-4.126,-4.1492,-4.219,0.0,0.0,-4.3355,0.0,-4.3598,-4.3598,-4.3598,-4.3598,-4.3598,-4.3005,-4.1819,-4.0907,-4.0091,-3.9388,-3.9388,-3.9388,-3.9388,-3.9388,-3.9388,-3.9388,-3.9388,-3.9388,-3.9388,-3.9388,-3.9388,-3.9388,-4.329,-4.329,-4.329,-4.329,-4.329,-4.329,-4.329,-4.329,-4.329,-4.329,-4.329,-4.329,-4.329,-4.297,-4.2731,-4.2731,-4.2357,-4.2282,-4.2701,-4.2731,-4.291,-4.3275,-4.329,-4.329,-4.329,-4.329,0.0,-4.2731,-4.1818,-4.0711,-3.9388,-3.9388,-3.9388,-3.9409,-3.9681,-3.9824,-3.9844,-4.0566,-4.0873,-4.0873,-4.0873,-4.1127,-4.1492,-4.1327,-4.1109,-4.0873,-4.0873,-4.0409,-3.9788,-3.9481,-3.9388,-3.9388,-3.9388,-3.9388,-3.9388,-3.9388,-3.9388,-3.9334,-3.8901,-3.8586,-3.8197,-3.7404,-3.6836,-3.6312,-3.5654,-3.5504,-3.5504,-3.5504,-3.5504,-3.5504,-3.5504,-3.5714,-3.6013,-3.6417,-3.721,-3.8017,-3.87,-3.9385,-4.0076,-4.0805,-4.0658,-4.0763,-4.1428,-4.1272,-4.1323,-4.1868,-4.1917,0.0,0.0,0.0,-4.271,-4.2974,-4.3372,-4.3598,-4.3598,-4.3598,-4.3598,-4.3598,-4.3066,-4.2349,-4.1459,-4.0512,-3.9859,-3.9388,-3.9388,-3.9388,-3.9388,-3.9388,-3.9388,-3.9388,-3.9388,-3.9388,-3.9388,-3.9388,-3.9388,-3.9388,-4.329,-4.329,-4.329,-4.329,-4.329,-4.329,-4.329,-4.329,-4.329,-4.329,-4.329,-4.329,-4.329,-4.329,-4.329,-4.329,0.0,0.0,-4.329,-4.329,-4.329,-4.329,-4.329,-4.329,-4.329,-4.329,-4.3275,-4.323,-4.2043,-4.0771,-3.9448,-3.9529,-3.9514,-3.9424,-4.0226,-4.0558,-4.0547,-4.126,-4.1591,-4.1591,-4.1591,-4.1591,-4.1722,-4.2349,-4.219,-4.1591,-4.1591,-4.1127,-4.0443,-3.9717,-3.9496,-3.9445,-3.9424,-3.9388,-3.9388,-3.9388,-3.9388,-3.9388,-3.9388,-3.8945,-3.8452,-3.8407,-3.7434,-3.6327,-3.5714,-3.5534,-3.5504,-3.5504,-3.5504,-3.5519,-3.5564,-3.6073,-3.6507,-3.6611,-3.7683,-3.8741,-3.9471,-4.0146,-4.0805,-4.1492,0.0,-4.0911,-4.1593,-4.107,-4.1246,-4.2568,-4.2679,0.0,0.0,0.0,-4.2943,-4.3598,-4.3598,-4.3598,-4.3598,-4.3598,-4.3598,-4.3492,-4.2142,-4.1492,-4.1393,-4.0005,-3.9388,-3.9388,-3.9388,-3.9388,-3.9388,-3.9388,-3.9388,-3.9388,-3.9388,-3.9388,-3.9388,-3.9388,-3.9388,-3.9388,-4.329,-4.329,-4.329,-4.329,-4.329,-4.329,-4.329,-4.329,-4.329,-4.329,-4.329,-4.329,-4.329,-4.329,-4.329,-4.329,-4.329,-4.329,-4.329,-4.329,-4.329,-4.329,-4.329,-4.329,-4.329,-4.329,-4.309,-4.262,-4.2321,-4.1497,-4.0172,-4.0681,-4.0382,-3.9439,-4.0649,-4.0924,-4.0581,-4.1835,-4.2349,-4.2349,-4.2349,-4.2648,-4.3066,-4.271,-4.2491,-4.2349,-4.2349,-4.1884,-4.116,-4.0478,-4.025,-4.0146,-3.9589,-3.9388,-3.9388,-3.9388,-3.9388,-3.9388,-3.9388,-3.9269,-3.905,-3.8527,-3.7434,-3.6447,-3.6297,-3.5863,-3.5504,-3.5504,-3.5504,-3.5669,-3.6163,-3.6372,-3.6806,-3.7778,-3.8667,-3.9477,-4.017,-4.0831,-4.1525,0.0,-4.2204,-4.236,-4.305,-4.2979,-4.3007,0.0,0.0,-4.3432,-4.3598,-4.3462,-4.3432,-4.3598,-4.3598,-4.3598,-4.3598,-4.3598,-4.3325,-4.2851,-4.1917,-4.1227,-4.0718,-3.9824,-3.9388,-3.9388,-3.9388,-3.9388,-3.9388,-3.9388,-3.9388,-3.9388,-3.9388,-3.9388,-3.9388,-3.9388,-3.9388,-3.9388,-4.329,-4.329,-4.329,-4.329,-4.329,-4.329,-4.329,-4.329,-4.329,-4.329,-4.329,-4.329,-4.329,-4.329,-4.329,-4.329,-4.329,-4.329,-4.329,-4.329,-4.329,-4.329,-4.329,-4.329,-4.329,-4.329,-4.3015,-4.2396,-4.2396,-4.1886,-4.0861,-4.1205,-4.0995,-4.0359,-4.1791,-4.2031,-4.1494,-4.296,-4.3377,-4.3066,-4.3066,-4.3265,-4.3568,-4.3204,-4.3066,-4.3005,-4.271,-4.2349,-4.1884,-4.1194,-4.0974,-4.0873,-4.0478,-4.0374,-4.0305,-3.9985,-3.9915,-3.9915,-3.9915,-3.9915,-3.9642,-3.8662,-3.7868,-3.7285,-3.6971,-3.6417,-3.6043,-3.6312,-3.6148,-3.6148,-3.6791,-3.715,-3.7721,-3.8758,-3.9501,-4.0318,-4.1313,-4.1754,-4.2285,-4.2974,-4.3066,-4.3204,-4.3552,-4.3598,-4.3598,-4.3598,-4.3598,0.0,-4.3598,-4.3598,-4.3598,-4.3598,-4.3598,-4.3598,-4.3598,-4.3312,-4.2943,-4.2585,-4.1525,-4.0839,-4.0478,-3.9753,-3.9388,-3.9388,-3.9388,-3.9388,-3.9388,-3.9388,-3.9388,-3.9388,-3.9388,-3.9388,-3.9388,-3.9388,-3.9388,-3.9388,-4.329,-4.329,-4.329,-4.329,-4.329,-4.329,-4.329,-4.329,-4.329,-4.329,-4.329,-4.329,-4.329,-4.329,-4.329,-4.329,-4.329,-4.329,-4.329,-4.329,-4.329,-4.329,-4.329,-4.329,-4.329,-4.329,-4.306,-4.2545,-4.2545,-4.2216,-4.1572,-4.1776,-4.1738,-4.1618,-4.3216,-4.3511,-4.2928,-4.4277,-4.444,-4.3764,-4.3764,-4.3698,-4.3598,-4.3598,-4.3598,-4.3539,-4.2943,-4.2741,-4.2648,-4.1917,-4.1656,-4.1656,-4.1525,-4.1492,-4.1393,-4.0805,-4.0737,-4.0771,-4.0547,-4.0512,-4.0167,-3.8888,-3.8467,-3.8242,-3.7689,-3.7075,-3.6776,-3.73,-3.6985,-3.6806,-3.7449,-3.8122,-3.8791,-3.9533,-4.0297,-4.1243,-4.2412,0.0,-4.2974,-4.3522,-4.3598,-4.3598,-4.3598,-4.3598,-4.3598,-4.3598,-4.3598,-4.3598,-4.3598,-4.3598,-4.3598,-4.3598,-4.3598,-4.3598,-4.3598,-4.2943,-4.2554,-4.2412,-4.1142,-4.0443,-4.032,-3.9681,-3.9388,-3.9388,-3.9388,-3.9388,-3.9388,-3.9388,-3.9388,-3.9388,-3.9388,-3.9388,-3.9388,-3.9388,-3.9388,-3.9388,-4.329,-4.329,-4.329,-4.329,-4.329,-4.329,-4.329,-4.329,-4.329,-4.329,-4.329,-4.329,-4.329,-4.329,-4.329,-4.329,-4.329,-4.329,-4.329,-4.329,-4.329,-4.329,-4.329,-4.329,-4.329,-4.329,-4.3245,-4.314,-4.314,-4.2851,-4.2261,-4.3465,-4.34,-4.2421,-4.4458,-4.5025,-4.4495,-4.5286,-4.5202,-4.4522,-4.4522,-4.4158,-4.3598,-4.3598,-4.3598,-4.3598,-4.3492,-4.3432,-4.3325,-4.2648,-4.2412,-4.2317,-4.1689,-4.1492,-4.1492,-4.1393,-4.1803,-4.2029,-4.0805,-4.0512,-4.0289,-3.9454,-3.8826,-3.8362,-3.8257,-3.7734,-3.73,-3.7389,-3.733,-3.7464,-3.8123,-3.8823,-3.956,-4.0232,-4.1429,-4.2349,-4.2585,0.0,-4.3492,-4.3598,-4.3598,-4.3598,-4.3598,-4.3598,-4.3598,-4.3598,-4.3598,-4.3598,-4.3598,-4.3598,-4.3598,-4.3598,-4.3598,-4.3598,-4.3598,-4.2943,-4.2285,-4.1656,-4.0873,-4.0181,-3.9589,-3.9445,-3.9388,-3.9388,-3.9388,-3.9388,-3.9388,-3.9388,-3.9388,-3.9388,-3.9388,-3.9388,-3.9388,-3.9388,-3.9388,-3.9388,-4.329,-4.329,-4.329,-4.329,-4.329,-4.329,-4.329,-4.329,-4.329,-4.329,-4.329,-4.329,-4.329,-4.329,-4.329,-4.329,-4.329,-4.329,-4.329,-4.329,-4.329,-4.329,-4.329,-4.329,-4.329,-4.329,-4.329,-4.329,-4.329,-4.314,-4.2895,-4.4006,-4.4172,-4.3646,-4.5492,-4.5937,-4.534,-4.6074,-4.5963,-4.5284,-4.5284,-4.5086,-4.4787,-4.4787,-4.4539,-4.4191,-4.4191,-4.3943,-4.3568,-4.3235,-4.3143,-4.3066,-4.2741,-4.2632,-4.2569,-4.2221,-4.2045,-4.1852,-4.1227,-4.0771,-4.0305,-3.9589,-3.9185,-3.8945,-3.8945,-3.8422,-3.8033,-3.8407,-3.8197,-3.8277,-3.9343,-3.9811,-4.038,-4.1445,-4.219,-4.271,-4.3082,-4.3402,-4.3598,-4.3598,-4.3598,-4.3598,-4.3598,-4.3598,-4.3598,-4.3598,-4.3598,-4.3598,-4.3598,-4.3598,-4.3598,-4.3598,-4.3598,-4.3598,-4.3598,-4.2943,-4.2221,-4.1492,-4.0805,-4.0111,-3.9388,-3.9388,-3.9388,-3.9388,-3.9388,-3.9388,-3.9388,-3.9388,-3.9388,-3.9388,-3.9388,-3.9388,-3.9388,-3.9388,-3.9388,-3.9388,-4.329,-4.329,-4.329,-4.329,-4.329,-4.329,-4.329,-4.329,-4.329,-4.329,-4.329,-4.329,-4.329,-4.329,-4.329,-4.329,-4.329,-4.329,-4.329,-4.329,-4.329,-4.329,-4.329,-4.329,-4.329,-4.329,-4.329,-4.329,-4.329,-4.3409,-4.3591,-4.4396,-4.4871,-4.5079,-4.6464,-4.6758,-4.6287,-4.6897,-4.6725,-4.6046,-4.6046,-4.5947,-4.5798,-4.5798,-4.5433,-4.492,-4.4754,-4.434,-4.3813,-4.3648,-4.3598,-4.3598,-4.3598,-4.3598,-4.3492,-4.2974,-4.2317,-4.1689,-4.136,-4.0907,-4.0339,-3.9788,-3.9517,-3.9445,-3.961,-3.9133,-3.8852,-3.9505,-3.9259,-3.9278,-4.0507,-4.0873,-4.1343,-4.2412,0.0,-4.3005,-4.3539,-4.3598,-4.3598,-4.3598,-4.3598,-4.3532,-4.335,-4.3333,-4.3333,-4.3333,-4.3333,-4.3416,-4.3582,-4.3598,-4.3598,-4.3598,-4.3598,-4.3598,-4.3598,-4.2943,-4.2221,-4.1492,-4.0805,-4.0111,-3.9388,-3.9388,-3.9388,-3.9388,-3.9388,-3.9388,-3.9388,-3.9388,-3.9388,-3.9388,-3.9388,-3.9388,-3.9388,-3.9388,-3.9388,-3.9388,-4.329,-4.329,-4.329,-4.329,-4.329,-4.329,-4.329,-4.329,-4.329,-4.329,-4.329,-4.329,-4.329,-4.329,-4.329,-4.329,-4.329,-4.329,-4.329,-4.329,-4.329,-4.329,-4.329,-4.329,-4.329,-4.329,-4.329,-4.329,-4.329,-4.3669,-4.4434,-4.5258,-4.5969,-4.6673,-4.7521,-4.7902,-4.7836,-4.7885,-4.7487,-4.6825,-4.6825,-4.6411,-4.5798,-4.5798,-4.5765,-4.5616,-4.4937,-4.4655,-4.4506,-4.3813,-4.3598,-4.3598,-4.3598,-4.3598,-4.3598,-4.3522,-4.3035,-4.2221,-4.094,-4.0547,-4.0478,-4.0443,-3.9915,-3.9589,-4.025,-3.9849,-3.9514,-4.027,-4.0378,-4.0588,-4.1278,-4.1981,-4.2491,-4.2585,0.0,0.0,-4.3598,-4.3598,-4.3598,-4.3598,-4.3598,-4.3317,-4.2638,-4.2572,-4.2572,-4.2572,-4.2572,-4.287,-4.3565,-4.3598,-4.3598,-4.3598,-4.3598,-4.3598,-4.3598,-4.2943,-4.2221,-4.1492,-4.0805,-4.0111,-3.9388,-3.9388,-3.9388,-3.9388,-3.9388,-3.9388,-3.9388,-3.9388,-3.9388,-3.9388,-3.9388,-3.9388,-3.9388,-3.9388,-3.9388,-3.9388,-4.329,-4.329,-4.329,-4.329,-4.329,-4.329,-4.329,-4.329,-4.329,-4.329,-4.329,-4.329,-4.329,-4.329,-4.329,-4.329,-4.329,-4.329,-4.329,-4.329,-4.329,-4.329,-4.329,-4.329,-4.329,-4.329,-4.329,-4.329,-4.381,-4.4182,-4.451,-4.5773,-4.6534,-4.6862,-4.7638,-4.8001,-4.8001,-4.8001,-4.7835,-4.7587,-4.7587,-4.7404,-4.7156,-4.7156,-4.6874,-4.6444,-4.6146,-4.5467,-4.4655,-4.4373,-4.3992,-4.3598,-4.3598,-4.3598,-4.3522,-4.3113,-4.2803,-4.238,-4.1393,-4.1127,-4.1042,-4.06,-4.0285,-4.0146,-4.0459,-3.9915,-3.9717,-4.0873,-4.0805,-4.0839,-4.1949,-4.2412,-4.2741,-4.3143,0.0,-4.3598,-4.3598,-4.3598,-4.3598,-4.3598,-4.3598,-4.33,-4.2555,-4.2903,-4.2986,-4.2522,-4.292,-4.33,-4.3582,-4.3598,-4.3598,-4.3598,-4.3598,-4.3598,-4.3598,-4.3372,-4.2648,-4.1492,-4.1227,-4.0512,-3.9388,-3.9388,-3.9388,-3.9388,-3.9388,-3.9388,-3.9388,-3.9388,-3.9388,-3.9388,-3.9388,-3.9388,-3.9388,-3.9388,-3.9388,-3.9388,-4.329,-4.329,-4.329,-4.329,-4.329,-4.329,-4.329,-4.329,-4.329,-4.329,-4.329,-4.329,-4.329,-4.329,-4.329,-4.329,-4.329,-4.329,-4.329,-4.329,-4.329,-4.329,-4.329,-4.329,-4.329,-4.3551,-4.3669,-4.3669,-4.4472,-4.4999,-4.5243,-4.6308,-4.6931,-4.7186,-4.7737,-4.8001,-4.8001,-4.8001,-4.8001,-4.8001,-4.8001,-4.8001,-4.8001,-4.8001,-4.7686,-4.7222,-4.6974,-4.6245,-4.5301,-4.4854,-4.4357,-4.388,-4.3664,-4.3598,-4.3492,-4.3035,-4.2912,-4.2803,-4.2317,-4.2013,-4.1689,-4.1008,-4.0478,-4.0285,-4.0703,-4.025,-4.0146,-4.1558,-4.1492,-4.1525,-4.271,-4.2912,-4.3066,-4.3539,-4.3598,-4.3598,-4.3598,-4.3598,-4.3598,-4.3598,-4.3598,-4.33,-4.2555,-4.2953,-4.3035,-4.2522,-4.2969,-4.335,-4.3582,-4.3598,-4.3598,-4.3598,-4.3598,-4.3598,-4.3598,-4.3598,-4.2896,-4.1492,-4.1492,-4.0771,-3.9388,-3.9388,-3.9388,-3.9388,-3.9388,-3.9388,-3.9388,-3.9388,-3.9388,-3.9388,-3.9388,-3.9388,-3.9388,-3.9388,-3.9388,-3.9388,-4.329,-4.329,-4.329,-4.329,-4.329,-4.329,-4.329,-4.329,-4.329,-4.329,-4.329,-4.329,-4.329,-4.329,-4.329,-4.329,-4.329,-4.329,-4.329,-4.329,-4.329,-4.329,-4.329,-4.329,-4.329,-4.4066,-4.451,-4.451,-4.5295,-4.6076,-4.6811,-4.6811,-4.7236,-4.8001,-4.8001,-4.8001,-4.8001,-4.8001,-4.8001,-4.8001,-4.8001,-4.8001,-4.8001,-4.8001,-4.8001,-4.7901,-4.7173,-4.6891,-4.6676,-4.5202,-4.4705,-4.4572,-4.383,-4.3598,-4.3598,-4.3598,-4.3598,-4.3598,-4.3598,-4.3113,-4.2412,-4.1689,-4.0428,-3.9773,-4.1194,-4.1008,-4.0907,-4.2317,-4.2617,-4.2803,-4.3462,-4.3598,-4.3598,-4.3598,-4.3598,-4.3598,-4.3598,-4.3598,-4.3598,-4.3598,-4.3598,-4.33,-4.2555,-4.2489,-4.2489,-4.2489,-4.2489,-4.282,-4.3565,-4.3598,-4.3598,-4.3598,-4.3598,-4.3598,-4.3598,-4.3598,-4.2896,-4.1492,-4.1492,-4.0771,-3.9388,-3.9388,-3.9388,-3.9388,-3.9388,-3.9388,-3.9388,-3.9388,-3.9388,-3.9388,-3.9388,-3.9388,-3.9388,-3.9388,-3.9388,-3.9388,-4.329,-4.329,-4.329,-4.329,-4.329,-4.329,-4.329,-4.329,-4.329,-4.329,-4.329,-4.329,-4.329,-4.329,-4.329,-4.329,-4.329,-4.329,-4.329,-4.329,-4.329,-4.329,-4.329,-4.329,-4.329,-4.4066,-4.451,-4.451,-4.5809,-4.6569,-4.6811,-4.7371,-4.7787,-4.8001,-4.8001,-4.8001,-4.8001,-4.8001,-4.8001,-4.8001,-4.8001,-4.8001,-4.8001,-4.8001,-4.8001,-4.7968,-4.7752,-4.7338,-4.6825,-4.6394,-4.5897,-4.5334,-4.4589,-4.4373,-4.4274,-4.3731,-4.3598,-4.3598,-4.3598,-4.3113,-4.2554,-4.2317,-4.1558,-4.1127,-4.2061,-4.1722,-4.1591,-4.3005,-4.2943,-4.2803,-4.3462,-4.3598,-4.3598,-4.3598,-4.3598,-4.3598,-4.3598,-4.3598,-4.3598,-4.3598,-4.3598,-4.33,-4.2555,-4.2969,-4.3052,-4.2522,-4.2969,-4.3367,-4.3582,-4.3598,-4.3598,-4.3598,-4.3598,-4.3598,-4.3598,-4.3127,-4.2412,-4.1492,-4.1042,-4.032,-3.9388,-3.9388,-3.9388,-3.9388,-3.9388,-3.9388,-3.9388,-3.9388,-3.9388,-3.9388,-3.9388,-3.9388,-3.9388,-3.9388,-3.9388,-3.9388,-4.329,-4.329,-4.329,-4.329,-4.329,-4.329,-4.329,-4.329,-4.329,-4.329,-4.329,-4.329,-4.329,-4.329,-4.329,-4.329,-4.329,-4.329,-4.329,-4.329,-4.329,-4.329,-4.3591,-4.3771,-4.3771,-4.4548,-4.5132,-4.541,-4.6638,-4.7253,-4.7303,-4.777,-4.8001,-4.8001,-4.8001,-4.8001,-4.8001,-4.8001,-4.8001,-4.8001,-4.8001,-4.8001,-4.8001,-4.8001,-4.8001,-4.8001,-4.8001,-4.7719,-4.7289,-4.699,-4.6411,-4.5715,-4.5268,-4.492,-4.4605,-4.4175,-4.3843,-4.3598,-4.3598,-4.3113,-4.2648,-4.2943,-4.2253,-4.1689,-4.2412,-4.2253,-4.2253,-4.3372,-4.3265,-4.3113,-4.3539,-4.3598,-4.3598,-4.3598,-4.3598,-4.3598,-4.3598,-4.3598,-4.3598,-4.3598,-4.3598,-4.3416,-4.2969,-4.3333,-4.3416,-4.2969,-4.335,-4.3598,-4.3598,-4.3598,-4.3598,-4.3598,-4.3598,-4.3598,-4.3598,-4.2648,-4.1949,-4.1492,-4.1109,-4.0374,-3.9388,-3.9388,-3.9388,-3.9388,-3.9388,-3.9388,-3.9388,-3.9388,-3.9388,-3.9388,-3.9388,-3.9388,-3.9388,-3.9388,-3.9388,-3.9388,-4.329,-4.329,-4.329,-4.329,-4.329,-4.329,-4.329,-4.329,-4.329,-4.329,-4.329,-4.329,-4.329,-4.329,-4.329,-4.329,-4.329,-4.329,-4.329,-4.329,-4.3329,-4.3409,-4.4105,-4.4548,-4.4699,-4.5426,-4.6127,-4.6811,-4.7605,-4.8001,-4.8001,-4.8001,-4.8001,-4.8001,-4.8001,-4.8001,-4.8001,-4.8001,-4.8001,-4.8001,-4.8001,-4.8001,-4.8001,-4.8001,-4.8001,-4.8001,-4.8001,-4.8001,-4.7901,-4.7222,-4.6543,-4.598,-4.5914,-4.5433,-4.4854,-4.4752,-4.4224,-4.3681,-4.3615,-4.3157,-4.2851,-4.3462,-4.2648,-4.1852,-4.2554,-4.2679,-4.2865,-4.3462,-4.3598,-4.3598,-4.3598,-4.3598,-4.3598,-4.3598,-4.3598,-4.3598,-4.3598,-4.3598,-4.3598,-4.3598,-4.3598,-4.3598,-4.3598,-4.3598,-4.3598,-4.3598,-4.3598,-4.3598,-4.3598,-4.3598,-4.3598,-4.3598,-4.3598,-4.3598,-4.3598,-4.2285,-4.1558,-4.1492,-4.136,-4.0634,-3.9388,-3.9388,-3.9388,-3.9409,-3.9481,-3.9481,-3.9481,-3.9481,-3.9481,-3.9481,-3.9424,-3.9388,-3.9388,-3.9388,-3.9388,-3.9388,-4.329,-4.329,-4.329,-4.329,-4.329,-4.329,-4.329,-4.329,-4.329,-4.329,-4.329,-4.329,-4.329,-4.329,-4.329,-4.329,-4.329,-4.329,-4.329,-4.329,-4.3591,-4.422,-4.4412,-4.5058,-4.6272,-4.6464,-4.6638,-4.6811,-4.7605,-4.8001,-4.8001,-4.8001,-4.8001,-4.8001,-4.8001,-4.8001,-4.8001,-4.8001,-4.8001,-4.8001,-4.8001,-4.8001,-4.8001,-4.8001,-4.8001,-4.8001,-4.8001,-4.8001,-4.7984,-4.7819,-4.7653,-4.7421,-4.6841,-4.6543,-4.6195,-4.5036,-4.4572,-4.434,-4.3747,-4.3492,-4.3432,-4.3552,-4.3372,-4.3204,-4.3372,-4.3386,-4.3432,-4.3568,-4.3598,-4.3598,-4.3598,-4.3598,-4.3598,-4.3598,-4.3598,-4.3598,-4.3598,-4.3598,-4.3598,-4.3598,-4.3598,-4.3598,-4.3598,-4.3598,-4.3598,-4.3598,-4.3598,-4.3598,-4.3598,-4.3598,-4.3598,-4.3598,-4.3598,-4.3598,-4.3598,-4.2772,-4.2078,-4.1492,-4.0374,-3.9681,-3.9388,-3.9388,-3.9388,-3.9424,-4.0021,-4.025,-4.025,-4.025,-4.025,-4.0216,-3.9625,-3.9388,-3.9388,-3.9388,-3.9388,-3.9388,-4.329,-4.329,-4.329,-4.329,-4.329,-4.329,-4.329,-4.329,-4.329,-4.329,-4.329,-4.329,-4.329,-4.329,-4.329,-4.329,-4.329,-4.3472,-4.3849,-4.3888,-4.422,-4.5036,-4.5426,-4.5989,-4.6777,-4.7186,-4.7371,-4.7371,-4.777,-4.8001,-4.8001,-4.8001,-4.8001,-4.8001,-4.8001,-4.8001,-4.8001,-4.8001,-4.8001,-4.8001,-4.8001,-4.8001,-4.8001,-4.8001,-4.8001,-4.8001,-4.8001,-4.8001,-4.8001,-4.8001,-4.8001,-4.7934,-4.7554,-4.7173,-4.6742,-4.5963,-4.5483,-4.5052,-4.4324,-4.4125,-4.4042,-4.3681,-4.3598,-4.3598,-4.3598,-4.3598,-4.3598,-4.3598,-4.3598,-4.3598,-4.3598,-4.3598,-4.3598,-4.3598,-4.3598,-4.3598,-4.3598,-4.3598,-4.3598,-4.3598,-4.3598,-4.3598,-4.3598,-4.3598,-4.3598,-4.3598,-4.3598,-4.3598,-4.3598,-4.3598,-4.3598,-4.3598,-4.3598,-4.3598,-4.3598,-4.2943,-4.2412,-4.2013,-4.0925,-4.0235,-3.995,-4.025,-4.0409,-4.0409,-4.0805,-4.0974,-4.0974,-4.0974,-4.0974,-4.0907,-4.0216,-3.9915,-3.9879,-3.9517,-3.9388,-3.9388,-4.329,-4.329,-4.329,-4.329,-4.329,-4.329,-4.329,-4.329,-4.329,-4.329,-4.329,-4.329,-4.329,-4.329,-4.329,-4.329,-4.329,-4.363,-4.445,-4.451,-4.4924,-4.5841,-4.6464,-4.6846,-4.6999,-4.7671,-4.8001,-4.8001,-4.8001,-4.8001,-4.8001,-4.8001,-4.8001,-4.8001,-4.8001,-4.8001,-4.8001,-4.8001,-4.8001,-4.8001,-4.8001,-4.8001,-4.8001,-4.8001,-4.8001,-4.8001,-4.8001,-4.8001,-4.8001,-4.8001,-4.8001,-4.8001,-4.8001,-4.7587,-4.7057,-4.6941,-4.646,-4.5814,-4.5086,-4.4818,-4.4539,-4.3959,-4.3681,-4.3598,-4.3598,-4.3598,-4.3598,-4.3598,-4.3598,-4.3598,-4.3598,-4.3598,-4.3598,-4.3598,-4.3598,-4.3598,-4.3598,-4.3598,-4.3598,-4.3598,-4.3598,-4.3598,-4.3598,-4.3598,-4.3598,-4.3598,-4.3598,-4.3598,-4.3598,-4.3598,-4.3598,-4.3598,-4.3598,-4.3598,-4.3598,-4.2943,-4.2617,-4.2585,-4.1981,-4.1327,-4.0668,-4.126,-4.1492,-4.1525,-4.1624,-4.1689,-4.1689,-4.1689,-4.1689,-4.1624,-4.0805,-4.0512,-4.0409,-3.9681,-3.9388,-3.9388,-4.329,-4.329,-4.329,-4.329,-4.329,-4.329,-4.329,-4.329,-4.329,-4.329,-4.329,-4.329,-4.329,-4.329,-4.329,-4.329,-4.329,-4.363,-4.445,-4.451,-4.5132,-4.6604,-4.6742,-4.7118,-4.782,-4.7919,-4.8001,-4.8001,-4.8001,-4.8001,-4.8001,-4.8001,-4.8001,-4.8001,-4.8001,-4.8001,-4.8001,-4.8001,-4.8001,-4.8001,-4.8001,-4.8001,-4.8001,-4.8001,-4.8001,-4.8001,-4.8001,-4.8001,-4.8001,-4.8001,-4.8001,-4.8001,-4.8001,-4.7934,-4.7736,-4.709,-4.6825,-4.6576,-4.5847,-4.5185,-4.4671,-4.4572,-4.4075,-4.3598,-4.3598,-4.3598,-4.3598,-4.3598,-4.3598,-4.3598,-4.3598,-4.3598,-4.3598,-4.3598,-4.3598,-4.3598,-4.3598,-4.3598,-4.3598,-4.3598,-4.3598,-4.3598,-4.3598,-4.3598,-4.3598,-4.3598,-4.3598,-4.3598,-4.3598,-4.3598,-4.3598,-4.3598,-4.3598,-4.3598,-4.3598,-4.2943,-4.2617,-4.2617,-4.2491,-4.2078,-4.136,-4.1459,-4.1492,-4.1525,-4.219,-4.2443,-4.2443,-4.2443,-4.2443,-4.2317,-4.1008,-4.0512,-4.0409,-3.9681,-3.9388,-3.9388,-4.329,-4.329,-4.329,-4.329,-4.329,-4.329,-4.329,-4.329,-4.329,-4.329,-4.329,-4.329,-4.329,-4.329,-4.329,-4.329,-4.3693,-4.4297,-4.511,-4.5572,-4.6288,-4.7404,-4.7488,-4.7638,-4.8001,-4.8001,-4.8001,-4.8001,-4.8001,-4.8001,-4.8001,-4.8001,-4.8001,-4.8001,-4.8001,-4.8001,-4.8001,-4.8001,-4.8001,-4.8001,-4.8001,-4.8001,-4.8001,-4.8001,-4.8001,-4.8001,-4.8001,-4.8001,-4.8001,-4.8001,-4.8001,-4.8001,-4.8001,-4.8001,-4.7934,-4.7603,-4.7504,-4.7355,-4.6609,-4.6179,-4.5715,-4.4903,-4.4456,-4.4125,-4.3681,-4.3598,-4.3598,-4.3598,-4.3598,-4.3598,-4.3598,-4.3598,-4.3628,-4.3763,-4.3658,-4.3628,-4.3763,-4.3658,-4.3598,-4.3598,-4.3598,-4.3598,-4.3598,-4.3598,-4.3598,-4.3598,-4.3598,-4.3598,-4.3598,-4.3598,-4.3598,-4.3598,-4.3598,-4.3598,-4.3598,-4.3295,-4.3174,-4.3174,-4.3174,-4.2772,-4.2126,-4.2506,-4.2663,-4.2679,-4.3005,-4.3174,-4.3174,-4.3174,-4.2943,-4.2491,-4.1459,-4.0581,-3.9859,-3.9517,-3.9388,-3.9388]},{"header":{"parameterUnit":"m.s-1","parameterCategory":1,"la1":30.6,"la2":28.766,"lo1":-90.7593,"lo2":-88.6598,"dy":0.0162,"dx":0.0183,"nx":116,"ny":114,"refTime":"2024-07-06T06:00:00:Z","depth":0,"parameterNumber":3,"parameterNumberName":"V-component_of_WINDS"},"data":[0.0,0.0,0.0,0.0,0.0,0.0,0.0,0.0,0.0,0.0,0.0,0.0,0.0,0.0,0.0,0.0,0.0,0.0,0.0,0.0,0.0,0.0,0.0,0.0,0.0,0.0,0.0,0.0,0.0,0.0,0.0,0.0,0.0,0.0,0.0,0.0,0.0,0.0,0.0,0.0,0.0,0.0,0.0,0.0,0.0,0.0,0.0,0.0,0.0,0.0,0.0,0.0,0.0,0.0,0.0,0.0,0.0,0.0,0.0,0.0,0.0,0.0,0.0,0.0,0.0,0.0,0.0,0.0,0.0,0.0,0.0,0.0,0.0,0.0,0.0,0.0,0.0,0.0,0.0,0.0,0.0,0.0,0.0,0.0,0.0,0.0,0.0,0.0,0.0,0.0,0.0,0.0,0.0,0.0,0.0,0.0,0.0,0.0,0.0,0.0,0.0,0.0,0.0,0.0,0.0,0.0,0.0,0.0,0.0,0.0,0.0,0.0,0.0,0.0,0.0,0.0,0.0,0.0,0.0,0.0,0.0,0.0,0.0,0.0,0.0,0.0,0.0,0.0,0.0,0.0,0.0,0.0,0.0,0.0,0.0,0.0,0.0,0.0,0.0,0.0,0.0,0.0,0.0,0.0,0.0,0.0,0.0,0.0,0.0,0.0,0.0,0.0,0.0,0.0,0.0,0.0,0.0,0.0,0.0,0.0,0.0,0.0,0.0,0.0,0.0,0.0,0.0,0.0,0.0,0.0,0.0,0.0,0.0,0.0,0.0,0.0,0.0,0.0,0.0,0.0,0.0,0.0,0.0,0.0,0.0,0.0,0.0,0.0,0.0,0.0,0.0,0.0,0.0,0.0,0.0,0.0,0.0,0.0,0.0,0.0,0.0,0.0,0.0,0.0,0.0,0.0,0.0,0.0,0.0,0.0,0.0,0.0,0.0,0.0,0.0,0.0,0.0,0.0,0.0,0.0,0.0,0.0,0.0,0.0,0.0,0.0,0.0,0.0,0.0,0.0,0.0,0.0,0.0,0.0,0.0,0.0,0.0,0.0,0.0,0.0,0.0,0.0,0.0,0.0,0.0,0.0,0.0,0.0,0.0,0.0,0.0,0.0,0.0,0.0,0.0,0.0,0.0,0.0,0.0,0.0,0.0,0.0,0.0,0.0,0.0,0.0,0.0,0.0,0.0,0.0,0.0,0.0,0.0,0.0,0.0,0.0,0.0,0.0,0.0,0.0,0.0,0.0,0.0,0.0,0.0,0.0,0.0,0.0,0.0,0.0,0.0,0.0,0.0,0.0,0.0,0.0,0.0,0.0,0.0,0.0,0.0,0.0,0.0,0.0,0.0,0.0,0.0,0.0,0.0,0.0,0.0,0.0,0.0,0.0,0.0,0.0,0.0,0.0,0.0,0.0,0.0,0.0,0.0,0.0,0.0,0.0,0.0,0.0,0.0,0.0,0.0,0.0,0.0,0.0,0.0,0.0,0.0,0.0,0.0,0.0,0.0,0.0,0.0,0.0,0.0,0.0,0.0,0.0,0.0,0.0,0.0,0.0,0.0,0.0,0.0,0.0,0.0,0.0,0.0,0.0,0.0,0.0,0.0,0.0,0.0,0.0,0.0,0.0,0.0,0.0,0.0,0.0,0.0,0.0,0.0,0.0,0.0,0.0,0.0,0.0,0.0,0.0,0.0,0.0,0.0,0.0,0.0,0.0,0.0,0.0,0.0,0.0,0.0,0.0,0.0,0.0,0.0,0.0,0.0,0.0,0.0,0.0,0.0,0.0,0.0,0.0,0.0,0.0,0.0,0.0,0.0,0.0,0.0,0.0,0.0,0.0,0.0,0.0,0.0,0.0,0.0,0.0,0.0,0.0,0.0,0.0,0.0,0.0,0.0,0.0,0.0,0.0,0.0,0.0,0.0,0.0,0.0,0.0,0.0,0.0,0.0,0.0,0.0,0.0,0.0,0.0,0.0,0.0,0.0,0.0,0.0,0.0,0.0,0.0,0.0,0.0,0.0,0.0,0.0,0.0,0.0,0.0,0.0,0.0,0.0,0.0,0.0,0.0,0.0,0.0,0.0,0.0,0.0,0.0,0.0,0.0,0.0,0.0,0.0,0.0,0.0,0.0,0.0,0.0,0.0,0.0,0.0,0.0,0.0,0.0,0.0,0.0,0.0,0.0,0.0,0.0,0.0,0.0,0.0,0.0,0.0,0.0,0.0,0.0,0.0,0.0,0.0,0.0,0.0,0.0,0.0,0.0,0.0,0.0,0.0,0.0,0.0,0.0,0.0,0.0,0.0,0.0,0.0,0.0,0.0,0.0,0.0,0.0,0.0,0.0,0.0,0.0,0.0,0.0,0.0,0.0,0.0,0.0,0.0,0.0,0.0,0.0,0.0,0.0,0.0,0.0,0.0,0.0,0.0,0.0,0.0,0.0,0.0,0.0,0.0,0.0,0.0,0.0,0.0,0.0,0.0,0.0,0.0,0.0,0.0,0.0,0.0,0.0,0.0,0.0,0.0,0.0,0.0,0.0,0.0,0.0,0.0,0.0,0.0,0.0,0.0,0.0,0.0,0.0,0.0,0.0,0.0,0.0,0.0,0.0,0.0,0.0,0.0,0.0,0.0,0.0,0.0,0.0,0.0,0.0,0.0,0.0,0.0,0.0,0.0,0.0,0.0,0.0,0.0,0.0,0.0,0.0,0.0,0.0,0.0,0.0,0.0,0.0,0.0,0.0,0.0,0.0,0.0,0.0,0.0,0.0,0.0,0.0,0.0,0.0,0.0,0.0,0.0,0.0,0.0,0.0,0.0,0.0,0.0,0.0,0.0,0.0,0.0,0.0,0.0,0.0,0.0,0.0,0.0,0.0,0.0,0.0,0.0,0.0,0.0,0.0,0.0,0.0,0.0,0.0,0.0,0.0,0.0,0.0,0.0,0.0,0.0,0.0,0.0,0.0,0.0,0.0,0.0,0.0,0.0,0.0,0.0,0.0,0.0,0.0,0.0,0.0,0.0,0.0,0.0,0.0,0.0,0.0,0.0,0.0,0.0,0.0,0.0,0.0,0.0,0.0,0.0,0.0,0.0,0.0,0.0,0.0,0.0,0.0,0.0,0.0,0.0,0.0,0.0,0.0,0.0,0.0,0.0,0.0,0.0,0.0,0.0,0.0,0.0,0.0,0.0,0.0,0.0,0.0,0.0,0.0,0.0,0.0,0.0,0.0,0.0,0.0,0.0,0.0,0.0,0.0,0.0,0.0,0.0,0.0,0.0,0.0,0.0,0.0,0.0,0.0,0.0,0.0,0.0,0.0,0.0,0.0,0.0,0.0,0.0,0.0,0.0,0.0,0.0,0.0,0.0,0.0,0.0,0.0,0.0,0.0,0.0,0.0,0.0,0.0,0.0,0.0,0.0,0.0,0.0,0.0,0.0,0.0,0.0,0.0,0.0,0.0,0.0,0.0,0.0,0.0,0.0,0.0,0.0,0.0,0.0,0.0,0.0,0.0,0.0,0.0,0.0,0.0,0.0,0.0,0.0,0.0,0.0,0.0,0.0,0.0,0.0,0.0,0.0,0.0,0.0,0.0,0.0,0.0,0.0,0.0,0.0,0.0,0.0,0.0,0.0,0.0,0.0,0.0,0.0,0.0,0.0,0.0,0.0,0.0,0.0,0.0,0.0,0.0,0.0,0.0,0.0,0.0,0.0,0.0,0.0,0.0,0.0,0.0,0.0,0.0,0.0,0.0,0.0,0.0,0.0,0.0,0.0,0.0,0.0,0.0,0.0,0.0,0.0,0.0,0.0,0.0,0.0,0.0,0.0,0.0,0.0,0.0,0.0,0.0,0.0,0.0,0.0,0.0,0.0,0.0,0.0,0.0,0.0,0.0,0.0,0.0,0.0,0.0,0.0,0.0,0.0,0.0,0.0,0.0,0.0,0.0,0.0,0.0,0.0,0.0,0.0,0.0,0.0,0.0,0.0,0.0,0.0,0.0,0.0,0.0,0.0,0.0,0.0,0.0,0.0,0.0,0.0,0.0,0.0,0.0,0.0,0.0,0.0,0.0,0.0,0.0,0.0,0.0,0.0,0.0,0.0,0.0,0.0,0.0,0.0,0.0,0.0,0.0,0.0,0.0,0.0,0.0,0.0,0.0,0.0,0.0,0.0,0.0,0.0,0.0,0.0,0.0,0.0,0.0,0.0,0.0,0.0,0.0,0.0,0.0,0.0,0.0,0.0,0.0,0.0,0.0,0.0,0.0,0.0,0.0,0.0,0.0,0.0,0.0,0.0,0.0,0.0,0.0,0.0,0.0,0.0,0.0,0.0,0.0,0.0,0.0,0.0,0.0,0.0,0.0,0.0,0.0,0.0,0.0,0.0,0.0,0.0,0.0,0.0,0.0,0.0,0.0,0.0,0.0,0.0,0.0,0.0,0.0,0.0,0.0,0.0,0.0,0.0,0.0,0.0,0.0,0.0,0.0,0.0,0.0,0.0,0.0,0.0,0.0,0.0,0.0,0.0,0.0,0.0,0.0,0.0,0.0,0.0,0.0,0.0,0.0,0.0,0.0,0.0,0.0,0.0,0.0,0.0,0.0,0.0,0.0,0.0,0.0,0.0,0.0,0.0,0.0,0.0,0.0,0.0,0.0,0.0,0.0,0.0,0.0,0.0,0.0,0.0,0.0,0.0,0.0,0.0,0.0,0.0,0.0,0.0,0.0,0.0,0.0,0.0,0.0,0.0,0.0,0.0,0.0,0.0,0.0,0.0,0.0,0.0,0.0,0.0,0.0,0.0,0.0,0.0,0.0,0.0,0.0,0.0,0.0,0.0,0.0,0.0,0.0,0.0,0.0,0.0,0.0,0.0,0.0,0.0,0.0,0.0,0.0,0.0,0.0,0.0,0.0,0.0,0.0,0.0,0.0,0.0,0.0,0.0,0.0,0.0,0.0,0.0,0.0,0.0,0.0,0.0,0.0,0.0,0.0,0.0,0.0,0.0,0.0,0.0,0.0,0.0,0.0,0.0,0.0,0.0,0.0,0.0,0.0,0.0,0.0,0.0,0.0,0.0,0.0,0.0,0.0,0.0,0.0,0.0,0.0,0.0,0.0,0.0,0.0,0.0,0.0,0.0,0.0,0.0,0.0,0.0,0.0,0.0,0.0,0.0,0.0,0.0,0.0,0.0,0.0,0.0,0.0,0.0,0.0,0.0,0.0,0.0,0.0,0.0,0.0,0.0,0.0,0.0,0.0,0.0,0.0,0.0,0.0,0.0,0.0,0.0,0.0,0.0,0.0,0.0,0.0,0.0,0.0,0.0,0.0,0.0,0.0,0.0,0.0,0.0,0.0,0.0,0.0,0.0,0.0,0.0,0.0,0.0,0.0,0.0,0.0,0.0,0.0,0.0,0.0,0.0,0.0,0.0,0.0,0.0,0.0,0.0,0.0,0.0,0.0,0.0,0.0,0.0,0.0,0.0,0.0,0.0,0.0,0.0,0.0,0.0,0.0,0.0,0.0,0.0,0.0,0.0,0.0,0.0,0.0,0.0,0.0,0.0,0.0,0.0,0.0,0.0,0.0,0.0,0.0,0.0,0.0,0.0,0.0,0.0,0.0,0.0,0.0,0.0,0.0,0.0,0.0,0.0,0.0,0.0,0.0,0.0,0.0,0.0,0.0,0.0,0.0,0.0,0.0,0.0,0.0,0.0,0.0,0.0,0.0,0.0,0.0,0.0,0.0,0.0,0.0,0.0,0.0,0.0,0.0,0.0,0.0,0.0,0.0,0.0,0.0,0.0,0.0,0.0,0.0,0.0,0.0,0.0,0.0,0.0,0.0,0.0,0.0,0.0,0.0,0.0,0.0,0.0,0.0,0.0,0.0,0.0,0.0,0.0,0.0,0.0,0.0,0.0,0.0,0.0,0.0,0.0,0.0,0.0,0.0,0.0,0.0,0.0,0.0,0.0,0.0,0.0,0.0,0.0,0.0,0.0,0.0,0.0,0.0,0.0,0.0,0.0,0.0,0.0,0.0,0.0,0.0,0.0,0.0,0.0,0.0,0.0,0.0,0.0,0.0,0.0,0.0,0.0,0.0,0.0,0.0,-2.6387,-2.6186,0.0,0.0,0.0,0.0,0.0,0.0,0.0,0.0,0.0,0.0,0.0,0.0,0.0,0.0,0.0,0.0,0.0,0.0,0.0,0.0,0.0,0.0,0.0,-1.9114,-1.9693,-1.9798,-2.0088,-2.01,-1.9823,0.0,0.0,0.0,0.0,0.0,-2.2865,-2.3045,-2.3045,-2.2888,-2.3157,-2.3268,-2.3201,-2.3312,-2.3523,-2.3852,0.0,0.0,0.0,0.0,0.0,0.0,0.0,0.0,0.0,0.0,0.0,0.0,0.0,0.0,0.0,0.0,0.0,0.0,0.0,0.0,0.0,0.0,0.0,0.0,0.0,0.0,0.0,0.0,0.0,0.0,0.0,0.0,0.0,0.0,0.0,0.0,0.0,0.0,0.0,0.0,0.0,0.0,0.0,0.0,0.0,0.0,0.0,0.0,0.0,0.0,0.0,0.0,0.0,0.0,0.0,0.0,0.0,0.0,0.0,0.0,0.0,0.0,0.0,0.0,0.0,0.0,0.0,0.0,0.0,0.0,-2.8089,-2.7853,0.0,0.0,0.0,0.0,0.0,0.0,0.0,0.0,0.0,0.0,0.0,0.0,0.0,0.0,0.0,0.0,0.0,0.0,0.0,0.0,0.0,-1.817,-1.8694,-1.9816,-2.0352,-1.9849,-2.0264,-2.0339,-1.9836,-1.9901,0.0,0.0,0.0,-2.1969,-2.2865,-2.2925,-2.2925,-2.2888,-2.3015,-2.3135,-2.3253,-2.3135,-2.34,-2.3931,-2.4073,0.0,0.0,0.0,0.0,0.0,0.0,0.0,0.0,0.0,0.0,0.0,0.0,0.0,0.0,0.0,0.0,0.0,0.0,0.0,0.0,0.0,0.0,0.0,0.0,0.0,0.0,0.0,0.0,0.0,0.0,0.0,0.0,0.0,0.0,0.0,0.0,0.0,0.0,0.0,0.0,0.0,0.0,0.0,0.0,0.0,0.0,0.0,0.0,0.0,0.0,0.0,0.0,0.0,0.0,0.0,0.0,0.0,0.0,0.0,0.0,0.0,0.0,0.0,-3.0124,-3.0186,-3.0608,-2.9875,-2.9976,-3.0782,-2.9838,-2.9694,-3.0112,-2.9474,0.0,0.0,0.0,0.0,0.0,0.0,0.0,0.0,0.0,0.0,0.0,0.0,0.0,0.0,0.0,0.0,0.0,0.0,0.0,-1.8437,-1.8927,-1.9536,-1.9886,-1.9811,-1.9874,-1.9874,-1.9811,-2.0232,0.0,0.0,-2.1851,-2.2347,-2.2888,-2.3015,-2.3015,-2.2888,-2.2925,-2.2978,-2.3127,-2.3105,-2.3149,-2.3238,-2.3363,-2.3517,-2.3642,0.0,0.0,0.0,0.0,0.0,0.0,0.0,0.0,0.0,0.0,0.0,0.0,0.0,0.0,0.0,0.0,0.0,0.0,0.0,0.0,0.0,0.0,0.0,0.0,0.0,0.0,0.0,0.0,0.0,0.0,0.0,0.0,0.0,0.0,0.0,0.0,0.0,0.0,0.0,0.0,0.0,-2.6565,-2.7019,0.0,0.0,0.0,0.0,0.0,0.0,0.0,0.0,0.0,0.0,0.0,0.0,0.0,-3.0338,-3.076,-3.1099,-3.1395,-3.168,-3.1889,-3.2124,-3.232,-3.1563,-3.14,-3.1815,-3.1616,0.0,-3.1154,-3.0593,0.0,0.0,0.0,0.0,0.0,0.0,0.0,0.0,0.0,0.0,0.0,0.0,0.0,0.0,0.0,0.0,0.0,0.0,0.0,0.0,0.0,-1.9969,-2.0189,-1.9823,-2.01,-2.015,-1.9823,-2.0308,-2.099,-2.1882,-2.2078,-2.261,-2.3432,-2.3144,-2.297,-2.2888,-2.2888,-2.2925,-2.2992,-2.2992,-2.2992,-2.2992,-2.3045,-2.3384,-2.3843,-2.3526,0.0,0.0,0.0,0.0,0.0,0.0,0.0,0.0,0.0,0.0,0.0,0.0,0.0,0.0,0.0,0.0,0.0,0.0,0.0,0.0,0.0,0.0,0.0,0.0,0.0,0.0,0.0,0.0,0.0,0.0,0.0,0.0,0.0,0.0,0.0,0.0,0.0,0.0,0.0,-2.6253,-2.7165,-2.7682,-2.8021,-2.8084,0.0,0.0,0.0,0.0,0.0,0.0,0.0,0.0,0.0,-3.0873,-3.1173,-3.1406,-3.1543,-3.2132,-3.2363,-3.2363,-3.2395,-3.2157,-3.1657,-3.1165,-3.1177,-3.1569,-3.1503,-3.1847,-3.229,-3.1738,-3.1373,-3.1097,0.0,0.0,0.0,0.0,-3.0319,-3.0394,0.0,0.0,0.0,0.0,0.0,0.0,0.0,0.0,0.0,0.0,0.0,0.0,-1.9735,-2.0082,-2.0143,-1.9836,-2.02,-2.0289,-1.9823,-2.0308,-2.1043,-2.2031,-2.2134,-2.2653,-2.3606,-2.3157,-2.2888,-2.2888,-2.2888,-2.2888,-2.2888,-2.2888,-2.2888,-2.2888,-2.2888,-2.3277,-2.3921,-2.3628,-2.3911,0.0,0.0,0.0,0.0,0.0,0.0,0.0,0.0,0.0,0.0,0.0,0.0,0.0,0.0,0.0,0.0,0.0,0.0,0.0,0.0,0.0,0.0,0.0,0.0,0.0,0.0,0.0,0.0,0.0,0.0,0.0,0.0,0.0,0.0,0.0,0.0,0.0,0.0,-2.6992,-2.7908,-2.8473,-2.9026,-2.9101,0.0,0.0,0.0,0.0,0.0,0.0,-3.0972,-3.1022,-3.1192,-3.1618,-3.2101,-3.2272,-3.2114,-3.2696,-3.2896,-3.2711,-3.2605,-3.2189,-3.1436,-3.1169,-3.1247,-3.1589,-3.1589,-3.2108,-3.2957,-3.2604,-3.234,-3.2177,-3.1763,-3.1512,-3.1411,-3.1549,-3.1599,-3.1675,0.0,0.0,0.0,0.0,0.0,0.0,0.0,0.0,0.0,0.0,0.0,-1.9188,-1.9747,-1.9368,-1.9275,-1.9759,-1.9823,-1.9836,0.0,-2.0308,-2.0858,-2.141,-2.1926,-2.2431,-2.2946,-2.2917,-2.2888,-2.2888,-2.2888,-2.2888,-2.2888,-2.2888,-2.2888,-2.2888,-2.2888,-2.2939,-2.302,-2.3754,-2.391,-2.3699,0.0,0.0,0.0,0.0,0.0,0.0,0.0,0.0,0.0,0.0,0.0,0.0,0.0,0.0,0.0,0.0,0.0,0.0,0.0,0.0,0.0,0.0,0.0,0.0,0.0,0.0,0.0,0.0,0.0,0.0,0.0,0.0,0.0,0.0,0.0,0.0,0.0,0.0,0.0,-2.9641,-3.0193,0.0,0.0,0.0,0.0,-3.0532,-3.0984,-3.1524,-3.2102,-3.2127,-3.239,-3.2968,-3.2791,-3.2673,-3.2673,-3.2698,-3.2711,-3.2711,-3.2939,-3.3038,-3.2982,-3.2711,-3.2581,-3.2624,-3.2624,-3.2667,-3.2766,-3.2957,-3.2704,-3.2215,-3.2177,-3.1851,-3.1449,-3.1976,-3.2177,-3.2252,0.0,0.0,0.0,-1.4898,-1.5412,-1.6313,-1.7796,-1.8174,-1.8654,-1.9672,-1.963,-1.9604,-1.9773,-1.963,-1.9592,-1.9773,-1.9798,-1.9798,-1.9798,-2.0308,-2.1017,-2.195,-2.2106,-2.2417,-2.2888,-2.2888,-2.2888,-2.2888,-2.2888,-2.2888,-2.2888,-2.2888,-2.2888,-2.2888,-2.2888,-2.2888,-2.2954,-2.3676,-2.3885,-2.3839,-2.4334,-2.425,0.0,0.0,0.0,0.0,0.0,0.0,0.0,0.0,0.0,0.0,0.0,0.0,0.0,0.0,0.0,0.0,0.0,0.0,0.0,0.0,0.0,0.0,0.0,0.0,0.0,0.0,0.0,0.0,0.0,0.0,0.0,0.0,0.0,0.0,0.0,0.0,0.0,-3.0758,-3.1298,0.0,-3.0871,-3.0997,-3.126,-3.1612,-3.1813,-3.2164,-3.2742,-3.2767,-3.2867,-3.3111,-3.3025,-3.2939,-3.2939,-3.2939,-3.2939,-3.2939,-3.2896,-3.2525,-3.1865,-3.1657,-3.1613,-3.1733,-3.1733,-3.2196,-3.2939,-3.3081,-3.2955,-3.2767,-3.2767,-3.2654,-3.2503,-3.2704,-3.2767,-3.2805,-1.3611,-1.4115,0.0,-1.5161,-1.5897,-1.6907,-1.8312,-1.8694,-1.9041,-1.9709,-1.9656,-1.9604,-1.9773,-1.9656,-1.9592,-1.9773,-1.9798,-1.9798,-1.9798,-2.0308,-2.1017,-2.1963,-2.2286,-2.2578,-2.2888,-2.2888,-2.2888,-2.2888,-2.2888,-2.2888,-2.2888,-2.2888,-2.2888,-2.2888,-2.2888,-2.2888,-2.2946,-2.3824,-2.4094,-2.3963,-2.4805,-2.4752,-2.421,0.0,0.0,0.0,0.0,0.0,0.0,0.0,0.0,0.0,0.0,0.0,0.0,0.0,0.0,0.0,0.0,0.0,0.0,0.0,0.0,0.0,0.0,0.0,0.0,0.0,0.0,0.0,0.0,0.0,0.0,0.0,0.0,0.0,0.0,-2.9942,-3.0997,-3.1348,-3.2051,-3.2277,-3.1725,-3.1838,-3.2114,-3.2478,-3.2503,-3.2667,-3.3056,-3.3124,-3.3124,-3.3124,-3.3124,-3.3038,-3.2865,-3.3038,-3.3038,-3.2865,-3.2853,-3.2481,-3.1821,-3.1701,-3.1701,-3.1821,-3.1821,-3.2326,-3.3124,-3.3124,-3.3124,-3.3124,-3.3124,-3.3124,-3.3124,-3.3124,-3.3124,-3.3124,-1.3075,-1.3597,-1.4363,-1.5512,-1.6692,-1.7837,-1.8834,-1.9459,-1.9798,-1.9798,-1.9344,-1.9212,-1.9747,-1.9356,-1.9225,-1.9747,-1.9798,-1.9798,-1.9798,-2.0308,-2.0845,-2.1393,-2.2356,-2.2888,-2.2888,-2.2888,-2.2888,-2.2888,-2.2888,-2.2888,-2.2888,-2.2888,-2.2888,-2.2888,-2.2888,-2.2888,-2.2975,-2.4235,-2.4447,-2.4036,-2.5324,-2.5429,-2.4839,0.0,0.0,0.0,0.0,0.0,0.0,0.0,0.0,0.0,0.0,0.0,0.0,0.0,0.0,0.0,0.0,0.0,0.0,0.0,0.0,0.0,0.0,0.0,0.0,0.0,0.0,0.0,0.0,0.0,0.0,0.0,0.0,0.0,-2.9842,-3.0746,-3.1424,-3.1436,-3.2416,-3.2855,-3.229,-3.2754,-3.3124,-3.3124,-3.3124,-3.3124,-3.3124,-3.3124,-3.3124,-3.3124,-3.3124,-3.2865,-3.2444,-3.2865,-3.2865,-3.2388,-3.2822,-3.3038,-3.3025,-3.3025,-3.3025,-3.3025,-3.3025,-3.3025,-3.3068,-3.3068,-3.3068,-3.3124,-3.3124,-3.3124,-3.3124,-3.3124,-3.3124,-3.3124,-1.3286,-1.3847,-1.4635,-1.5665,-1.6767,-1.7836,-1.8846,-1.9453,-1.9798,-1.9798,-1.9669,-1.9656,-1.9773,-1.9682,-1.9656,-1.9798,-1.9798,-1.9798,-1.9798,-2.0308,-2.1006,-2.1945,-2.224,-2.2555,-2.2888,-2.2888,-2.2888,-2.2888,-2.2888,-2.2888,-2.2888,-2.2888,-2.2888,-2.2888,-2.2888,-2.2888,-2.2946,-2.378,-2.4312,-2.4665,-2.5981,-2.6112,-2.5531,0.0,0.0,0.0,0.0,0.0,0.0,0.0,0.0,0.0,0.0,0.0,0.0,0.0,0.0,0.0,0.0,0.0,0.0,0.0,0.0,0.0,0.0,0.0,0.0,0.0,0.0,0.0,0.0,0.0,0.0,0.0,-2.9867,-3.0947,-3.0947,-3.1549,-3.2139,-3.2566,-3.2893,-3.3018,-3.2855,-3.298,-3.3124,-3.3124,-3.3124,-3.3124,-3.3124,-3.3124,-3.3124,-3.3124,-3.3124,-3.3038,-3.2909,-3.3038,-3.2667,-3.1813,-3.1945,-3.1669,-3.0979,-3.0979,-3.0979,-3.0979,-3.0979,-3.1392,-3.1989,-3.1989,-3.2438,-3.3124,-3.3124,-3.3124,-3.3124,-3.3124,-3.3124,-3.3124,-1.329,-1.3994,-1.4836,-1.5684,-1.6873,-1.8038,-1.8855,-1.9448,-1.9798,-1.9798,-1.9798,-1.9798,-1.9798,-1.9798,-1.9798,-1.9798,-1.9798,-1.9798,-1.9798,-2.0308,-2.108,-2.2147,-2.2208,-2.2417,-2.2888,-2.2888,-2.2888,-2.2888,-2.2888,-2.2888,-2.2888,-2.2888,-2.2888,-2.2888,-2.2888,-2.2888,-2.2931,-2.3615,-2.4254,-2.4897,-2.5952,-2.6326,-2.6224,-2.6224,-2.5981,-2.5618,-2.5357,-2.5255,-2.5172,-2.4897,0.0,0.0,0.0,0.0,0.0,0.0,0.0,0.0,0.0,0.0,0.0,0.0,0.0,0.0,0.0,0.0,0.0,0.0,0.0,0.0,0.0,0.0,0.0,0.0,-3.0959,-3.1813,-3.2064,-3.2365,-3.2704,-3.3074,-3.3124,-3.3124,-3.3124,-3.3124,-3.3124,-3.3124,-3.3124,-3.3124,-3.3124,-3.3124,-3.3124,-3.3124,-3.3124,-3.3038,-3.2939,-3.3025,-3.2754,-3.2033,-3.1757,-3.1303,-3.0812,-3.0812,-3.0812,-3.08,-3.1214,-3.1713,-3.222,-3.222,-3.2581,-3.3124,0.0,0.0,0.0,0.0,-3.3124,-3.3124,-1.3369,-1.415,-1.5028,-1.5665,-1.7022,-1.8247,-1.8903,-1.9448,-1.9798,-1.9798,-1.9798,-1.9798,-1.9798,-1.9798,-1.9798,-1.9798,-1.9861,-1.995,-2.0064,-2.0347,-2.1033,-2.2236,-2.2166,-2.237,-2.2888,-2.2888,-2.2888,-2.2888,-2.2888,-2.2888,-2.2888,-2.2888,-2.2888,-2.2888,-2.2888,-2.2888,-2.2931,-2.3519,-2.4196,-2.4868,-2.5458,-2.6126,-2.6806,-2.6806,-2.6806,-2.6733,-2.6137,-2.5919,-2.5807,-2.5216,0.0,0.0,0.0,0.0,0.0,0.0,0.0,0.0,0.0,0.0,0.0,0.0,0.0,0.0,0.0,0.0,0.0,0.0,0.0,0.0,0.0,0.0,0.0,0.0,-3.1951,-3.2491,-3.3006,-3.3124,-3.3124,-3.3124,-3.3124,-3.3124,-3.3124,-3.3124,-3.3124,-3.3124,-3.3124,-3.3124,-3.3124,-3.3124,0.0,0.0,0.0,-3.3082,-3.2854,-3.3082,-3.3002,-3.2581,-3.1901,-3.1492,-3.1258,-3.1258,-3.1258,-3.1303,-3.2208,-3.2711,-3.2939,-3.2939,-3.2995,-3.3124,-3.3124,-3.3124,-3.3124,-3.3124,-3.3124,-3.3124,-1.446,-1.4738,-1.5258,-1.619,-1.7017,-1.7873,-1.885,-1.9448,-1.9798,-1.9798,-1.9798,-1.9798,-1.9798,-1.9798,-1.9798,-1.9798,-2.0251,-2.0904,0.0,0.0,-2.0831,-2.2766,-2.2018,-2.1992,-2.2865,-2.2888,-2.2888,-2.2888,-2.2888,-2.2888,-2.2888,-2.2888,-2.2888,-2.2888,-2.2888,-2.2888,-2.2902,-2.3055,-2.378,-2.4892,-2.4955,-2.5734,-2.6806,-2.6806,-2.6806,-2.6791,-2.6634,-2.6617,-2.6602,-2.6445,-2.6126,-2.5789,-2.5647,0.0,0.0,0.0,0.0,0.0,0.0,0.0,0.0,0.0,0.0,0.0,0.0,0.0,0.0,0.0,0.0,0.0,0.0,0.0,0.0,-3.1926,-3.2541,-3.2955,-3.3056,-3.3124,-3.3124,-3.3124,-3.3124,-3.3124,-3.3124,-3.3124,-3.3124,-3.3124,-3.3124,-3.3124,-3.3124,-3.3124,-3.3282,-3.3721,-3.3746,-3.3746,-3.3646,-3.3746,-3.3102,-3.1813,-3.1669,0.0,-2.9268,-2.9268,-2.9268,-2.9268,-2.9452,-3.0453,-3.1901,-3.1901,-3.2351,-3.3124,-3.3124,-3.3124,-3.3124,-3.3124,-3.3124,-3.3124,-1.5529,-1.5477,-1.5599,-1.6374,-1.7182,-1.8019,-1.8871,-1.9448,-1.9798,-1.9798,-1.9798,-1.9798,-1.9798,-1.9798,-1.9798,-1.9798,-2.0352,0.0,0.0,-2.0738,-2.0836,-2.2138,-2.1694,-2.1766,-2.2532,-2.2775,-2.2888,-2.2888,-2.2888,-2.2888,-2.2888,-2.2888,-2.2888,-2.2888,-2.2888,-2.2888,-2.2917,-2.3258,-2.3954,-2.4892,-2.5183,-2.5894,-2.6806,-2.6806,-2.6806,-2.6806,-2.6806,-2.6806,-2.6806,-2.6806,-2.6614,-2.6389,-2.6389,-2.6711,-2.7004,0.0,0.0,0.0,0.0,0.0,0.0,0.0,0.0,0.0,0.0,0.0,0.0,0.0,0.0,-2.9903,-3.0495,0.0,-3.1989,-3.2554,-3.288,-3.3124,-3.3124,-3.3124,-3.3124,-3.3124,-3.3124,-3.3124,-3.3124,-3.3124,-3.3124,-3.3124,-3.3332,-3.3483,-3.3483,-3.3746,-3.4022,-3.4299,-3.4311,-3.4311,-3.4311,-3.4035,-3.3526,-3.2744,-3.1978,-3.108,-3.0125,-3.0125,-3.0125,-3.017,-3.0666,-3.1436,-3.2351,-3.2351,-3.2667,-3.3124,-3.3124,-3.3124,-3.3124,-3.3124,-3.3124,-3.3124,-1.6312,-1.6112,-1.6035,-1.6709,-1.7533,-1.8336,-1.9054,-1.9526,-1.9798,-1.9798,-1.9798,-1.9798,-1.9798,-1.9798,-1.9849,0.0,0.0,0.0,0.0,-2.0918,-2.1099,-2.1681,-2.1609,-2.1794,-2.2324,-2.2706,-2.2888,-2.2888,-2.2888,-2.2888,-2.2888,-2.3018,-2.3076,-2.3113,-2.3207,-2.3264,-2.3293,-2.3862,-2.4442,-2.5091,-2.5625,-2.6261,-2.6884,-2.6884,-2.6858,-2.6806,-2.6806,-2.6806,-2.6806,-2.6832,-2.6925,-2.7003,-2.7029,-2.7674,-2.8355,-2.8062,-2.8603,0.0,0.0,0.0,0.0,0.0,0.0,0.0,0.0,-2.8871,-2.9299,-2.9783,-3.0552,-3.1263,-3.1637,-3.2077,-3.2528,-3.3006,-3.3124,-3.3124,-3.3124,-3.3124,-3.3124,-3.3124,-3.3124,-3.3124,-3.3124,-3.3124,-3.3162,-3.3275,-3.3646,-3.3947,-3.406,-3.4487,-3.4731,-3.4831,-3.4876,-3.4876,-3.4876,-3.4449,-3.411,-3.3897,-3.2619,-3.191,-3.1581,-3.1581,-3.1581,-3.1669,-3.2667,-3.3124,-3.3124,-3.3124,-3.3124,-3.3124,-3.3124,-3.3124,-3.3124,-3.3124,-3.3124,-3.3124,-1.6335,-1.6361,-1.6648,-1.7741,-1.8031,-1.8471,-1.954,-1.9747,-1.9798,-1.9798,-1.9798,-1.9798,-1.9798,-1.9798,-2.0012,-2.0553,0.0,0.0,-2.2071,-2.1669,-2.1836,-2.2789,-2.2366,-2.2329,-2.2812,-2.2865,-2.2888,-2.2888,-2.2888,-2.2888,-2.2902,-2.3514,-2.3789,-2.3804,-2.4346,-2.4607,-2.4607,-2.4679,-2.5145,-2.5867,-2.594,-2.644,-2.7155,-2.7155,-2.7015,-2.6806,-2.6806,-2.6806,-2.6806,-2.6951,-2.6977,-2.7029,-2.713,-2.8127,-2.9124,-2.8397,-2.9119,-3.0047,-2.9495,-2.8886,-2.8484,-2.8866,-2.9004,-2.9389,0.0,-3.1539,-3.2001,-3.2202,-3.2688,-3.306,-3.291,-3.2943,-3.3006,-3.3111,-3.3124,-3.3124,-3.3124,-3.3124,-3.3124,-3.3124,-3.3124,-3.3124,-3.3124,-3.3124,-3.3282,-3.3771,-3.3872,-3.411,-3.4613,-3.4688,-3.4906,-3.5395,-3.5408,-3.5408,-3.5408,-3.5345,-3.4818,-3.3897,-3.3746,-3.2906,-3.1581,-3.1581,-3.1581,-3.1669,-3.2667,-3.3124,-3.3124,-3.3124,-3.3124,-3.3124,-3.3124,-3.3124,-3.3124,-3.3124,-3.3124,-3.3124,-1.6374,-1.6413,-1.6648,-1.7435,-1.7875,-1.8363,-1.9212,-1.9604,-1.9798,-1.9798,-1.9798,-1.9798,-1.9798,-1.9798,-2.0037,-2.0641,-2.0993,-2.1481,-2.2259,-2.2096,-2.2144,-2.2568,-2.2711,-2.2864,-2.308,-2.3703,-2.4027,-2.4056,-2.4027,-2.4003,-2.4003,-2.4341,-2.4457,-2.4418,-2.4694,-2.4824,-2.4892,-2.5241,-2.5621,-2.6038,-2.6342,-2.6751,-2.7181,-2.7119,-2.7015,-2.6925,-2.6925,-2.6925,0.0,0.0,-2.7041,-2.7144,-2.7258,-2.8066,-2.8919,-2.8874,-2.9597,-3.0284,-2.9638,-2.9431,-2.9374,-2.9324,-2.9712,-3.0461,-3.1746,-3.2212,-3.2518,-3.2991,-3.3233,-3.3356,-3.3154,-3.3124,-3.3124,-3.3124,-3.3124,-3.3124,-3.3124,-3.3124,-3.3124,-3.3124,-3.3124,-3.3124,-3.3124,-3.3124,-3.3307,-3.3859,-3.4198,-3.4613,-3.5132,-3.5504,-3.578,-3.6006,-3.6019,-3.6019,-3.6019,-3.5658,-3.5107,-3.4374,-3.406,-3.3377,-3.2481,-3.2481,-3.2481,-3.2481,-3.2939,-3.3124,-3.3124,-3.3124,-3.3124,-3.3124,-3.3124,-3.3124,-3.3124,-3.3124,-3.3124,-3.3124,-1.6413,-1.6413,-1.6506,-1.6916,-1.7462,-1.812,-1.8881,-1.9317,-1.963,-1.9773,-1.9798,-1.9798,-1.9798,-1.9798,-2.0037,-2.0641,-2.1194,-2.1719,-2.2243,-2.2447,-2.2576,-2.2757,-2.3176,-2.3481,-2.3628,-2.4401,-2.4824,-2.4878,-2.4824,-2.481,-2.481,-2.5038,-2.5125,-2.5085,-2.5448,-2.5622,-2.5705,-2.6355,-2.6669,-2.6842,-2.7219,-2.7515,-2.7682,-2.7404,-2.7305,-2.729,-2.7062,-2.6977,0.0,0.0,-2.7119,-2.7233,-2.7386,-2.7976,-2.87,-2.9235,-2.9911,-3.0366,-2.97,-2.9646,-2.9743,-2.9399,-3.004,-3.1033,-3.2006,-3.2473,-3.2859,-3.3257,-3.3411,-3.3441,-3.324,-3.3154,-3.3124,-3.3124,-3.3124,-3.3124,-3.3124,-3.3124,-3.3124,-3.3124,-3.3124,-3.3124,-3.3124,-3.3124,-3.337,-3.4073,-3.45,-3.4981,-3.573,-3.6144,-3.6405,-3.6405,-3.6405,-3.6405,-3.6405,-3.5968,-3.5416,-3.4713,-3.4324,-3.3759,-3.3124,-3.3124,-3.3124,-3.3124,-3.3124,-3.3124,-3.3124,-3.3124,-3.3124,-3.3124,-3.3124,-3.3124,-3.3124,-3.3124,-3.3124,-3.3124,-1.6413,-1.6413,-1.6413,-1.6431,-1.687,-1.7617,-1.8827,-1.9013,-1.9225,-1.9721,-1.9798,-1.9798,-1.9798,-1.9798,-2.0037,-2.0641,-2.1194,-2.1719,-2.2243,-2.2782,-2.335,-2.3932,-2.3974,-2.4223,-2.4751,-2.4785,-2.481,-2.481,-2.481,-2.481,-2.4824,-2.5473,-2.5763,-2.5807,-2.7057,-2.7608,-2.7666,-2.8318,-2.8678,-2.8804,-2.8819,-2.893,-2.898,-2.8319,-2.8083,-2.7968,-2.7249,0.0,0.0,0.0,-2.7207,-2.7258,-2.7524,-2.8053,0.0,-2.9385,-3.0025,-3.033,-2.969,-2.9454,-2.9403,-2.9342,-3.0137,-3.1143,-3.1693,-3.2711,-3.3493,-3.326,-3.3479,-3.3641,-3.3441,-3.324,-3.3124,-3.3124,-3.3124,-3.3124,-3.3124,-3.3124,-3.3124,-3.3124,-3.3124,-3.3124,-3.3124,-3.3124,-3.3533,-3.4613,-3.4668,-3.519,-3.6329,-3.6405,-3.6405,-3.6405,-3.6405,-3.6405,-3.6405,-3.6392,-3.5793,-3.468,-3.4655,-3.4123,-3.3124,-3.3124,-3.3124,-3.3124,-3.3124,-3.3124,-3.3124,-3.3124,-3.3124,-3.3124,-3.3124,-3.3124,-3.3124,-3.3124,-3.3124,-3.3124,-1.6413,-1.6413,-1.6413,-1.6413,-1.6563,-1.6937,-1.7683,-1.8483,-1.9198,-1.9721,-1.9798,0.0,0.0,0.0,0.0,0.0,-2.1194,-2.1719,-2.2243,-2.2794,-2.3199,-2.3396,-2.4203,-2.4764,-2.4939,-2.6124,-2.6724,-2.6724,-2.7171,-2.7389,-2.7389,-2.7634,-2.7735,-2.775,-2.8158,-2.8361,-2.8376,-2.8607,-2.9083,-2.966,-2.9107,-2.9348,-2.9937,-2.9079,-2.8508,-2.811,0.0,0.0,0.0,-2.713,-2.7207,-2.7258,-2.7524,0.0,0.0,-2.8727,-2.9054,-2.9112,-2.89,-2.8784,-2.8826,-2.9201,-2.9862,-3.0636,-3.1588,-3.2111,-3.2463,-3.264,-3.2671,-3.2669,-3.2777,-3.263,-3.2629,-3.3018,-3.3124,-3.3124,-3.3124,-3.3124,-3.3124,-3.3124,-3.3124,-3.3124,-3.3124,-3.3124,-3.3533,-3.4638,-3.468,-3.5203,-3.6355,-3.6405,-3.6405,-3.6405,-3.6405,-3.6405,-3.6405,-3.6405,-3.5994,-3.5207,-3.4525,-3.3796,-3.3124,-3.3124,-3.3124,-3.3124,-3.3124,-3.3124,-3.3124,-3.3124,-3.3124,-3.3124,-3.3124,-3.3124,-3.3124,-3.3124,-3.3124,-3.3124,-1.6413,-1.6413,-1.6413,-1.6413,-1.6413,0.0,0.0,0.0,0.0,0.0,0.0,0.0,0.0,0.0,0.0,0.0,0.0,-2.1719,-2.2243,-2.2828,-2.3313,-2.3754,-2.4766,-2.5439,-2.5701,-2.6861,-2.7559,-2.7763,-2.8212,-2.8504,-2.8709,-2.8709,-2.8709,-2.8723,-2.8927,-2.9015,-2.9029,-2.929,-2.9725,-3.0235,-2.9739,-2.9927,-3.045,-2.9603,-2.9034,0.0,0.0,0.0,0.0,-2.7239,-2.7155,-2.7233,-2.7463,0.0,0.0,-2.8816,-2.8913,-2.8853,-2.8853,-2.8622,-2.8499,-2.8869,-2.9549,-3.0283,-3.1027,-3.151,-3.1863,-3.2123,-3.2211,-3.2292,-3.2597,-3.2436,-3.2487,-3.3023,-3.3124,-3.3124,-3.3124,-3.3124,-3.3156,-3.3345,-3.337,-3.3445,-3.3646,-3.3658,-3.396,-3.4675,-3.4856,-3.5416,-3.6355,-3.6405,-3.6405,-3.6405,-3.6405,-3.6405,-3.6405,-3.6405,-3.5994,-3.5194,-3.4336,-3.3608,-3.3124,-3.3124,-3.3124,-3.3124,-3.3124,-3.3124,-3.3124,-3.3124,-3.3124,-3.3124,-3.3124,-3.3124,-3.3124,-3.3124,-3.3124,-3.3124,-1.6413,-1.6413,-1.6413,0.0,0.0,0.0,0.0,0.0,0.0,0.0,0.0,0.0,0.0,0.0,0.0,0.0,0.0,0.0,-2.2284,-2.2899,0.0,-2.4895,-2.5564,-2.6233,-2.6925,-2.7036,-2.7384,-2.7954,-2.8027,-2.8323,-2.8811,-2.8811,-2.8796,-2.8825,-2.9406,-2.9639,-2.9682,-3.0321,-3.0627,-3.0656,-3.0612,-3.0627,-3.0613,-2.9914,0.0,0.0,0.0,0.0,0.0,-2.7462,-2.7195,-2.7321,-2.7439,-2.8457,-2.9579,-2.9552,-2.9493,-2.9431,-2.94,-2.888,-2.8381,-2.8407,-2.9248,-3.0061,-3.0087,-3.0962,-3.1758,-3.1758,-3.2032,-3.2404,-3.2764,-3.2619,-3.26,-3.3023,-3.3124,-3.3124,-3.3124,-3.3124,-3.3269,-3.3796,-3.3884,-3.411,-3.4625,-3.4726,-3.4718,-3.4718,-3.5207,-3.578,-3.638,-3.6405,-3.6405,-3.6405,-3.6405,-3.6405,-3.6405,-3.6405,-3.5805,-3.4668,-3.4198,-3.3633,-3.3124,-3.3124,-3.3124,-3.3124,-3.3124,-3.3124,-3.3124,-3.3124,-3.3124,-3.3124,-3.3124,-3.3124,-3.3124,-3.3124,-3.3124,-3.3124,0.0,0.0,0.0,0.0,0.0,0.0,0.0,0.0,0.0,0.0,0.0,0.0,0.0,0.0,0.0,0.0,0.0,0.0,-2.2297,-2.3286,0.0,0.0,0.0,-2.5975,-2.6179,-2.7652,0.0,0.0,0.0,-3.0265,-3.025,-3.025,-3.0207,-3.0118,-3.0292,-3.0335,-3.0365,-3.0539,-3.0949,-3.1464,0.0,-3.1099,-3.1557,0.0,0.0,0.0,0.0,0.0,0.0,-2.8484,-2.849,-2.8611,-2.868,-2.8983,-2.9277,-2.8777,-2.8697,-2.8677,-2.8212,-2.7897,-2.785,-2.8281,-2.8948,-2.9614,-3.0009,-3.0649,-3.1196,-3.1196,-3.1174,-3.1358,-3.2085,-3.2034,-3.2146,-3.296,-3.3124,-3.3124,-3.3124,-3.3124,-3.3174,-3.3269,-3.3658,-3.396,-3.4098,-3.4806,-3.5295,-3.5295,-3.542,-3.578,-3.638,-3.6405,-3.6405,-3.6405,-3.6405,-3.6405,-3.6405,-3.6405,-3.5805,-3.468,-3.4575,-3.401,-3.3124,-3.3124,-3.3124,-3.3124,-3.3124,-3.3124,-3.3124,-3.3124,-3.3124,-3.3124,-3.3124,-3.3124,-3.3124,-3.3124,-3.3124,-3.3124,0.0,0.0,0.0,0.0,0.0,0.0,0.0,0.0,0.0,0.0,0.0,0.0,0.0,0.0,0.0,0.0,0.0,0.0,0.0,-2.3183,0.0,0.0,0.0,-2.6177,-2.6539,-2.7939,-2.867,0.0,0.0,0.0,0.0,-3.0441,-3.0353,-3.0265,-2.9929,-2.9929,-3.0161,-3.0161,0.0,0.0,0.0,0.0,0.0,0.0,0.0,0.0,0.0,0.0,0.0,0.0,0.0,-2.8974,-2.8749,-2.8967,-2.9157,-2.8496,-2.84,-2.8426,-2.8107,-2.7754,-2.7568,-2.7928,-2.8647,-2.9366,-2.9693,-3.0398,-3.0986,-3.0986,-3.1044,-3.1177,-3.156,-3.1856,-3.2183,-3.2634,-3.3106,-3.3432,-3.3432,-3.3646,-3.3884,-3.4135,-3.4437,-3.4713,-3.4951,-3.5542,-3.5893,-3.5893,-3.5893,-3.6031,-3.6392,-3.6405,-3.6405,-3.6405,-3.6405,-3.6405,-3.6405,-3.6405,-3.5931,-3.5044,-3.4793,-3.4274,-3.3432,-3.3224,-3.3124,-3.3124,-3.3124,-3.3124,-3.3124,-3.3124,-3.3124,-3.3124,-3.3124,-3.3124,-3.3124,-3.3124,-3.3124,-3.3124,0.0,0.0,0.0,0.0,0.0,0.0,0.0,0.0,0.0,-1.9371,-2.0168,-2.0673,0.0,0.0,0.0,0.0,0.0,0.0,0.0,0.0,0.0,0.0,0.0,-2.6484,-2.7325,-2.804,-2.8378,0.0,0.0,0.0,0.0,0.0,0.0,0.0,0.0,0.0,0.0,0.0,0.0,0.0,0.0,0.0,0.0,0.0,0.0,0.0,0.0,0.0,0.0,0.0,-2.9856,-2.9,-2.8469,-2.871,-2.9092,-2.8444,-2.8333,-2.8449,-2.8352,-2.7941,-2.749,-2.749,-2.8347,-2.9218,-2.9297,-3.0098,-3.0895,-3.0936,-3.1201,-3.1358,-3.1291,-3.1881,-3.2386,-3.2344,-3.3156,-3.3822,-3.3884,-3.4311,-3.4768,-3.532,-3.5458,-3.5683,-3.6207,-3.6367,-3.6405,-3.6405,-3.6405,-3.6405,-3.6405,-3.6405,-3.6405,-3.6405,-3.6405,-3.6405,-3.6405,-3.6405,-3.6094,-3.5495,-3.4944,-3.4437,-3.3884,-3.3332,-3.3124,-3.3124,-3.3124,-3.3124,-3.3124,-3.3124,-3.3124,-3.3124,-3.3124,-3.3124,-3.3124,-3.3124,-3.3124,-3.3124,0.0,0.0,0.0,0.0,0.0,0.0,0.0,0.0,0.0,0.0,-1.9296,-2.048,0.0,0.0,0.0,0.0,0.0,0.0,0.0,0.0,0.0,0.0,0.0,-2.6404,-2.7055,-2.7935,-2.8393,0.0,0.0,0.0,0.0,0.0,0.0,0.0,0.0,0.0,0.0,0.0,0.0,0.0,0.0,0.0,0.0,0.0,0.0,0.0,0.0,0.0,0.0,0.0,-2.9976,-3.0131,-2.9515,-2.9139,-2.8766,-2.8061,-2.8109,-2.8189,-2.7656,-2.749,-2.749,-2.749,-2.8033,-2.8708,-2.9205,-2.9797,-3.0338,-3.067,-3.0813,-3.101,-3.15,-3.1749,-3.207,-3.2822,-3.3093,-3.3382,-3.3834,-3.3985,-3.4248,-3.4756,-3.5219,-3.5533,-3.5633,-3.6094,-3.6405,-3.6405,-3.6405,-3.6405,-3.6405,-3.6405,-3.6405,-3.6405,-3.6405,-3.6405,-3.6405,-3.6405,-3.6094,-3.5495,-3.4944,-3.4437,-3.3884,-3.3332,-3.3124,-3.3124,-3.3124,-3.3124,-3.3124,-3.3124,-3.3124,-3.3124,-3.3124,-3.3124,-3.3124,-3.3124,-3.3124,-3.3124,0.0,0.0,0.0,0.0,0.0,0.0,0.0,0.0,-1.7183,-1.8264,-1.889,-1.9802,-2.1268,-2.218,0.0,0.0,0.0,0.0,0.0,0.0,0.0,0.0,0.0,-2.566,-2.6724,-2.7775,-2.8355,-2.8513,0.0,0.0,0.0,0.0,0.0,0.0,0.0,0.0,0.0,0.0,0.0,0.0,0.0,0.0,0.0,0.0,0.0,0.0,0.0,0.0,0.0,0.0,-2.9778,-2.9812,-2.8806,-2.8403,-2.8124,-2.7443,-2.7423,-2.759,-2.7369,-2.7268,-2.738,-2.7868,-2.8274,-2.8662,-2.9054,-2.9723,-3.0233,-3.0095,-3.0458,-3.0918,-3.1204,-3.1653,-3.2097,-3.2583,-3.3119,-3.3696,-3.4248,-3.4575,-3.4964,-3.5504,-3.5805,-3.5968,-3.5968,-3.6207,-3.6405,-3.6405,-3.6405,-3.6405,-3.6405,-3.6405,-3.6405,-3.6405,-3.6405,-3.6405,-3.6405,-3.6405,-3.6267,-3.5968,-3.5127,-3.4587,-3.4299,-3.3458,-3.3124,-3.3124,-3.3124,-3.3124,-3.3124,-3.3124,-3.3124,-3.3124,-3.3124,-3.3124,-3.3124,-3.3124,-3.3124,-3.3124,0.0,0.0,0.0,0.0,0.0,0.0,0.0,-1.6413,-1.6856,-1.8154,-1.8548,-1.9186,-2.041,-2.1949,-2.2884,0.0,0.0,0.0,0.0,0.0,0.0,0.0,0.0,0.0,0.0,0.0,0.0,-2.8696,-2.9461,0.0,0.0,0.0,0.0,0.0,-2.7268,0.0,0.0,0.0,0.0,0.0,0.0,0.0,0.0,0.0,0.0,0.0,0.0,0.0,0.0,0.0,-2.9343,-2.8845,-2.7661,-2.7488,-2.7559,-2.6994,-2.6985,-2.7169,-2.7327,-2.7169,-2.7207,-2.807,-2.8376,-2.8597,-2.9021,-2.9696,-3.0099,-2.9704,-3.0241,-3.0811,-3.096,-3.1584,-3.2114,-3.2353,-3.3144,-3.396,-3.4625,-3.5044,-3.5617,-3.6329,-3.6405,-3.6405,-3.6405,-3.6405,-3.6405,-3.6405,-3.6304,-3.6194,-3.6194,-3.6194,-3.6132,-3.6065,-3.6053,-3.5975,-3.5886,-3.5886,-3.5792,-3.553,-3.4521,-3.4094,-3.4172,-3.3202,-3.2896,-3.3124,-3.3124,-3.3124,-3.3124,-3.3124,-3.3124,-3.3124,-3.3124,-3.3124,-3.3124,-3.3124,-3.3124,-3.3124,0.0,0.0,0.0,0.0,0.0,0.0,0.0,-1.6413,-1.6578,-1.7095,-1.8064,-1.914,-2.03,-2.149,-2.2206,0.0,0.0,0.0,0.0,0.0,0.0,0.0,0.0,0.0,0.0,0.0,0.0,-2.9037,-2.9018,0.0,0.0,0.0,0.0,0.0,0.0,-2.7345,-2.6866,0.0,0.0,0.0,0.0,0.0,0.0,0.0,0.0,0.0,0.0,0.0,0.0,0.0,0.0,-2.7549,-2.6829,-2.6943,-2.7347,-2.7276,-2.7394,-2.7548,-2.7583,-2.7271,-2.7152,-2.7712,-2.7879,-2.8164,-2.9215,-2.9535,-2.9666,-2.9986,-3.0126,-3.0417,-3.1216,-3.1439,-3.18,-3.283,-3.3124,-3.352,-3.4575,-3.4718,-3.519,-3.6279,-3.6405,-3.6405,-3.6405,-3.6405,-3.6405,-3.6405,-3.5893,-3.5571,-3.5571,-3.5571,-3.5345,-3.4889,-3.4876,-3.4631,-3.4208,-3.4208,-3.3768,-3.2841,-3.2284,-3.2183,-3.2611,-3.2011,-3.2264,-3.3124,-3.3124,-3.3124,-3.3124,-3.3124,-3.3124,-3.3124,-3.3124,-3.3124,-3.3124,-3.3124,-3.3124,-3.3124,0.0,0.0,0.0,0.0,0.0,0.0,0.0,-1.6413,-1.6643,-1.7337,-1.782,-1.8632,-2.0074,-2.0986,-2.1803,0.0,0.0,0.0,0.0,0.0,0.0,0.0,0.0,0.0,0.0,0.0,-2.7227,-2.9045,-2.8813,0.0,0.0,0.0,0.0,0.0,0.0,-2.7565,-2.7345,0.0,0.0,0.0,0.0,0.0,0.0,0.0,0.0,0.0,0.0,0.0,-3.0299,-2.9181,0.0,0.0,-2.6714,-2.6876,0.0,0.0,-2.7364,-2.7511,-2.7959,-2.7883,-2.7832,-2.863,-2.8626,-2.8594,-2.9198,-2.9504,-2.9606,-2.9404,-2.9656,-3.0223,-3.1238,-3.1386,-3.1763,-3.2893,-3.3124,-3.3345,-3.4123,-3.4512,-3.5014,-3.578,-3.6157,-3.6405,-3.6405,-3.6405,-3.6267,-3.5893,-3.5621,-3.5207,-3.4587,-3.4818,-3.4906,-3.4726,-3.468,-3.4346,-3.3606,-3.3559,-3.3078,-3.2068,-3.1514,-3.1391,-3.1539,-3.099,-3.0991,-3.1392,-3.1945,-3.222,-3.2264,-3.2853,-3.3124,-3.3124,-3.3124,-3.3124,-3.3124,-3.3124,-3.3124,-3.3124,0.0,0.0,0.0,0.0,0.0,-1.6413,-1.6413,-1.6413,-1.6705,-1.7585,-1.7699,-1.8323,-1.9933,-2.065,-2.1577,-2.2936,0.0,0.0,0.0,0.0,0.0,0.0,0.0,0.0,0.0,0.0,-2.7099,-2.9188,-2.8991,-2.9307,0.0,0.0,-2.9174,-2.8927,0.0,0.0,0.0,0.0,0.0,0.0,0.0,0.0,0.0,0.0,0.0,0.0,0.0,0.0,0.0,0.0,0.0,0.0,0.0,0.0,0.0,0.0,-2.7532,-2.7645,-2.805,-2.8112,-2.8235,-2.8812,-2.8712,-2.8686,-2.924,-2.9401,-2.9383,-2.9188,-2.9641,-3.0319,-3.1223,-3.1524,-3.1951,0.0,-3.3124,-3.3269,-3.3822,-3.4374,-3.4881,-3.5433,-3.5893,-3.6182,-3.6392,-3.6267,-3.5893,-3.5295,-3.5107,-3.465,-3.3709,-3.4022,-3.4236,-3.4236,-3.3956,-3.3374,-3.2566,-3.23,-3.1633,-3.0636,-3.0242,-3.0195,-3.0317,-2.9919,-2.9897,-3.026,-3.0902,-3.1169,-3.1258,-3.2264,-3.2667,-3.2711,-3.2982,-3.3124,-3.3124,-3.3124,-3.3124,-3.3124,0.0,0.0,0.0,0.0,0.0,0.0,0.0,-1.6413,-1.6705,-1.7585,-1.7699,-1.8323,-1.9933,-2.0533,-2.1419,-2.2855,0.0,0.0,0.0,0.0,0.0,0.0,0.0,0.0,0.0,0.0,-2.7623,-2.9577,-2.9577,-2.9931,-3.0598,-3.0583,-3.0219,-2.9552,0.0,0.0,0.0,0.0,0.0,0.0,0.0,0.0,0.0,0.0,0.0,0.0,0.0,0.0,0.0,0.0,0.0,0.0,0.0,-2.6499,-2.6713,0.0,-2.8097,-2.8026,-2.7692,-2.7852,-2.8038,-2.7704,-2.7633,-2.7982,-2.9448,-2.9118,-2.8752,-2.9611,-3.0218,-3.0771,-3.1298,-3.1838,-3.239,-3.298,-3.3124,-3.3269,-3.3822,-3.4374,-3.4881,-3.5433,-3.5508,-3.5768,-3.6355,-3.5868,-3.5282,-3.4731,-3.4223,-3.3671,-3.3162,-3.3093,-3.3136,-3.3136,-3.2145,-3.1374,-3.0858,-2.9908,-2.893,-2.7935,-2.7924,-2.8205,-2.8735,-2.8724,-2.9268,-3.0215,-3.0215,-3.0215,-3.0306,-3.1214,-3.1625,-3.1713,-3.2711,-3.3124,-3.3124,-3.3124,-3.3124,-3.3124,0.0,0.0,0.0,0.0,0.0,0.0,0.0,-1.6413,-1.6705,-1.7585,-1.7699,-1.8323,-1.9933,-2.05,-2.1554,-2.337,0.0,0.0,0.0,0.0,0.0,0.0,0.0,0.0,0.0,-2.567,-2.668,-2.8163,-2.8634,-2.9219,-2.9931,-3.0387,-3.0496,-3.0248,-2.961,-2.9218,0.0,0.0,0.0,0.0,0.0,0.0,0.0,0.0,0.0,0.0,0.0,0.0,0.0,0.0,0.0,0.0,0.0,0.0,0.0,-2.6517,-2.6968,-2.7357,-2.8035,-2.783,-2.7392,-2.7265,-2.7272,-2.7387,-2.7844,-2.773,-2.7597,-2.7891,-2.8883,-2.9874,-3.0399,-3.1452,-3.2403,-3.298,-3.3395,0.0,-3.3872,-3.47,-3.5307,-3.547,-3.5868,-3.6031,-3.583,-3.5596,-3.5119,-3.4223,-3.3997,-3.3658,-3.3106,-3.2438,-3.2077,-3.2077,-3.1769,-3.0883,-2.9398,-2.9083,-2.8447,-2.7469,-2.7469,-2.7577,-2.7762,-2.7762,-2.7904,-2.8258,-2.8899,-2.9176,-2.9268,-3.0215,-3.1036,-3.1625,-3.1945,-3.2481,-3.3124,-3.3124,-3.3124,-3.3124,0.0,0.0,0.0,0.0,0.0,0.0,0.0,-1.6413,-1.6705,-1.7585,-1.7699,-1.8228,-1.9575,-2.0259,-2.1279,-2.2841,0.0,0.0,0.0,0.0,0.0,0.0,0.0,0.0,-2.5109,-2.5649,-2.6447,-2.7517,-2.792,-2.8505,-2.9188,-2.9901,-3.0221,-3.0192,-2.9782,-2.9595,0.0,0.0,0.0,0.0,0.0,0.0,-3.1031,0.0,0.0,0.0,0.0,0.0,0.0,0.0,0.0,0.0,0.0,0.0,0.0,0.0,-2.5669,-2.5872,-2.6946,-2.7163,-2.7017,-2.6689,-2.6607,-2.6689,-2.7028,-2.6864,-2.6689,-2.7028,-2.8157,-2.9171,-2.9503,-3.0883,-3.2117,-3.2476,-3.3053,-3.3527,-3.3727,-3.454,-3.5178,-3.5483,-3.5843,-3.583,-3.5245,-3.5006,-3.4638,-3.3947,-3.3376,-3.2896,-3.255,-3.1625,-3.0902,-3.0531,-3.0498,-2.9897,-2.8724,-2.8362,-2.7857,-2.7309,-2.7309,-2.7262,-2.7177,-2.7262,-2.7262,-2.7177,-2.7857,-2.8175,0.0,-2.9222,-2.9988,-3.0588,-3.1315,-3.1989,-3.2581,-3.2939,-3.3124,-3.3124,0.0,0.0,0.0,0.0,0.0,0.0,0.0,0.0,0.0,-1.7585,-1.7699,-1.805,-1.9005,-1.9882,-2.074,0.0,0.0,0.0,0.0,0.0,0.0,0.0,0.0,0.0,-2.5586,-2.6197,-2.6816,-2.7417,-2.7484,-2.7835,-2.8427,-2.9188,-2.9515,-2.9532,-2.9588,-2.9595,0.0,0.0,0.0,0.0,-3.0018,-2.9894,0.0,0.0,0.0,0.0,0.0,0.0,0.0,0.0,0.0,0.0,0.0,0.0,0.0,0.0,0.0,0.0,0.0,-2.5947,-2.6685,-2.5859,-2.5683,-2.5902,-2.6741,-2.6287,0.0,-2.6741,-2.7828,-2.8611,-2.8686,-3.0284,-3.1581,-3.1669,-3.2257,-3.2903,-3.3412,-3.4028,-3.4666,-3.5382,-3.5445,-3.5232,-3.4668,-3.4109,-3.3784,-3.3746,-3.2357,-3.1492,-3.1492,-3.0621,-2.9669,-2.8724,-2.8631,-2.8585,-2.8585,-2.7715,-2.7309,-2.7309,-2.7309,-2.7177,-2.69,-2.7177,-2.7129,-2.69,-2.7167,-2.7262,-2.7357,-2.8222,-2.8631,-2.8899,-3.0767,-3.1536,-3.1713,-3.2711,-3.3124,-3.3124,0.0,0.0,0.0,0.0,0.0,0.0,0.0,0.0,0.0,0.0,-1.7699,-1.805,-1.9005,-1.9882,-2.074,0.0,0.0,0.0,0.0,0.0,0.0,0.0,0.0,0.0,-2.5598,-2.6197,-2.6589,-2.6748,-2.7263,-2.7571,-2.7769,-2.8441,-2.8762,-2.878,-2.9361,-2.9596,0.0,0.0,0.0,0.0,-2.9105,-2.9164,0.0,0.0,0.0,0.0,-2.6905,-2.6624,0.0,0.0,0.0,0.0,0.0,0.0,0.0,0.0,-2.315,-2.2919,-2.3496,0.0,-2.4596,-2.4388,-2.4567,-2.4861,0.0,-2.4946,-2.4861,-2.5073,-2.6433,-2.7863,-2.8643,-3.0185,-3.1625,-3.2307,-3.2808,-3.3185,-3.3474,-3.4028,-3.4516,-3.4856,-3.4744,-3.4487,-3.4104,-3.3301,-3.2585,-3.2164,-3.1151,-3.0531,-3.0531,-2.9578,-2.8945,-2.8724,-2.7998,-2.762,-2.762,-2.7394,-2.7309,-2.7309,-2.7309,-2.7177,-2.69,-2.6948,-2.6948,-2.69,-2.6948,-2.7129,-2.7309,-2.7536,-2.8034,-2.8817,-3.0034,-3.0991,-3.1713,-3.2711,-3.3124,-3.3124,0.0,0.0,0.0,0.0,0.0,0.0,0.0,0.0,0.0,0.0,0.0,0.0,0.0,0.0,0.0,0.0,0.0,0.0,0.0,0.0,0.0,0.0,0.0,-2.5724,-2.6021,-2.6336,-2.6499,-2.6499,-2.685,-2.704,-2.7074,-2.7736,-2.8051,-2.8084,-2.8762,-2.9093,0.0,0.0,0.0,0.0,-2.8316,0.0,0.0,0.0,0.0,0.0,-2.6523,-2.6323,0.0,-2.5973,-2.5664,-2.517,0.0,0.0,0.0,0.0,-2.2328,-2.2283,-2.2739,-2.3515,-2.424,-2.4447,-2.4685,-2.4817,-2.4817,-2.4817,-2.4755,-2.4538,-2.5807,-2.7097,-2.7393,-2.9215,-3.0767,-3.1303,-3.2067,-3.2828,-3.3284,-3.3847,-3.4284,-3.4545,-3.423,-3.3923,-3.3745,-3.3005,-3.2281,-3.1649,-3.0711,-2.9988,-2.9543,-2.8585,-2.8034,-2.8034,-2.7584,-2.7309,-2.7309,-2.7309,-2.7309,-2.7309,-2.7167,-2.6986,-2.6699,-2.6699,-2.6651,-2.6554,-2.6794,-2.6996,-2.7129,-2.7262,-2.7584,-2.8222,-2.9624,-3.0486,-3.108,-3.2033,-3.2711,-3.3025,0.0,0.0,0.0,0.0,0.0,0.0,0.0,0.0,0.0,0.0,0.0,0.0,0.0,0.0,0.0,0.0,0.0,0.0,0.0,0.0,0.0,0.0,-2.5954,-2.5996,-2.6487,-2.6499,-2.6499,-2.6499,-2.6499,-2.6499,-2.6499,-2.7061,-2.7384,-2.7517,-2.8084,-2.833,0.0,0.0,0.0,0.0,-2.761,0.0,0.0,0.0,0.0,0.0,0.0,0.0,0.0,-2.5366,-2.5135,-2.4731,-2.3398,0.0,0.0,0.0,0.0,0.0,-2.2563,-2.366,-2.4662,-2.4964,-2.5086,-2.5168,-2.5096,0.0,-2.4993,-2.4662,-2.5616,-2.6453,-2.6257,-2.8158,-2.9818,-2.9943,-3.1104,-3.224,-3.2926,-3.3424,-3.381,-3.4037,-3.366,-3.3274,-3.3173,-3.2665,-3.1989,-3.1226,-3.0306,-2.9395,-2.8538,-2.7668,-2.7214,-2.7214,-2.7214,-2.7167,-2.7167,-2.7214,-2.7214,-2.7167,-2.6938,-2.6699,-2.6448,-2.6448,-2.6294,-2.6149,-2.6602,-2.6853,-2.69,-2.7167,-2.7309,-2.7489,-2.9257,-3.0079,-3.0306,-3.108,-3.212,-3.2982,0.0,0.0,0.0,0.0,0.0,0.0,0.0,0.0,0.0,0.0,0.0,0.0,0.0,0.0,0.0,0.0,0.0,0.0,0.0,0.0,0.0,-2.5453,-2.6055,-2.6399,-2.6499,-2.6499,-2.6499,-2.6499,-2.6499,-2.6499,-2.6499,-2.6624,-2.6973,-2.7517,-2.7604,-2.7637,-2.7637,-2.7637,0.0,-2.7443,-2.6869,0.0,0.0,0.0,0.0,0.0,0.0,0.0,0.0,-2.5311,-2.4443,-2.3324,-2.3065,0.0,0.0,0.0,0.0,0.0,-2.3432,-2.4374,-2.491,-2.426,-2.4664,-2.5086,-2.4693,-2.4611,-2.4693,0.0,-2.5585,-2.6344,-2.7467,-2.8719,-2.9795,-3.0576,-3.1427,-3.2018,-3.2147,-3.2276,-3.2413,-3.269,-3.2616,-3.2311,-3.1701,-3.0994,-3.017,-2.9222,-2.8269,-2.7678,-2.7536,-2.7177,-2.6948,-2.6948,-2.6736,-2.664,-2.664,-2.6842,-2.6842,-2.664,-2.6592,-2.64,-2.6149,-2.6149,-2.6149,-2.61,-2.6448,-2.6699,-2.69,-2.7167,-2.7309,-2.7394,-2.8491,-2.9441,-3.0215,-3.0351,-3.1524,-3.3081,0.0,0.0,0.0,0.0,0.0,0.0,0.0,0.0,0.0,0.0,0.0,0.0,0.0,0.0,0.0,0.0,0.0,0.0,0.0,0.0,-2.5312,-2.5661,-2.647,-2.6801,-2.6499,-2.6185,-2.6021,-2.6021,-2.5711,-2.5724,-2.6034,-2.6348,-2.6658,-2.6973,-2.6973,-2.6973,-2.6973,-2.6973,-2.71,-2.7231,0.0,0.0,0.0,0.0,0.0,0.0,0.0,0.0,0.0,0.0,-2.3582,-2.2927,-2.2478,0.0,0.0,0.0,0.0,0.0,-2.3318,-2.4167,-2.4776,-2.4654,-2.5285,-2.5896,-2.5689,-2.5637,-2.5627,-2.5585,-2.6053,-2.662,-2.7158,-2.8431,-2.9897,-3.1282,-3.1705,-3.1937,-3.2169,-3.2213,-3.23,-3.2506,-3.255,-3.222,-3.1392,-3.0979,-3.0215,-2.8817,-2.8315,-2.7857,-2.7309,-2.7167,-2.7034,-2.69,-2.6805,-2.6602,-2.6304,-2.64,-2.6496,-2.6496,-2.6342,-2.6197,-2.61,-2.5965,-2.5868,-2.5917,-2.6149,-2.6448,-2.6699,-2.6986,-2.7177,-2.7394,-2.8305,-2.8991,-2.9532,-3.0576,-3.1214,-3.1669,0.0,0.0,0.0,0.0,0.0,0.0,0.0,0.0,0.0,0.0,0.0,0.0,0.0,0.0,0.0,0.0,0.0,0.0,0.0,-2.4537,-2.5428,-2.5538,-2.6357,-2.6642,-2.6298,-2.5858,-2.5536,-2.541,-2.4988,-2.5084,-2.5611,-2.6361,-2.6688,-2.6688,-2.6826,-2.6876,-2.6876,-2.6876,-2.7168,-2.762,0.0,0.0,0.0,0.0,0.0,0.0,0.0,0.0,0.0,0.0,0.0,0.0,0.0,0.0,0.0,-2.1807,-2.2211,-2.276,-2.3225,-2.4012,-2.4766,-2.5264,-2.5823,-2.6279,-2.6428,-2.633,-2.6216,-2.6072,-2.647,-2.6892,-2.7045,-2.8543,-3.0249,-3.1749,-3.1849,-3.1893,-3.2257,-3.2344,-3.2475,-3.2593,-3.268,-3.2351,-3.1392,-3.1158,-3.0396,-2.8817,-2.8502,-2.8034,-2.7357,-2.7167,-2.7034,-2.6794,-2.6699,-2.641,-2.6004,-2.6004,-2.611,-2.6304,-2.61,-2.6004,-2.6004,-2.5781,-2.5693,-2.5684,-2.5955,-2.6245,-2.6496,-2.6805,-2.7081,-2.7357,-2.8081,-2.8491,-2.8956,-3.0902,-3.1169,-3.0756,0.0,0.0,0.0,0.0,0.0,0.0,0.0,0.0,0.0,0.0,0.0,0.0,0.0,0.0,0.0,0.0,0.0,0.0,0.0,-2.2498,-2.3553,-2.4213,-2.5028,-2.5503,-2.5674,-2.5611,-2.536,-2.4838,-2.4813,-2.5084,-2.5624,-2.6751,-2.7218,-2.7243,-2.7758,-2.7984,-2.7984,-2.7984,-2.8298,-2.8725,-2.821,0.0,0.0,0.0,0.0,0.0,0.0,0.0,0.0,0.0,0.0,0.0,0.0,0.0,-2.1807,-2.1807,-2.2439,-2.3236,-2.3701,-2.4498,-2.5241,-2.572,-2.5575,-2.543,-2.5834,-2.5616,-2.5554,-2.6397,-2.6579,-2.7013,-2.8315,-2.9784,-3.1036,-3.1893,-3.1994,-3.1994,-3.2038,-3.2257,-3.2388,-3.2431,-3.2593,-3.2351,-3.1392,-3.0666,-2.9852,-2.8771,-2.7904,-2.7357,-2.7309,-2.6832,-2.6544,-2.6554,-2.6072,-2.5791,-2.5732,-2.5732,-2.5732,-2.5781,-2.5732,-2.5732,-2.5732,-2.5684,-2.5693,-2.5684,-2.5955,-2.6245,-2.6496,-2.6805,-2.7081,-2.7309,-2.7357,-2.7951,-2.8956,-3.0902,-3.1581,-3.1669,0.0,0.0,0.0,0.0,0.0,0.0,0.0,0.0,0.0,0.0,0.0,0.0,0.0,0.0,0.0,0.0,0.0,0.0,0.0,-2.2778,-2.3605,-2.3846,-2.4639,-2.5064,-2.4905,-2.5041,-2.4845,-2.4305,-2.4625,-2.4888,-2.5146,-2.6603,-2.714,-2.6839,-2.7344,-2.7406,-2.714,-2.7444,-2.7908,-2.8324,-2.7594,-2.7113,0.0,0.0,0.0,0.0,0.0,0.0,0.0,0.0,-2.2063,-2.1807,-2.1807,-2.1807,-2.1807,-2.1807,-2.2459,-2.3225,-2.3401,-2.4322,-2.523,-2.543,-2.5554,-2.5751,-2.6252,-2.6403,-2.6589,-2.6978,-2.6909,-2.728,-2.8844,-2.9715,-3.0678,-3.2025,-3.2257,-3.23,-3.2419,-3.2506,-3.2649,-3.2822,-3.2896,-3.2568,-3.1581,-3.1214,-3.0396,-2.8817,-2.8351,-2.7904,-2.7309,-2.7119,-2.6928,-2.6747,-2.641,-2.611,-2.5965,-2.5781,-2.5693,-2.5693,-2.5693,-2.5693,-2.5693,-2.5693,-2.5693,-2.5684,-2.5955,-2.6245,-2.6496,-2.6805,-2.7081,-2.7309,-2.7309,-2.7536,-2.8081,-2.9988,-3.0711,-3.0946,0.0,0.0,0.0,0.0,0.0,0.0,0.0,0.0,0.0,0.0,0.0,0.0,0.0,0.0,0.0,0.0,0.0,0.0,-2.1145,-2.2296,-2.3042,-2.3241,-2.4197,-2.4656,-2.4508,-2.469,-2.4612,-2.4255,-2.4808,-2.5059,-2.5096,-2.659,-2.7115,-2.6788,-2.7293,-2.7331,-2.704,-2.7381,-2.7858,-2.8287,-2.7417,-2.6844,0.0,0.0,0.0,0.0,0.0,0.0,0.0,0.0,-2.1807,-2.1807,0.0,0.0,-2.1838,-2.1983,-2.2677,-2.3432,-2.3577,-2.4405,-2.522,-2.5399,-2.5658,-2.6044,-2.6511,-2.6864,-2.7133,-2.7278,-2.7631,-2.8305,-2.9418,-3.017,-3.1048,-3.2288,-3.2431,-3.2475,-3.268,-3.2766,-3.2896,-3.3081,-3.3124,-3.2853,-3.212,-3.1801,-3.0946,-2.9314,-2.8863,-2.8315,-2.7347,-2.7214,-2.7034,-2.6805,-2.6496,-2.6255,-2.5955,-2.5781,-2.5693,-2.5693,-2.5693,-2.5693,-2.5693,-2.5693,-2.5693,-2.5684,-2.5955,-2.6245,-2.6496,-2.6805,-2.7081,-2.7309,-2.7309,-2.7489,-2.7951,-2.9578,-3.0215,-3.0486,0.0,0.0,0.0,0.0,0.0,0.0,0.0,0.0,0.0,0.0,0.0,0.0,0.0,0.0,0.0,0.0,0.0,0.0,-1.9793,-2.0607,-2.1434,-2.2233,-2.3424,-2.4212,-2.4496,-2.4703,-2.48,-2.4775,-2.5335,-2.5586,-2.5624,-2.6753,-2.7281,-2.7341,-2.7846,-2.8097,-2.8084,-2.8097,-2.8374,-2.88,-2.7914,-2.686,-2.5685,0.0,0.0,0.0,0.0,0.0,0.0,0.0,-2.1807,-2.1807,0.0,0.0,0.0,-2.2366,-2.3153,-2.3981,-2.4373,-2.4828,-2.5292,-2.5761,-2.5875,-2.6055,-2.6511,-2.6615,-2.675,-2.7216,-2.8852,-3.017,-3.017,-3.1371,-3.2431,-3.268,-3.2519,-3.2475,-3.268,-3.2939,-3.3124,-3.3124,-3.3124,-3.3124,-3.3124,-3.222,-3.1214,-3.026,-2.9268,-2.8315,-2.7347,-2.7034,-2.6805,-2.6496,-2.6245,-2.5955,-2.5693,-2.5693,-2.5693,-2.5693,-2.5693,-2.5693,-2.5693,-2.5693,-2.5693,-2.5742,-2.6014,-2.6245,-2.6496,-2.6794,-2.7081,-2.7309,-2.7309,-2.7857,-2.8817,-2.9806,-3.017,-3.0441,0.0,0.0,0.0,0.0,0.0,0.0,0.0,0.0,0.0,0.0,0.0,0.0,0.0,0.0,0.0,0.0,0.0,0.0,-1.9813,-2.0307,-2.0845,-2.1424,-2.2328,-2.3277,-2.4188,-2.5377,-2.541,-2.4243,-2.4782,-2.5234,-2.5624,-2.6753,-2.7115,-2.6763,-2.7281,-2.7341,-2.6967,-2.6771,-2.6798,-2.6858,-2.5831,-2.5015,-2.4309,0.0,0.0,0.0,0.0,0.0,0.0,0.0,0.0,0.0,0.0,0.0,0.0,-2.2553,-2.337,-2.4312,-2.4126,-2.4643,-2.522,-2.5344,-2.5896,-2.6449,-2.6584,-2.6864,-2.7096,-2.7013,-2.7904,-2.8806,-2.9349,-3.0498,-3.1548,-3.2113,-3.2419,-3.2636,-3.2667,-3.2939,-3.3124,-3.3124,-3.3124,-3.3124,-3.3124,-3.2853,-3.1989,-3.0306,-2.9943,-2.9037,-2.7404,-2.7214,-2.7081,-2.6794,-2.6496,-2.6245,-2.5955,-2.5781,-2.5693,-2.5693,-2.5693,-2.5693,-2.5693,-2.5693,-2.5693,-2.5732,-2.6159,-2.6448,-2.6544,-2.6976,-2.7214,-2.7309,-2.7309,-2.7489,-2.7809,-2.8817,-2.913,-2.9395,0.0,0.0,0.0,0.0,0.0,0.0,0.0,0.0,0.0,0.0,-1.9347,-1.9585,0.0,0.0,0.0,0.0,0.0,0.0,0.0,-2.0017,-2.0358,-2.0788,-2.1775,-2.2894,-2.4213,-2.5507,-2.5669,-2.4632,-2.5197,-2.5636,-2.5984,-2.6675,-2.6813,-2.6512,-2.6511,-2.621,-2.5716,-2.5241,-2.5182,-2.5286,-2.4283,-2.3842,-2.3706,0.0,0.0,0.0,0.0,0.0,0.0,0.0,0.0,0.0,-2.2087,0.0,-2.3205,-2.3287,-2.398,-2.4797,-2.4923,-2.5347,-2.5802,-2.5989,-2.631,-2.6667,-2.6853,-2.7102,-2.7262,-2.7081,-2.8034,-2.8991,-2.9441,-3.0666,-3.1813,-3.2332,-3.2593,-3.2766,-3.2853,-3.2995,-3.3124,-3.3124,-3.3124,-3.3124,-3.3124,-3.3124,-3.2295,-3.0351,-3.0215,-2.9349,-2.7394,-2.7309,-2.7119,-2.6747,-2.6602,-2.6304,-2.5965,-2.5781,-2.5693,-2.5693,-2.5693,-2.5693,-2.5693,-2.5693,-2.5693,-2.5732,-2.6265,-2.664,-2.6832,-2.7167,-2.7309,-2.7309,-2.7309,-2.7309,-2.7441,-2.8806,-2.8817,-2.8538,0.0,0.0,-1.8621,-1.9088,0.0,0.0,0.0,0.0,0.0,-1.9108,-1.9108,-1.9264,0.0,0.0,0.0,-2.023,0.0,0.0,0.0,-1.973,-1.9913,-2.0364,-2.1657,-2.3005,-2.4418,-2.5191,-2.5561,-2.5561,-2.6151,-2.6449,-2.6499,-2.6436,-2.6377,-2.6274,-2.5556,-2.4939,-2.44,-2.3665,-2.3672,-2.4038,-2.3228,-2.3166,-2.3536,-2.273,0.0,0.0,0.0,0.0,0.0,0.0,0.0,0.0,-2.2563,-2.2904,-2.3463,-2.4208,-2.4817,-2.5461,-2.6237,-2.6521,-2.6667,-2.7133,-2.6957,-2.6791,-2.7216,-2.7309,-2.7309,-2.7262,-2.8806,-3.0125,-3.0125,-3.1536,-3.2766,-3.2995,-3.2853,-3.281,-3.3025,-3.3068,-3.3124,-3.3124,-3.3124,-3.3124,-3.3124,-3.3124,-3.2295,-3.0351,-3.0215,-2.9349,-2.7394,-2.7309,-2.7071,-2.6496,-2.6496,-2.6255,-2.5693,-2.5693,-2.5693,-2.5693,-2.5693,-2.5693,-2.5693,-2.5693,-2.5732,-2.5781,-2.6304,-2.6784,-2.7309,-2.7309,-2.7309,-2.7309,-2.7309,-2.7309,-2.7536,-2.9257,-2.8806,-2.7809,0.0,0.0,-1.9108,-1.9564,0.0,0.0,0.0,0.0,-1.9108,-1.9108,-1.9108,-1.9139,-1.9243,-1.9575,0.0,-1.9385,-1.9647,0.0,0.0,-1.9253,-1.9572,-2.0354,-2.1979,-2.3267,-2.4174,-2.4979,-2.5341,-2.5341,-2.5654,-2.6047,-2.6487,-2.6034,-2.5505,-2.4996,-2.4755,-2.4113,-2.3175,-2.3113,-2.2966,-2.2709,-2.2254,-2.2126,-2.2209,-2.2029,-2.189,0.0,0.0,0.0,0.0,0.0,0.0,0.0,-2.3039,-2.3598,-2.4177,-2.4064,-2.484,-2.5709,-2.5564,-2.5771,-2.6179,-2.6646,-2.6957,-2.7185,-2.7289,-2.7309,-2.7262,-2.7034,-2.8387,-2.9544,-2.9544,-3.1169,-3.2475,-3.2519,-3.2636,-3.2711,-3.2766,-3.2982,-3.3124,-3.3124,-3.3124,-3.3124,-3.3124,-3.3124,-3.2295,-3.0351,-3.0215,-2.9349,-2.7394,-2.7309,-2.7071,-2.6496,-2.6496,-2.6255,-2.5693,-2.5693,-2.5693,-2.5693,-2.5693,-2.5693,-2.5693,-2.5693,-2.5927,-2.6352,-2.6448,-2.6784,-2.7309,-2.7309,-2.7309,-2.7309,-2.7309,-2.7309,-2.7347,-2.7762,-2.7668,-2.7631,0.0,0.0,0.0,0.0,0.0,0.0,0.0,0.0,-1.9893,-1.9492,-1.944,-1.944,-1.944,-1.9647,0.0,0.0,-1.9658,-1.9699,0.0,0.0,-1.9834,-2.071,-2.2204,-2.335,-2.4072,-2.4898,-2.5312,-2.5312,-2.5406,-2.5809,-2.6487,-2.5797,-2.5271,-2.4891,-2.4119,-2.3199,-2.2228,-2.2118,-2.1822,-2.1392,-2.1428,-2.1611,-2.1807,-2.1807,-2.1807,-2.1838,-2.2087,0.0,0.0,0.0,0.0,0.0,0.0,0.0,-2.4497,-2.4529,-2.5026,-2.5616,-2.5813,-2.6041,-2.6366,-2.6832,-2.7133,-2.7309,-2.7309,-2.7309,-2.7262,-2.7129,-2.8527,-2.9784,-2.9784,-3.1392,-3.2736,-3.2736,-3.281,-3.2896,-3.2896,-3.3025,-3.3124,-3.3124,-3.3124,-3.3124,-3.3124,-3.3124,-3.2295,-3.0351,-3.0215,-2.9349,-2.7394,-2.7167,-2.6928,-2.6496,-2.64,-2.611,-2.5693,-2.5693,-2.5693,-2.5693,-2.5693,-2.5693,-2.5693,-2.5693,-2.5975,-2.6496,-2.6496,-2.6784,-2.7309,-2.7309,-2.7309,-2.7309,-2.7309,-2.7309,-2.7347,-2.7809,-2.7668,-2.762,0.0,0.0,0.0,0.0,0.0,0.0,0.0,0.0,0.0,-1.9907,-1.9793,-1.9793,-1.9793,-1.973,-1.9679,0.0,0.0,0.0,-1.9679,0.0,0.0,-2.0969,-2.2142,-2.3091,-2.3683,-2.4411,-2.4827,-2.4909,-2.4957,-2.5405,-2.6196,-2.5357,-2.4874,-2.4744,-2.3411,-2.2306,-2.1406,-2.1256,-2.0969,-2.055,-2.1041,-2.1466,-2.1807,-2.1807,-2.1807,-2.1818,-2.189,-2.1921,-2.1994,-2.2459,0.0,0.0,0.0,0.0,-2.4456,-2.4838,-2.5065,-2.5344,-2.6134,-2.6501,-2.6729,-2.7195,-2.7309,-2.7309,-2.7309,-2.7441,-2.7536,-2.7536,-2.8945,-3.0215,-3.0215,-3.1801,-3.3124,-3.3124,-3.3124,-3.3124,-3.3124,-3.3124,-3.3124,-3.3124,-3.3124,-3.3124,-3.3124,-3.3124,-3.2295,-3.0351,-3.0215,-2.9349,-2.7394,-2.7034,-2.6805,-2.6496,-2.6245,-2.5965,-2.5693,-2.5693,-2.5693,-2.5693,-2.5693,-2.5693,-2.5693,-2.5693,-2.5975,-2.6496,-2.6496,-2.6784,-2.7309,-2.7309,-2.7309,-2.7309,-2.7309,-2.7309,-2.7394,-2.8175,-2.7998,-2.7668,0.0,0.0,0.0,0.0,0.0,0.0,0.0,0.0,0.0,0.0,-1.9793,-1.9793,-1.9793,-1.944,-1.9191,-1.9191,-1.9191,-1.9191,0.0,0.0,0.0,-2.0478,-2.1453,-2.1987,-2.209,-2.2502,-2.2892,-2.3324,-2.36,-2.4175,-2.5022,-2.4022,-2.3265,-2.2692,-2.2357,-2.1585,-2.0625,-2.1379,-2.1445,-2.1062,-2.1528,-2.1745,-2.1807,-2.1807,-2.1807,-2.1859,-2.2263,-2.2408,-2.248,-2.2936,-2.3143,0.0,0.0,0.0,-2.3981,-2.4043,-2.4612,-2.521,-2.5334,-2.5978,-2.6729,-2.7195,-2.7309,-2.7309,-2.7309,-2.7951,-2.8491,-2.8491,-2.9406,-3.0215,-3.0215,-3.1801,-3.3124,-3.3124,-3.3124,-3.3124,-3.3124,-3.3124,-3.3124,-3.3124,-3.3124,-3.3124,-3.3124,-3.3124,-3.2295,-3.0351,-3.0215,-2.9349,-2.7394,-2.7034,-2.6805,-2.6496,-2.6245,-2.5965,-2.5693,-2.5693,-2.5693,-2.5693,-2.5693,-2.5693,-2.5693,-2.5693,-2.5975,-2.6496,-2.6496,-2.6784,-2.7309,-2.7309,-2.7309,-2.7309,-2.7309,-2.7309,-2.7309,-2.7441,-2.7394,-2.7584,0.0,0.0,0.0,0.0,0.0,0.0,0.0,0.0,0.0,0.0,0.0,-1.9757,-2.011,-1.9533,-1.9108,-1.9108,-1.9108,0.0,0.0,0.0,0.0,-2.0374,-2.1062,-2.1512,-2.1677,-2.2103,-2.2415,-2.2623,-2.2486,-2.2803,-2.3486,-2.2793,-2.2787,-2.34,-2.267,-2.1885,-2.1228,-2.1631,-2.1538,-2.1155,-2.1621,-2.2118,-2.2522,-2.2004,-2.2128,-2.2542,-2.2221,-2.2108,-2.218,-2.2646,-2.2977,-2.3184,-2.3184,0.0,0.0,0.0,-2.4157,-2.4643,-2.5388,-2.6072,-2.6729,-2.7195,-2.7309,-2.7309,-2.7309,-2.8034,-2.8678,-2.8678,-2.9897,-3.0991,-3.0991,-3.212,-3.3124,-3.3124,-3.3124,-3.3124,-3.3124,-3.3124,-3.3124,-3.3124,-3.3124,-3.3124,-3.3124,-3.3124,-3.2295,-3.0351,-3.0215,-2.9349,-2.7394,-2.688,-2.6602,-2.6496,-2.611,-2.583,-2.5693,-2.5693,-2.5693,-2.5693,-2.5693,-2.5693,-2.5693,-2.5693,-2.5975,-2.6496,-2.6496,-2.6784,-2.7309,-2.7309,-2.7309,-2.7309,-2.7309,-2.7309,-2.7309,-2.7309,-2.762,-2.8315,0.0,0.0,0.0,0.0,0.0,0.0,0.0,0.0,0.0,0.0,0.0,-1.9754,-2.0189,0.0,0.0,0.0,-1.9108,0.0,0.0,0.0,0.0,0.0,-2.0814,-2.1151,-2.1269,-2.1649,-2.1833,-2.1833,-2.1477,-2.1711,-2.249,-2.2263,-2.294,-2.4296,-2.3184,-2.2418,-2.1983,-2.1983,-2.1787,-2.1497,-2.1849,-2.2397,-2.2956,-2.2501,-2.2687,-2.3101,-2.2408,-2.2087,-2.2014,-2.2242,-2.2553,-2.2832,-2.2832,-2.3153,0.0,0.0,0.0,-2.4189,-2.5378,-2.6041,-2.6553,-2.7019,-2.7216,-2.7357,-2.7573,-2.8398,-2.913,-2.9406,-3.0812,-3.1989,-3.1989,-3.2581,-3.3124,-3.3124,-3.3124,-3.3124,-3.3124,-3.3124,-3.3124,-3.3124,-3.3124,-3.3124,-3.3124,-3.2853,-3.2033,-3.0351,-2.9943,-2.9084,-2.7394,-2.6784,-2.6496,-2.6496,-2.5975,-2.5693,-2.5693,-2.5693,-2.5693,-2.5693,-2.5693,-2.5693,-2.5693,-2.5693,-2.5975,-2.6496,-2.6496,-2.6784,-2.7309,-2.7309,-2.7309,-2.7309,-2.7309,-2.7309,-2.7309,-2.7309,-2.7904,-2.8852,0.0,0.0,0.0,0.0,0.0,0.0,0.0,0.0,0.0,0.0,0.0,-1.9803,-1.9824,-1.9388,-1.9108,-1.9108,-1.9108,0.0,0.0,0.0,0.0,0.0,0.0,0.0,-2.0466,-2.0487,-2.0498,-2.0498,-2.0466,-2.1172,-2.2501,-2.2925,-2.3598,-2.4469,-2.3546,-2.2894,-2.2459,-2.2459,-2.2449,-2.2428,-2.2449,-2.249,-2.2625,-2.3453,-2.3525,-2.3184,-2.3132,-2.2832,-2.2397,-2.1983,-2.1859,-2.188,-2.188,-2.219,-2.2563,0.0,0.0,0.0,-2.5016,-2.5585,-2.6065,-2.6532,-2.6978,-2.7536,-2.8398,-2.9395,-3.0351,-3.1258,-3.2307,-3.3025,-3.3025,-3.3081,-3.3124,-3.3124,-3.3124,-3.3124,-3.3124,-3.3124,-3.3124,-3.3124,-3.3124,-3.3124,-3.3124,-3.2264,-3.1258,-3.026,-2.9314,-2.8362,-2.7347,-2.6784,-2.6496,-2.6496,-2.5975,-2.5693,-2.5693,-2.5693,-2.5693,-2.5693,-2.5693,-2.5693,-2.5693,-2.5693,-2.5975,-2.6496,-2.6496,-2.6784,-2.7309,-2.7309,-2.7309,-2.7309,-2.7309,-2.7309,-2.7309,-2.7309,-2.7904,-2.8852,0.0,0.0,0.0,0.0,0.0,0.0,0.0,0.0,0.0,0.0,0.0,0.0,0.0,-1.9647,-1.943,-1.9129,-1.9108,0.0,0.0,0.0,0.0,0.0,0.0,0.0,-2.0006,-2.0276,-2.0385,-2.0385,-2.0141,-2.07,-2.2056,-2.2221,-2.2635,-2.3225,-2.3194,-2.3256,-2.3329,-2.2428,-2.2397,-2.2915,-2.2615,-2.3205,-2.4198,-2.3639,-2.4053,-2.4799,-2.3939,-2.3525,-2.336,-2.3194,-2.2936,-2.2646,-2.2346,-2.2366,-2.2501,-2.2501,-2.3153,-2.4012,-2.458,-2.5075,-2.5647,-2.6428,-2.7193,-2.7928,-2.8566,-2.9943,-3.1169,-3.1536,-3.2394,-3.3124,-3.3124,-3.3124,-3.3124,-3.3124,-3.3124,-3.3124,-3.3124,-3.3124,-3.3124,-3.3124,-3.3124,-3.3124,-3.3124,-3.2176,-3.1214,-3.026,-2.9268,-2.8315,-2.7347,-2.6784,-2.6496,-2.6496,-2.5975,-2.5693,-2.5693,-2.5693,-2.5693,-2.5693,-2.5693,-2.5693,-2.5693,-2.5693,-2.5975,-2.6496,-2.6496,-2.6784,-2.7309,-2.7309,-2.7309,-2.7309,-2.7309,-2.7309,-2.7357,-2.7998,-2.8817,-2.9806,0.0,0.0,0.0,-2.2007,0.0,-2.1316,-2.0459,-2.0317,-2.019,-1.9837,0.0,0.0,0.0,0.0,-1.9668,-1.9357,-1.9191,-1.917,-1.9326,-1.9191,0.0,0.0,0.0,0.0,-2.0021,-2.0276,-2.0385,-2.0385,-2.0131,-2.0607,-2.1807,-2.1963,-2.2283,-2.2739,-2.2884,-2.3122,-2.336,-2.2594,-2.2625,-2.3184,-2.3184,-2.3826,-2.4747,-2.4436,-2.4881,-2.5564,-2.4809,-2.4457,-2.4312,-2.4146,-2.3795,-2.3339,-2.2873,-2.2511,-2.2294,-2.2449,-2.3039,-2.3743,-2.4198,-2.4724,-2.5453,-2.6543,-2.7267,-2.8051,-2.9386,-3.0538,-3.1464,-3.1996,-3.2624,-3.3124,-3.3124,-3.3124,-3.3124,-3.3124,-3.3124,-3.3124,-3.3124,-3.3124,-3.3124,-3.3124,-3.3124,-3.3124,-3.3124,-3.2176,-3.1214,-3.026,-2.9268,-2.8315,-2.7347,-2.6784,-2.64,-2.6255,-2.5878,-2.5693,-2.5693,-2.5693,-2.5693,-2.5693,-2.5693,-2.5693,-2.5693,-2.5781,-2.6062,-2.6496,-2.6602,-2.689,-2.7309,-2.7309,-2.7309,-2.7309,-2.7309,-2.7309,-2.7394,-2.8362,-2.936,-3.0351,-2.3877,-2.3877,-2.3588,-2.2677,-2.2501,-2.219,-2.1269,-2.1124,-2.0912,-2.0447,0.0,0.0,0.0,0.0,0.0,-1.9813,-1.9409,-1.9336,-1.9793,-1.9388,-1.9347,0.0,0.0,0.0,-2.0405,-2.0405,-2.0405,-2.0405,-2.0405,-2.0907,-2.1797,-2.2263,-2.2718,-2.3122,-2.2677,-2.248,-2.2501,-2.2956,-2.3163,-2.3277,-2.4094,-2.426,-2.4168,-2.5879,-2.5989,-2.5303,-2.574,-2.5616,-2.5158,-2.4714,-2.4291,-2.3815,-2.3339,-2.2573,-2.1932,-2.2366,-2.2832,-2.3298,0.0,0.0,0.0,-2.6921,-2.725,-2.8032,-3.0909,-3.1192,-3.1234,-3.2784,-3.3111,-3.3056,-3.3124,-3.3124,-3.3124,-3.3124,-3.3124,-3.3124,-3.3124,-3.3124,-3.3124,-3.3124,-3.3124,-3.3124,-3.3124,-3.2176,-3.1169,-3.026,-2.9222,-2.8269,-2.7357,-2.6784,-2.6255,-2.5742,-2.5693,-2.5693,-2.5693,-2.5693,-2.5693,-2.5693,-2.5693,-2.5693,-2.5684,-2.5955,-2.6245,-2.6496,-2.6805,-2.7034,-2.7309,-2.7309,-2.7309,-2.7309,-2.7309,-2.7309,-2.7441,-2.8409,-2.9406,-3.0396,-2.3346,-2.3669,-2.3691,-2.3101,-2.2718,-2.2294,-2.1704,-2.1331,-2.0912,0.0,0.0,0.0,-2.0426,-2.0317,-2.0245,-2.0245,-2.012,-2.011,-2.0234,-2.012,-2.011,-2.0234,-2.0679,-2.0928,-2.0928,-2.0928,-2.0928,-2.0928,-2.0928,-2.1052,-2.1311,-2.1776,-2.2066,-2.218,-2.2056,-2.1994,-2.2004,-2.2128,-2.277,-2.365,-2.3236,-2.3971,-2.5319,-2.4852,-2.5526,-2.663,-2.6082,-2.6009,-2.6175,-2.6051,-2.5275,-2.4219,-2.3432,-2.3008,-2.277,-2.2563,-2.306,-2.3639,-2.3432,0.0,0.0,0.0,0.0,0.0,-3.0678,-3.1119,-3.1597,-3.2825,-3.2742,-3.2579,-3.3006,-3.3124,-3.3124,-3.3124,-3.3124,-3.3124,-3.3124,-3.3124,-3.3124,-3.3124,-3.3124,-3.3124,-3.3124,-3.1581,-3.0486,-3.0215,-2.862,-2.7584,-2.7309,-2.6784,-2.6255,-2.5742,-2.5693,-2.5693,-2.5693,-2.5693,-2.5693,-2.5693,-2.5693,-2.5693,-2.5684,-2.5955,-2.6245,-2.6496,-2.6805,-2.7034,-2.7309,-2.7309,-2.7309,-2.7309,-2.7309,-2.7715,-2.8445,-2.9395,-3.0396,-3.1347,-2.3684,-2.3946,-2.4012,-2.3557,-2.3091,-2.2687,-2.2418,-2.1828,-2.1373,0.0,0.0,0.0,-2.0726,-2.0886,-2.0917,-2.0695,-2.0498,-2.0467,-2.0664,-2.0498,-2.0478,-2.0664,-2.0932,-2.1207,-2.1393,-2.1217,-2.1207,-2.1404,-2.1207,-2.1217,-2.1414,-2.1683,-2.1807,-2.1807,-2.1807,-2.1807,-2.1807,-2.1807,-2.2387,-2.3308,-2.3339,-2.4033,-2.5016,-2.4842,-2.5578,-2.6687,-2.6335,-2.6511,-2.6905,-2.6905,-2.5958,-2.4662,-2.3981,-2.3494,-2.3143,-2.2863,-2.3308,-2.3898,-2.4016,-2.4904,-2.6107,-2.7352,0.0,0.0,-3.1009,-3.1402,-3.1712,-3.2885,-3.2805,-3.2679,-3.3061,-3.3124,-3.3124,-3.3124,-3.3124,-3.3124,-3.3124,-3.3124,-3.3124,-3.3124,-3.3124,-3.3124,-3.3124,-3.1713,-3.0621,-3.0215,-2.8771,-2.7631,-2.7023,-2.6688,-2.6255,-2.5742,-2.5693,-2.5693,-2.5693,-2.5693,-2.5693,-2.5693,-2.5693,-2.5781,-2.5868,-2.6159,-2.64,-2.6699,-2.6938,-2.7177,-2.7309,-2.7309,-2.7309,-2.7309,-2.7309,-2.7857,-2.8817,-2.9852,-3.0812,-3.1757,0.0,-2.4497,-2.4373,-2.4022,-2.3567,-2.3267,-2.3267,-2.2522,-2.2108,0.0,-2.2211,-2.1797,-2.1393,-2.1662,-2.1735,-2.1383,-2.0876,-2.0736,-2.1238,-2.0834,-2.0726,-2.1176,-2.1186,-2.1383,-2.1797,-2.1404,-2.1393,-2.1807,-2.1393,-2.1404,-2.1807,-2.1807,-2.1807,-2.1807,-2.1807,-2.1807,-2.1807,-2.1807,-2.2076,-2.2604,-2.3784,-2.4167,-2.4074,-2.5223,-2.5796,-2.5927,-2.6289,-2.677,-2.7154,-2.7154,-2.6341,-2.5241,-2.4735,-2.4095,-2.3453,-2.3308,-2.3629,-2.42,-2.5001,-2.5626,-2.6538,-2.8685,-2.9028,0.0,-3.1535,-3.165,-3.1612,-3.2667,-3.2842,-3.2842,-3.2998,-3.298,-3.298,-3.298,-3.3074,-3.3124,-3.3124,-3.3124,-3.3124,-3.3124,-3.3124,-3.3124,-3.3124,-3.212,-3.108,-3.026,-2.9176,-2.794,-2.6592,-2.6496,-2.6255,-2.5742,-2.5693,-2.5693,-2.5693,-2.5693,-2.5693,-2.5693,-2.5693,-2.582,-2.61,-2.64,-2.6651,-2.69,-2.7167,-2.7309,-2.7309,-2.7309,-2.7309,-2.7309,-2.7394,-2.7998,-2.8806,-2.9943,-3.089,-3.1757,-2.4157,-2.4368,-2.4466,-2.4383,-2.4043,-2.3743,-2.3743,-2.3277,-2.2946,-2.3039,-2.2977,-2.2884,-2.2791,-2.2532,-2.248,-2.276,-2.2025,-2.1735,-2.2201,-2.1797,-2.158,-2.1662,-2.1673,-2.1714,-2.1807,-2.1714,-2.1714,-2.1807,-2.1714,-2.1714,-2.1807,-2.1807,-2.1807,-2.1807,-2.1807,-2.1807,-2.1807,-2.1807,-2.2076,-2.2522,-2.2791,-2.3505,-2.4363,-2.4302,-2.4943,-2.5844,-2.5585,-2.5771,-2.6144,-2.6144,-2.6216,-2.6165,-2.5313,-2.5213,-2.514,-2.4064,-2.4322,-2.4971,-2.5133,-2.6345,-2.7743,-2.849,-2.9751,0.0,-3.0906,-3.0846,-3.0947,-3.1587,-3.1386,-3.1361,-3.2227,-3.239,-3.239,-3.239,-3.2767,-3.3124,-3.3124,-3.3124,-3.3124,-3.3124,-3.3124,-3.3124,-3.3124,-3.1492,-3.0396,-3.0215,-2.8585,-2.7251,-2.6544,-2.6496,-2.6255,-2.5742,-2.5693,-2.5693,-2.5693,-2.5693,-2.5693,-2.5693,-2.5693,-2.582,-2.61,-2.64,-2.6651,-2.69,-2.7167,-2.7309,-2.7309,-2.7309,-2.7309,-2.7404,-2.8128,-2.8538,-2.891,-3.0678,-3.1448,-3.1757,-2.4284,-2.4411,-2.4497,-2.4497,-2.4178,-2.395,-2.4178,-2.3629,-2.3267,-2.3505,-2.3536,-2.3443,-2.3215,-2.3184,-2.3184,-2.3184,-2.276,-2.2501,-2.2501,-2.2273,-2.2045,-2.1818,-2.1807,-2.1807,-2.1807,-2.1807,-2.1807,-2.1807,-2.1807,-2.1807,-2.1807,-2.1807,-2.1932,-2.2139,-2.1901,-2.1932,-2.2128,-2.1901,-2.1942,-2.219,-2.2656,-2.3391,-2.4209,-2.4209,-2.4767,-2.5533,-2.5261,-2.5513,-2.5875,-2.5875,-2.5885,-2.5865,-2.5627,-2.5554,-2.542,-2.4747,-2.5164,-2.5905,-2.608,-2.7191,-2.8454,-2.9325,-3.0065,0.0,0.0,-3.0809,-3.0846,-3.1637,-3.1373,-3.1248,-3.2064,-3.1989,-3.1888,-3.2177,-3.2453,-3.2754,-3.3074,-3.3124,-3.3124,-3.3124,-3.3124,-3.3124,-3.3124,-3.1757,-3.0486,-2.9532,-2.8128,-2.7071,-2.6544,-2.6496,-2.6255,-2.5742,-2.5693,-2.5693,-2.5693,-2.5693,-2.5693,-2.5693,-2.5693,-2.5927,-2.6294,-2.6448,-2.6736,-2.7129,-2.7262,-2.7309,-2.7309,-2.7309,-2.7584,-2.8034,-2.8538,-2.9002,-2.9624,-3.108,-3.1901,-3.2438,-2.4497,-2.4497,-2.4497,-2.4497,-2.425,-2.4126,-2.4445,-2.3919,-2.3588,-2.396,-2.4242,-2.4242,-2.366,-2.4272,-2.4533,-2.4052,-2.4027,-2.3752,-2.3213,-2.3068,-2.278,-2.2221,-2.2118,-2.2066,-2.2066,-2.1983,-2.1932,-2.1932,-2.1849,-2.1849,-2.1932,-2.1932,-2.2139,-2.248,-2.2201,-2.2273,-2.2594,-2.2128,-2.2045,-2.2263,-2.2925,-2.336,-2.367,-2.4209,-2.46,-2.4985,-2.5024,-2.5378,-2.5761,-2.5761,-2.5575,-2.5399,-2.5668,-2.5627,-2.544,-2.5127,-2.5674,-2.6497,-2.7107,-2.79,-2.8887,-3.0281,-3.0432,-3.0407,0.0,0.0,0.0,-3.1587,-3.1386,-3.1248,-3.18,-3.1537,-3.1386,-3.1838,-3.2077,-3.234,-3.2704,-3.2943,-3.3124,-3.3124,-3.3124,-3.3124,-3.3124,-3.2176,-3.0812,-2.8863,-2.7998,-2.7251,-2.6544,-2.6496,-2.6255,-2.5742,-2.5693,-2.5693,-2.5693,-2.5693,-2.5693,-2.5693,-2.5693,-2.5975,-2.6496,-2.6496,-2.6784,-2.7309,-2.7309,-2.7309,-2.7309,-2.7309,-2.7762,-2.8456,-2.8852,-2.936,-3.0079,-3.1392,-3.2164,-3.2581,-2.4497,-2.4497,-2.4497,-2.4497,-2.4456,-2.4435,-2.4487,-2.4414,-2.4363,-2.4414,-2.5562,-2.6012,-2.5093,-2.6567,-2.7411,-2.6976,-2.6925,-2.656,-2.5642,-2.5196,-2.4581,-2.3681,-2.3246,-2.3029,-2.3029,-2.2625,-2.2418,-2.2418,-2.2004,-2.2014,-2.2418,-2.2418,-2.2449,-2.2511,-2.2873,-2.306,-2.308,-2.2615,-2.2894,-2.3619,-2.3308,-2.2977,-2.2749,-2.3619,-2.3991,-2.4084,-2.4435,-2.4869,-2.5261,-2.5261,-2.5533,-2.5751,-2.5409,-2.5813,-2.6185,-2.4931,-2.5215,-2.6269,-2.7555,-2.8318,-2.9068,-3.0295,-3.1286,-3.1599,-3.0281,0.0,-3.0507,-3.0143,0.0,-3.0143,-3.0696,0.0,0.0,-3.0783,-3.1587,-3.2064,-3.1637,-3.2441,-3.3124,-3.3124,-3.3124,-3.3124,-3.3124,-3.2176,-3.0812,-2.8863,-2.8585,-2.794,-2.6592,-2.6496,-2.6255,-2.5742,-2.5693,-2.5693,-2.5693,-2.5693,-2.5693,-2.5693,-2.5693,-2.5975,-2.6496,-2.6496,-2.6784,-2.7309,-2.7309,-2.7309,-2.7309,-2.7309,-2.7357,-2.762,-2.9349,-2.9532,-2.9176,-3.1933,-3.1889,-3.0756,-2.4497,-2.4497,-2.4497,-2.4497,-2.4497,-2.4497,-2.4497,-2.4724,-2.49,-2.49,-2.5448,-2.579,-2.5619,-2.6095,-2.6672,-2.7283,-2.7334,-2.7106,-2.6447,-2.5975,-2.5267,-2.4303,-2.4078,-2.3854,-2.3618,-2.3623,-2.3419,-2.2904,-2.2439,-2.2304,-2.2501,-2.2501,-2.2646,-2.2915,-2.3381,-2.3732,-2.395,-2.3494,-2.337,-2.3504,-2.3267,-2.2915,-2.2625,-2.3805,-2.426,-2.4291,-2.4435,-2.4621,-2.4786,-2.4786,-2.491,-2.5161,-2.5502,-2.5689,-2.573,-2.5409,-2.6127,-2.7159,-2.782,-2.8875,-3.0028,-3.0873,-3.1173,-3.111,-3.0432,-3.0206,-3.0168,-3.0256,0.0,0.0,0.0,0.0,0.0,0.0,-3.0997,-3.1424,-3.1813,-3.2277,-3.2704,-3.3074,-3.3124,-3.3124,-3.3124,-3.2176,-3.1036,-2.9669,-2.9037,-2.8081,-2.6592,-2.6496,-2.6255,-2.5742,-2.5693,-2.5693,-2.5693,-2.5693,-2.5693,-2.5693,-2.5693,-2.5975,-2.6496,-2.6496,-2.6784,-2.7309,-2.7309,-2.7309,-2.7357,-2.7904,-2.8128,-2.8315,-3.026,-3.0396,-2.9852,-3.2208,-3.2568,-3.1989,-2.4662,-2.459,-2.4497,-2.4497,-2.4497,-2.4538,-2.4662,-2.5075,-2.5409,-2.5409,-2.5735,-2.5978,-2.6076,-2.6594,-2.726,-2.8033,-2.8586,-2.8589,-2.7886,-2.7513,-2.6888,-2.5894,-2.552,-2.5101,-2.4693,-2.4577,-2.4156,-2.3381,-2.3173,-2.2966,-2.2873,-2.3142,-2.3217,-2.3215,-2.3795,-2.424,-2.4476,-2.4198,-2.3939,-2.3743,-2.3608,-2.336,-2.3153,-2.4022,-2.4394,-2.4497,-2.4497,-2.4497,-2.4497,-2.4497,-2.458,-2.484,-2.5836,-2.586,-2.5695,-2.6282,-2.7151,-2.7915,-2.8119,-2.9415,-3.0732,-3.0955,-3.0895,-3.0758,-3.0457,-3.0193,-3.0131,-3.0532,-3.0407,0.0,0.0,0.0,-3.0319,-3.057,0.0,-3.1097,-3.1876,-3.2114,-3.2428,-3.3048,-3.3124,-3.3124,-3.3124,-3.2438,-3.1492,-3.0306,-2.9532,-2.8398,-2.6688,-2.6544,-2.6304,-2.583,-2.5732,-2.5693,-2.5693,-2.5781,-2.5781,-2.5693,-2.583,-2.612,-2.6496,-2.6602,-2.688,-2.7309,-2.7309,-2.7452,-2.7715,-2.8398,-2.8852,-2.9268,-3.0678,-3.0946,-3.0812,-3.2481,-3.2939,-3.2711,-2.5075,-2.4807,-2.4497,-2.4497,-2.4497,-2.4652,-2.5096,-2.5585,-2.5854,-2.5854,-2.708,-2.7551,-2.6676,-2.9455,-3.1054,-3.0169,-3.184,-3.2284,-3.085,-3.0759,-3.0304,-2.9376,-2.8021,-2.7075,-2.6615,-2.5221,-2.4291,-2.3898,-2.4239,-2.4239,-2.3878,-2.4732,-2.4414,-2.3225,-2.4084,-2.4487,-2.4497,-2.4487,-2.4724,-2.5086,-2.4631,-2.4445,-2.4394,-2.4043,-2.4167,-2.4497,-2.4497,-2.4497,-2.4497,-2.4497,-2.4797,-2.5334,-2.6379,-2.6608,-2.6753,-2.7676,-2.7983,-2.8109,-2.8541,-2.9777,-3.0748,-3.017,-3.0704,-3.1097,-3.0055,-3.0218,-3.0595,-3.062,-3.0997,-3.1348,-3.1361,-3.1348,-3.1173,-3.0696,-3.1035,0.0,0.0,-3.1876,-3.2428,-3.3048,-3.3124,-3.3124,-3.3124,-3.3068,-3.2251,-3.0351,-3.017,-2.9222,-2.6986,-2.6651,-2.6342,-2.61,-2.583,-2.5693,-2.5693,-2.5965,-2.5965,-2.5693,-2.6217,-2.6496,-2.6496,-2.6757,-2.7034,-2.7309,-2.7309,-2.7809,-2.8678,-2.8678,-2.9268,-3.017,-3.0215,-3.0756,-3.1669,-3.2711,-3.2481,-3.1801,-2.5627,-2.5533,-2.543,-2.543,-2.5192,-2.5106,-2.5595,-2.6041,-2.6606,-2.7222,-2.7713,-2.8249,-2.8933,-2.9723,-3.047,-3.1089,-3.1713,-3.1916,-3.1416,-3.1067,-3.0628,-2.9984,-2.9462,-2.8692,-2.759,-2.738,-2.6433,-2.4778,-2.4587,-2.4284,-2.3909,-2.3874,-2.3811,-2.367,-2.4228,-2.4828,-2.543,-2.543,-2.5513,-2.5595,-2.4797,-2.4497,-2.4487,-2.4332,-2.4363,-2.4497,-2.4497,-2.4497,-2.4497,-2.4497,-2.4611,-2.4949,-2.6163,-2.6346,-2.6314,-2.7488,-2.8087,-2.8455,-2.8964,-2.9859,-3.0737,-3.0885,-3.0879,-3.0783,-3.0419,-3.0482,-3.062,-3.062,-3.1035,-3.1386,-3.1386,-3.1386,-3.1336,-3.116,-3.1273,-3.1386,0.0,-3.1549,-3.2014,-3.3011,-3.3124,-3.3124,-3.3124,-3.2481,-3.1581,-3.0306,-2.9578,-2.8538,-2.6996,-2.6794,-2.6651,-2.6342,-2.6255,-2.6217,-2.6217,-2.6304,-2.6304,-2.6217,-2.64,-2.6592,-2.6757,-2.6853,-2.7034,-2.7309,-2.7309,-2.7809,-2.8771,-2.9395,-2.9897,-3.0351,-3.1625,-3.1901,-3.1625,-3.1989,-3.2307,-3.2624,-2.6138,-2.5989,-2.5875,-2.5875,-2.5782,-2.5802,-2.6082,-2.6829,-2.7576,-2.8163,-2.8562,-2.9127,-3.009,-3.0229,-3.0614,-3.1512,-3.1945,-3.212,-3.212,-3.1834,-3.1525,-3.1235,-3.0834,-3.0146,-2.9046,-2.9003,-2.7906,-2.5738,-2.5723,-2.5168,0.0,0.0,0.0,0.0,-2.4301,-2.491,-2.5658,-2.5813,-2.6024,-2.6061,-2.5316,-2.5016,-2.5016,-2.5016,-2.4776,-2.4497,-2.4497,-2.4497,-2.4497,-2.4497,-2.4815,-2.5402,-2.6634,-2.6921,-2.7032,-2.8415,-2.8903,-2.9051,-2.9196,-3.0052,-3.0841,-3.0629,-3.0592,-3.062,-3.062,-3.0758,-3.0947,-3.1148,-3.1612,-3.1989,-3.1989,-3.1989,-3.1913,-3.1712,-3.1687,-3.1612,0.0,-3.1738,-3.2177,-3.2704,-3.2767,-3.2855,-3.3056,-3.2525,-3.1581,-3.0306,-2.9578,-2.8585,0.0,-2.6948,-2.6805,-2.6651,-2.6554,-2.6496,-2.6496,-2.6592,-2.6592,-2.6496,-2.6688,-2.6842,-2.69,-2.6996,-2.7129,-2.7309,-2.7309,-2.8034,-2.9268,-2.9943,-3.0621,-3.1303,-3.2208,-3.2394,-3.212,-3.212,-3.2537,-3.3124,-2.6563,-2.6293,-2.5993,-2.6038,-2.6356,-2.6646,-2.6692,-2.7839,-2.8724,-2.8817,-2.9681,-3.0306,-3.0351,-3.1125,-3.1669,-3.1669,-3.2525,-3.3124,-3.3124,-3.3124,-3.3124,-3.3124,-3.2164,-3.1428,-3.0965,-3.0062,-2.8659,-2.6767,-2.7555,-2.679,0.0,0.0,0.0,0.0,-2.4333,-2.4745,-2.5241,-2.5699,-2.6144,-2.6573,-2.6092,-2.5941,-2.5875,-2.5875,-2.5347,-2.4559,-2.4538,-2.4518,-2.4497,-2.454,-2.5402,-2.6646,-2.7718,-2.8238,-2.8769,-3.0174,-3.0302,-2.9857,-2.9287,-3.0184,-3.0982,-2.9516,-2.9865,-3.0583,-3.0608,-3.0997,-3.1499,-3.2026,-3.2616,-3.3074,-3.3074,-3.3056,-3.2893,-3.234,-3.2227,-3.2039,-3.1537,-3.2353,-3.2805,-3.2315,-3.2185,-3.2398,-3.3018,-3.3025,-3.2208,-3.0351,-3.017,-2.9303,0.0,-2.7081,-2.6948,-2.69,-2.6651,-2.6544,-2.6544,-2.6794,-2.6794,-2.6544,-2.7071,-2.7177,-2.6948,-2.7167,-2.7309,-2.7309,-2.7309,-2.8398,-3.0215,-3.0215,-3.1347,-3.3025,-3.2033,-3.2264,-3.3124,-3.3124,-3.3124,-3.3124,-2.7102,-2.704,-2.7181,-2.7857,-2.7499,-2.7359,-2.8039,-2.8462,-2.9222,-3.0678,-3.108,-3.1536,-3.2251,-3.2581,-3.2711,-3.2711,-3.2939,-3.3124,-3.3124,-3.3124,-3.3124,-3.3124,-3.2853,-3.2333,-3.142,-3.1189,-2.9931,-2.7677,-2.759,-2.6693,-2.4993,0.0,0.0,0.0,-2.4146,-2.4664,-2.572,-2.5834,-2.6144,-2.6604,-2.648,-2.6231,-2.5875,-2.5875,-2.574,-2.5492,-2.5127,-2.4797,-2.4615,-2.5263,-2.5707,-2.6256,-2.7888,-2.8429,-2.8714,-2.9704,-2.9936,-2.9801,-2.9665,-2.9924,-3.0229,-3.0201,-3.0096,-3.0118,-3.052,-3.0721,-3.0859,-3.0997,-3.1775,-3.2441,-3.2441,-3.278,-3.3074,-3.288,-3.2491,-3.2315,-3.2604,-3.2206,-3.2077,-3.278,-3.1871,-3.1663,-3.2975,-3.1801,-3.0756,-3.026,-2.9498,-2.8585,-2.7347,-2.7904,-2.7904,-2.7214,-2.7119,-2.7071,-2.7071,-2.7167,-2.7167,-2.7119,-2.7214,-2.7262,-2.7225,-2.7262,-2.7309,-2.7309,-2.7309,-2.8398,-3.0215,-3.0215,-3.1347,-3.3068,-3.281,-3.2853,-3.3124,-3.3124,-3.3124,-3.3124,-2.8121,-2.8789,-2.9365,-2.966,-2.9476,-2.9299,-2.9335,-2.9715,-3.0362,-3.1448,-3.1989,-3.2481,-3.3038,-3.3124,-3.3124,-3.3124,-3.3124,-3.3124,-3.3124,-3.3124,-3.3124,-3.3124,-3.3124,-3.2853,-3.2264,-3.2264,-3.1273,-2.928,-2.8428,-2.7249,-2.5848,0.0,0.0,0.0,0.0,-2.4799,-2.5951,-2.6802,-2.6921,-2.6625,-2.7288,-2.7121,0.0,-2.6532,-2.6397,-2.6144,-2.5906,-2.5399,-2.4895,-2.557,-2.6069,-2.6607,-2.8051,-2.8752,-2.917,-2.9663,-2.9792,-2.9792,-2.9792,-2.9792,-2.9867,-3.0181,-3.0018,-2.9942,-3.0495,-3.062,-3.0683,-3.0909,-3.1436,-3.1851,-3.1851,-3.2315,-3.278,-3.3074,-3.2805,-3.2616,-3.2692,-3.2365,-3.2265,-3.2654,-3.2148,-3.2148,-3.3,-3.1347,-3.0351,-3.0756,-2.9897,-2.8945,-2.7951,-2.8409,-2.8269,-2.7309,-2.7309,-2.7309,-2.7309,-2.7309,-2.7309,-2.7309,-2.7309,-2.7309,-2.7309,-2.7309,-2.7309,-2.7299,-2.7715,-2.876,-3.0215,-3.0621,-3.1713,-3.3124,-3.3124,-3.3124,-3.3124,-3.3124,-3.3124,-3.3124,-2.9122,-3.0569,-3.1477,-3.1146,-3.1481,-3.1563,-3.0913,-3.1312,-3.1765,-3.1866,-3.2618,-3.3124,-3.3124,-3.3124,-3.3124,-3.3124,-3.3124,-3.3124,-3.3124,-3.3124,-3.3124,-3.3124,-3.3124,-3.3124,-3.3124,-3.3124,-3.2389,-3.097,-2.9691,-2.8279,-2.6735,0.0,0.0,0.0,0.0,-2.508,-2.6198,-2.7877,-2.7921,-2.6961,-2.819,-2.8128,-2.7309,-2.7309,-2.7061,-2.6698,-2.6774,-2.6166,-2.5376,-2.5999,-2.6629,-2.7376,-2.8439,-2.9271,-2.9792,-2.9792,-2.9792,-2.9792,-2.9792,-2.9792,-2.9792,-2.9792,-2.9792,-2.9917,-3.0407,-3.0507,-3.0633,-3.1085,-3.1235,-3.1286,-3.1286,-3.1738,-3.2315,-3.2968,-3.3018,-3.2817,-3.239,-3.2754,-3.2893,-3.239,-3.2682,0.0,-3.3081,-3.1436,-3.0711,-3.1536,-3.0845,-2.9897,-2.8771,0.0,-2.8409,-2.7309,-2.7309,-2.7309,-2.7309,-2.7309,-2.7309,-2.7309,-2.7309,-2.7309,-2.7309,-2.7309,-2.7309,-2.7347,-2.8315,-2.9268,-3.026,-3.1214,-3.2176,-3.3124,-3.3124,-3.3124,-3.3124,-3.3124,-3.3124,-3.3124,-2.8721,-2.9699,-3.073,-3.1464,-3.1675,-3.2183,-3.3703,-3.2958,-3.2564,-3.3382,-3.327,-3.3124,-3.3124,-3.3124,-3.3124,-3.3124,-3.3124,-3.3124,-3.3124,-3.3124,-3.3124,-3.3124,-3.3124,-3.3124,-3.3124,-3.3124,-3.2575,-3.1492,-3.0853,-2.9413,-2.7173,-2.6574,0.0,0.0,0.0,-2.5462,-2.7193,-2.7838,-2.8217,-2.8326,-2.8598,-2.8128,-2.7309,-2.7309,-2.7258,-2.7228,-2.7607,-2.6878,-2.6009,-2.764,-2.7946,-2.799,-2.9674,-3.0025,-2.9792,-2.9792,-2.9792,-2.9792,-2.9792,-2.9792,-2.9792,-2.9792,-2.9792,-2.9817,-2.9917,-2.9942,-2.9967,-3.0055,-3.0432,-3.0758,-3.0758,-3.1185,-3.1876,-3.2948,-3.2679,-3.2491,-3.2867,-3.3018,-3.3043,-3.293,-3.2289,-3.2176,-3.3025,-3.2033,-3.1403,-3.1581,-3.1448,-3.0588,-2.8817,0.0,-2.913,0.0,-2.7309,-2.7309,0.0,0.0,-2.7309,-2.7309,-2.7309,-2.7309,-2.7309,-2.7309,-2.7309,-2.7347,-2.8315,-2.9268,-3.026,-3.1214,-3.2176,-3.3124,-3.3124,-3.3124,-3.3124,-3.3124,-3.3124,-3.3124,-3.0515,-3.1687,-3.281,-3.3563,-3.3932,-3.4358,-3.4994,-3.4479,-3.3958,-3.3928,-3.3671,-3.3395,-3.3106,-3.3124,-3.3124,-3.3124,-3.3124,-3.3124,-3.3124,-3.3124,-3.3124,-3.3124,-3.3124,-3.3124,-3.3124,-3.3124,-3.284,-3.2394,-3.1399,-3.0072,-2.842,-2.7513,-2.627,-2.4902,0.0,-2.6464,0.0,-2.9126,-2.9578,-2.9127,-2.9385,-2.8899,-2.7998,-2.7489,-2.7309,-2.7373,-2.8093,-2.7912,-2.7541,-2.8956,-2.892,-2.8595,-3.0417,-3.0645,-3.0218,-3.0218,-3.0018,-2.9792,-2.9792,-2.9792,-2.9792,-2.9792,-2.9792,-2.9792,-2.9792,-2.9792,-2.9792,-2.9792,-3.0005,-3.0281,-3.057,-3.1035,-3.1562,-3.2114,-3.2466,-3.2654,-3.2629,-3.288,-3.3124,-3.3124,-3.2667,-3.2581,-3.3068,-3.2667,-3.2164,-3.1625,-3.1581,-3.0767,-2.8806,0.0,-2.9314,0.0,0.0,0.0,-2.7309,0.0,-2.7309,-2.7309,-2.7309,-2.7309,-2.7309,-2.7309,-2.7584,-2.8081,-2.9037,-3.0034,-3.0991,-3.1989,-3.2667,-3.3124,-3.3124,-3.3124,-3.3124,-3.3124,-3.3124,-3.3124,-3.2543,-3.3808,-3.4896,-3.5313,-3.5727,-3.5971,-3.5734,-3.5671,-3.532,-3.4374,-3.4148,-3.3872,-3.3319,-3.3257,-3.3206,-3.3124,-3.3124,-3.3124,-3.3124,-3.3124,-3.3124,-3.3124,-3.3194,-3.3257,-3.3257,-3.3257,-3.3257,-3.3257,-3.197,-3.0841,-2.9753,-2.8661,-2.736,-2.6018,-2.7108,-2.7799,0.0,0.0,-3.087,-2.9962,-3.0368,-2.9897,-2.8945,-2.8222,-2.7893,-2.8034,-2.8991,-2.9176,-2.9191,-3.035,-3.0036,-2.9417,-3.1042,-3.1198,-3.0783,-3.0783,-3.0394,-2.9967,-2.9967,-2.988,-2.9792,-2.9792,-2.9792,-2.9792,-2.9792,-2.9792,-2.9792,-2.9792,-2.9792,-2.9955,-3.052,-3.0846,-3.1122,-3.1348,-3.2139,-3.2604,-3.2252,-3.2717,-3.3124,-3.3124,-3.3124,-3.3124,-3.3124,-3.3124,-3.2667,-3.1669,-3.1581,-3.0857,-2.913,-2.9578,0.0,0.0,0.0,-2.7309,-2.7309,0.0,-2.7309,-2.7309,-2.7309,-2.7309,-2.7309,-2.7489,-2.7998,-2.8771,-2.9988,-3.1036,-3.1989,-3.2754,-3.3124,-3.3124,-3.3124,-3.3124,-3.3124,-3.3124,-3.3124,-3.3124,-3.333,-3.4056,-3.4812,-3.486,-3.4896,-3.5259,-3.62,-3.6329,-3.6069,-3.542,-3.4906,-3.4437,-3.3884,-3.3822,-3.3621,-3.3162,-3.3124,-3.3124,-3.3124,-3.3124,-3.3124,-3.3124,-3.3558,-3.3822,-3.3822,-3.3822,-3.3822,-3.3822,-3.3183,-3.2148,-3.0776,-3.0642,-2.9805,-2.8488,-2.862,-2.9382,0.0,-3.0855,-3.1112,-3.142,-3.1468,-3.0902,-3.0034,-2.9943,-2.9943,-3.0034,-3.0991,-3.0767,-3.0339,-3.2185,-3.1829,-3.0802,-3.1791,-3.1763,-3.1323,-3.1323,-3.0947,-3.0545,-3.0545,-3.0168,-2.9792,-2.9792,-2.9792,-2.9792,-2.9792,-2.9792,-2.9792,-2.9792,-2.9792,-2.9955,-3.052,-3.0244,-3.0269,-3.1235,-3.1486,-3.17,-3.2152,-3.2717,-3.3124,-3.3124,-3.3124,-3.3124,-3.3124,-3.3124,-3.2667,-3.1669,-3.1581,-3.1169,-3.0125,-2.9268,-2.8362,-2.7309,-2.7309,-2.7309,-2.7309,-2.7309,-2.7309,-2.7309,-2.7309,-2.7309,-2.7309,-2.8175,-2.8631,-2.8817,-3.0678,-3.2033,-3.2982,-3.3081,-3.3124,-3.3124,-3.3124,-3.3124,-3.3124,-3.3124,-3.3124,-3.3124,-3.4141,-3.4532,-3.4981,-3.5667,-3.5763,-3.5906,-3.631,-3.6405,-3.6329,-3.6056,-3.5554,-3.4956,-3.4449,-3.4098,-3.3809,-3.3583,-3.3269,-3.3262,-3.3545,-3.3571,-3.3721,-3.4048,-3.4274,-3.4399,-3.4399,-3.4399,-3.4223,-3.3897,-3.3684,-3.2779,-3.1312,-3.1312,-3.0743,-2.9627,-2.9938,-3.0536,-3.1356,-3.1976,-3.2327,-3.2438,-3.1845,-3.1403,-3.0991,-3.0396,-3.0215,-3.0306,-3.1258,-3.1347,-3.1258,-3.2624,-3.229,-3.1443,-3.2418,-3.234,-3.1888,-3.1888,-3.1499,-3.1009,-3.0708,-3.0457,-3.0206,-2.988,-2.9792,-2.9792,-2.9792,-2.9792,-2.9792,-2.9792,-2.9792,-2.9867,-3.008,-3.0218,-3.0319,-3.0419,-3.1248,-3.1838,-3.1738,-3.2503,-3.3124,-3.3124,-3.3124,-3.3124,-3.3124,-3.3124,-3.2939,-3.2537,-3.2481,-3.1857,-3.026,-2.9806,-2.913,-2.8175,0.0,-2.7309,-2.7309,-2.7309,-2.7309,-2.7309,-2.7309,-2.7309,-2.7309,-2.8269,-2.936,-3.0531,-3.1901,-3.2711,-3.3124,-3.3124,-3.3124,-3.3124,-3.3124,-3.3124,-3.3124,-3.3124,-3.3124,-3.3124,-3.5126,-3.5271,-3.5523,-3.6263,-3.6405,-3.6405,-3.6405,-3.6405,-3.6405,-3.6405,-3.6031,-3.5533,-3.4981,-3.4613,-3.4324,-3.4161,-3.3784,-3.3721,-3.411,-3.4135,-3.4311,-3.4655,-3.4831,-3.4919,-3.4919,-3.4919,-3.4731,-3.4387,-3.406,-3.3332,-3.2264,-3.2106,-3.1669,-3.1057,-3.1402,-3.1723,-3.2077,-3.2797,-3.3124,-3.3038,-3.2307,-3.2033,-3.1945,-3.0991,-3.08,-3.1125,-3.1492,-3.1801,-3.2176,-3.2853,-3.2624,-3.2176,-3.2896,-3.2805,-3.2466,-3.2466,-3.2064,-3.1549,-3.1185,-3.0859,-3.052,-3.0131,-2.9917,-2.9792,-2.9792,-2.9792,-2.9792,-2.9792,-2.9792,-2.9792,-2.9792,-3.0118,-3.0244,-2.9854,-3.1022,-3.1838,-3.1449,-3.2365,-3.3124,-3.3124,-3.293,-3.2893,-3.3056,-3.2918,-3.2807,-3.2655,-3.2667,-3.1933,-3.0306,-2.9897,-2.9314,0.0,0.0,0.0,-2.7309,-2.7309,-2.7309,-2.7309,-2.7309,-2.7441,-2.7762,-2.8991,-3.0441,-3.2077,-3.281,-3.3124,-3.3124,-3.3124,-3.3124,-3.3124,-3.3124,-3.3124,-3.3124,-3.3124,-3.3124,-3.3124,-3.6358,-3.6358,-3.6358,-3.6405,-3.6405,-3.6405,-3.6405,-3.6405,-3.6405,-3.6405,-3.6405,-3.6144,-3.5545,-3.5483,-3.5257,-3.4718,-3.4655,-3.4655,-3.4668,-3.4668,-3.4668,-3.468,-3.5194,-3.5495,-3.5495,-3.5495,-3.5483,-3.5483,-3.4437,-3.3897,-3.3884,-3.3332,-3.3081,-3.3068,-3.3068,-3.3068,-3.3068,-3.3068,-3.3124,-3.3124,-3.3081,-3.3068,-3.2982,-3.1989,-3.222,-3.2939,-3.1945,-3.2264,-3.3068,-3.3124,-3.3081,-3.3068,-3.3124,-3.3111,-3.3111,-3.3111,-3.2654,-3.2202,-3.219,-3.1424,-3.062,-3.0608,-3.0193,-2.9792,-2.9792,-2.9792,-2.9792,-2.9792,-2.9792,-2.9792,-2.9792,-2.9804,-2.9804,-2.9792,0.0,-3.1399,-3.1386,-3.2365,-3.3124,-3.3124,-3.2566,-3.2453,-3.3018,-3.2554,-3.2059,-3.1633,-3.1625,-3.1214,-3.026,-2.9268,-2.8315,-2.7357,-2.7309,0.0,-2.7309,-2.7309,-2.7309,-2.7309,-2.7309,-2.7809,-2.8771,-3.0666,-3.212,-3.3068,-3.3068,-3.3124,-3.3124,-3.3124,-3.3124,-3.3124,-3.3124,-3.3124,-3.3124,-3.3124,-3.3124,-3.3124,-3.6405,-3.6405,-3.6405,-3.6405,-3.6405,-3.6405,-3.6405,-3.6405,-3.6405,-3.6405,-3.6405,-3.6342,-3.6119,-3.5768,-3.542,-3.5257,-3.4893,-3.4876,-3.5207,-3.5245,-3.5454,-3.5818,-3.6006,-3.6094,-3.6094,-3.6094,-3.5918,-3.5495,0.0,0.0,-3.3332,-3.3156,-3.3124,-3.3124,-3.3124,-3.3124,-3.3081,-3.2351,-3.2077,-3.2077,-3.2077,-3.1713,-3.1169,-3.1492,-3.1801,-3.2033,-3.1713,-3.2264,-3.3124,-3.3124,-3.3124,-3.3124,-3.3124,-3.3124,-3.3124,-3.3124,-3.2943,-3.2717,-3.2315,-3.1964,-3.1537,-3.0796,-3.0482,-3.0256,-2.988,-2.9792,-2.9792,-2.9792,-2.9792,-2.9792,-2.9792,-2.9792,-2.9917,-3.0294,-3.0934,0.0,-3.1901,-3.2604,-3.2853,-3.2164,-3.1918,-3.162,-3.1158,-3.0959,-3.0802,-3.0654,-3.0666,-3.0531,-3.0215,-2.9268,0.0,0.0,-2.762,0.0,-2.7309,-2.7309,-2.7309,-2.7309,-2.7309,-2.8128,-2.9761,-3.1036,-3.2176,-3.3124,-3.3124,-3.3124,-3.3124,-3.3124,-3.3124,-3.3124,-3.3124,-3.3124,-3.3124,-3.3124,-3.3124,-3.3124,-3.6405,-3.6405,-3.6405,-3.6405,-3.6405,-3.6405,-3.6405,-3.6405,-3.6405,-3.6405,-3.6405,-3.6405,-3.6405,-3.6056,-3.5855,-3.5855,-3.5542,-3.5479,-3.583,-3.5855,-3.6006,-3.6392,-3.6405,-3.6405,-3.6405,-3.6405,0.0,-3.5855,-3.509,-3.4161,-3.3124,-3.3124,-3.3124,-3.3068,-3.2711,-3.2537,-3.2481,-3.148,-3.108,-3.108,-3.108,-3.0711,-3.0215,-3.0441,-3.0767,-3.108,-3.108,-3.1713,-3.2581,-3.2982,-3.3124,-3.3124,-3.3124,-3.3124,-3.3124,-3.3124,-3.3124,-3.3006,-3.2641,-3.2378,-3.2051,-3.1386,-3.0909,-3.047,-2.9917,-2.9792,-2.9792,-2.9792,-2.9792,-2.9792,-2.9792,-2.9967,-3.0218,-3.0557,-3.1223,-3.1689,-3.169,-3.2179,-3.2164,-3.1169,-3.0847,-3.0578,-3.0237,-2.9986,-2.9817,-2.9658,-2.9624,0.0,0.0,0.0,-2.8538,-2.8175,-2.7631,-2.7309,-2.7309,-2.7309,-2.7309,-2.7309,-2.8034,-2.9037,-3.026,-3.1581,-3.2494,-3.3124,-3.3124,-3.3124,-3.3124,-3.3124,-3.3124,-3.3124,-3.3124,-3.3124,-3.3124,-3.3124,-3.3124,-3.3124,-3.6405,-3.6405,-3.6405,-3.6405,-3.6405,-3.6405,-3.6405,-3.6405,-3.6405,-3.6405,-3.6405,-3.6405,-3.6405,-3.6405,-3.6405,-3.6405,0.0,0.0,-3.6405,-3.6405,-3.6405,-3.6405,-3.6405,-3.6405,-3.6405,-3.6405,-3.6392,-3.6355,-3.5278,-3.4211,-3.3174,-3.3169,-3.3156,-3.3081,-3.2069,-3.1617,-3.1536,-3.0531,-3.0079,-3.0079,-3.0079,-3.0079,-2.9897,-2.9037,-2.9268,-3.0079,-3.0079,-3.0711,-3.1669,-3.2667,-3.2995,-3.3025,-3.3081,-3.3124,-3.3124,-3.3124,-3.3124,-3.3124,-3.3124,-3.2679,-3.2265,-3.2227,-3.1411,-3.0482,-2.9967,-2.9817,-2.9792,-2.9792,-2.9792,-2.9804,-2.9842,-3.0269,-3.0633,-3.0721,-3.148,-3.1794,-3.0977,-3.1225,-3.1169,-3.0215,0.0,-2.9452,-2.9943,-2.9499,-2.9015,-2.8645,-2.8585,0.0,0.0,0.0,-2.8222,-2.7309,-2.7309,-2.7309,-2.7309,-2.7309,-2.7309,-2.7441,-2.9303,-3.0215,-3.0351,-3.2251,-3.3124,-3.3124,-3.3124,-3.3124,-3.3124,-3.3124,-3.3124,-3.3124,-3.3124,-3.3124,-3.3124,-3.3124,-3.3124,-3.3124,-3.6405,-3.6405,-3.6405,-3.6405,-3.6405,-3.6405,-3.6405,-3.6405,-3.6405,-3.6405,-3.6405,-3.6405,-3.6405,-3.6405,-3.6405,-3.6405,-3.6405,-3.6405,-3.6405,-3.6405,-3.6405,-3.6405,-3.6405,-3.6405,-3.6405,-3.6405,-3.6157,-3.5683,-3.5433,-3.4743,-3.3709,-3.4135,-3.3884,-3.3093,-3.2479,-3.1973,-3.1492,-2.9772,-2.9037,-2.9037,-2.9037,-2.8631,-2.8034,-2.8538,-2.8863,-2.9037,-2.9037,-2.9669,-3.0666,-3.1625,-3.1945,-3.2077,-3.2853,-3.3124,-3.3124,-3.3124,-3.3124,-3.3124,-3.3124,-3.3023,-3.2767,-3.2328,-3.1411,-3.0583,-3.0457,-3.0093,-2.9792,-2.9792,-2.9792,-2.993,-3.0344,-3.052,-3.0884,-3.17,-3.1452,-3.1191,-3.1384,-3.0909,-3.017,0.0,-2.8938,-2.8639,-2.8023,-2.7845,-2.773,0.0,0.0,-2.7536,-2.7309,-2.7489,-2.7536,-2.7309,-2.7309,-2.7309,-2.7309,-2.7309,-2.7668,-2.8362,-2.9624,-3.0576,-3.1315,-3.2537,-3.3124,-3.3124,-3.3124,-3.3124,-3.3124,-3.3124,-3.3124,-3.3124,-3.3124,-3.3124,-3.3124,-3.3124,-3.3124,-3.3124,-3.6405,-3.6405,-3.6405,-3.6405,-3.6405,-3.6405,-3.6405,-3.6405,-3.6405,-3.6405,-3.6405,-3.6405,-3.6405,-3.6405,-3.6405,-3.6405,-3.6405,-3.6405,-3.6405,-3.6405,-3.6405,-3.6405,-3.6405,-3.6405,-3.6405,-3.6405,-3.6094,-3.5495,-3.5495,-3.5069,-3.4286,-3.4575,-3.4399,-3.379,-3.2577,-3.1816,-3.1197,-2.9182,-2.8237,-2.8034,-2.8034,-2.7762,-2.7357,-2.7857,-2.8034,-2.8128,-2.8538,-2.9037,-2.9669,-3.0621,-3.0946,-3.108,-3.1625,-3.1757,-3.1845,-3.2307,-3.2394,-3.2394,-3.2394,-3.2394,-3.2389,-3.2226,-3.1775,-3.1286,-3.1022,-3.0557,-3.0244,-3.047,-3.0331,-3.0331,-3.0871,-3.1173,-3.1372,-3.1526,-3.135,-3.0937,-3.0361,-2.9852,-2.913,-2.8175,-2.8034,-2.7857,-2.7347,-2.7309,-2.7309,-2.7309,-2.7309,0.0,-2.7309,-2.7309,-2.7309,-2.7309,-2.7309,-2.7309,-2.7309,-2.7726,-2.8222,-2.8724,-3.017,-3.1125,-3.1625,-3.2624,-3.3124,-3.3124,-3.3124,-3.3124,-3.3124,-3.3124,-3.3124,-3.3124,-3.3124,-3.3124,-3.3124,-3.3124,-3.3124,-3.3124,-3.6405,-3.6405,-3.6405,-3.6405,-3.6405,-3.6405,-3.6405,-3.6405,-3.6405,-3.6405,-3.6405,-3.6405,-3.6405,-3.6405,-3.6405,-3.6405,-3.6405,-3.6405,-3.6405,-3.6405,-3.6405,-3.6405,-3.6405,-3.6405,-3.6405,-3.6405,-3.6132,-3.5621,-3.5621,-3.5345,-3.4806,-3.4744,-3.4636,-3.4384,-3.2418,-3.1323,-3.0762,-2.8823,-2.7769,-2.7413,-2.7413,-2.7372,-2.7309,-2.7309,-2.7309,-2.7404,-2.8222,-2.8491,-2.8631,-2.9624,-2.9988,-2.9988,-3.017,-3.0215,-3.0351,-3.1169,-3.1258,-3.1214,-3.1536,-3.1581,-3.1736,-3.2199,-3.2277,-3.2089,-3.1625,-3.111,-3.0859,-3.1298,-3.1035,-3.0884,-3.1424,-3.1776,-3.1764,-3.1026,-3.1061,-3.0588,-2.8945,0.0,-2.8175,-2.7394,-2.7309,-2.7309,-2.7309,-2.7309,-2.7309,-2.7309,-2.7309,-2.7309,-2.7309,-2.7309,-2.7309,-2.7309,-2.7309,-2.7309,-2.7309,-2.8222,-2.8771,-2.8945,-3.0722,-3.1669,-3.1857,-3.2711,-3.3124,-3.3124,-3.3124,-3.3124,-3.3124,-3.3124,-3.3124,-3.3124,-3.3124,-3.3124,-3.3124,-3.3124,-3.3124,-3.3124,-3.6405,-3.6405,-3.6405,-3.6405,-3.6405,-3.6405,-3.6405,-3.6405,-3.6405,-3.6405,-3.6405,-3.6405,-3.6405,-3.6405,-3.6405,-3.6405,-3.6405,-3.6405,-3.6405,-3.6405,-3.6405,-3.6405,-3.6405,-3.6405,-3.6405,-3.6405,-3.6367,-3.6279,-3.6279,-3.5956,-3.5382,-3.4962,-3.4291,-3.3293,-3.1712,-3.0729,-3.0154,-2.8989,-2.8245,-2.7821,-2.7821,-2.7593,-2.7309,-2.7309,-2.7309,-2.7309,-2.7441,-2.7536,-2.7668,-2.8631,-2.8945,-2.9084,-2.9943,-3.0215,-3.0215,-3.0351,-2.9818,-2.9498,-3.1169,-3.1581,-3.1833,-3.2741,-3.2579,-3.219,-3.2102,-3.1662,-3.1298,-3.1373,-3.1323,-3.1436,-3.1989,-3.1508,-3.1117,-3.1432,-3.0169,-2.9037,-2.8724,0.0,-2.7441,-2.7309,-2.7309,-2.7309,-2.7309,-2.7309,-2.7309,-2.7309,-2.7309,-2.7309,-2.7309,-2.7309,-2.7309,-2.7309,-2.7309,-2.7309,-2.7309,-2.8222,-2.913,-2.9988,-3.108,-3.2033,-3.2853,-3.3025,-3.3124,-3.3124,-3.3124,-3.3124,-3.3124,-3.3124,-3.3124,-3.3124,-3.3124,-3.3124,-3.3124,-3.3124,-3.3124,-3.3124,-3.6405,-3.6405,-3.6405,-3.6405,-3.6405,-3.6405,-3.6405,-3.6405,-3.6405,-3.6405,-3.6405,-3.6405,-3.6405,-3.6405,-3.6405,-3.6405,-3.6405,-3.6405,-3.6405,-3.6405,-3.6405,-3.6405,-3.6405,-3.6405,-3.6405,-3.6405,-3.6405,-3.6405,-3.6405,-3.6279,-3.5994,-3.5161,-3.4511,-3.3947,-3.2077,-3.0985,-3.0438,-2.9423,-2.8721,-2.8297,-2.8297,-2.8173,-2.7986,-2.7986,-2.7831,-2.7614,-2.7614,-2.7458,-2.7357,-2.7809,-2.7951,-2.8034,-2.8491,-2.862,-2.8713,-2.9222,-2.9441,-2.9715,-3.0576,-3.1214,-3.1845,-3.2853,-3.288,-3.2679,-3.2679,-3.224,-3.1913,-3.2227,-3.2051,-3.1834,-3.1859,-3.1525,-3.0985,-3.0181,-2.9268,-2.8538,-2.8045,-2.7584,-2.7309,-2.7309,-2.7309,-2.7309,-2.7309,-2.7309,-2.7309,-2.7309,-2.7309,-2.7309,-2.7309,-2.7309,-2.7309,-2.7309,-2.7309,-2.7309,-2.7309,-2.8222,-2.9222,-3.0215,-3.1169,-3.212,-3.3124,-3.3124,-3.3124,-3.3124,-3.3124,-3.3124,-3.3124,-3.3124,-3.3124,-3.3124,-3.3124,-3.3124,-3.3124,-3.3124,-3.3124,-3.3124,-3.6405,-3.6405,-3.6405,-3.6405,-3.6405,-3.6405,-3.6405,-3.6405,-3.6405,-3.6405,-3.6405,-3.6405,-3.6405,-3.6405,-3.6405,-3.6405,-3.6405,-3.6405,-3.6405,-3.6405,-3.6405,-3.6405,-3.6405,-3.6405,-3.6405,-3.6405,-3.6405,-3.6405,-3.6405,-3.6263,-3.6013,-3.4921,-3.4276,-3.397,-3.2083,-3.1022,-3.0637,-2.9805,-2.9197,-2.8773,-2.8773,-2.8711,-2.8618,-2.8618,-2.839,-2.8069,-2.7966,-2.7707,-2.7444,-2.734,-2.7309,-2.7309,-2.7309,-2.7309,-2.7441,-2.8175,-2.9084,-2.9943,-3.0396,-3.1036,-3.1801,-3.2581,-3.2939,-3.3025,-3.2797,-3.2546,-3.2456,-3.271,-3.2363,-3.1878,-3.1364,-3.108,-3.0453,-2.8945,0.0,-2.8128,-2.7404,-2.7309,-2.7309,-2.7309,-2.7309,-2.7268,-2.7154,-2.7143,-2.7143,-2.7143,-2.7143,-2.7195,-2.7299,-2.7309,-2.7309,-2.7309,-2.7309,-2.7309,-2.7309,-2.8222,-2.9222,-3.0215,-3.1169,-3.212,-3.3124,-3.3124,-3.3124,-3.3124,-3.3124,-3.3124,-3.3124,-3.3124,-3.3124,-3.3124,-3.3124,-3.3124,-3.3124,-3.3124,-3.3124,-3.3124,-3.6405,-3.6405,-3.6405,-3.6405,-3.6405,-3.6405,-3.6405,-3.6405,-3.6405,-3.6405,-3.6405,-3.6405,-3.6405,-3.6405,-3.6405,-3.6405,-3.6405,-3.6405,-3.6405,-3.6405,-3.6405,-3.6405,-3.6405,-3.6405,-3.6405,-3.6405,-3.6405,-3.6405,-3.6405,-3.5918,-3.4872,-3.3796,-3.2789,-3.1779,-3.064,-3.0078,-3.0037,-2.9995,-2.9673,-2.9259,-2.9259,-2.9001,-2.8618,-2.8618,-2.8597,-2.8504,-2.8079,-2.7903,-2.781,-2.7444,-2.7309,-2.7309,-2.7309,-2.7309,-2.7309,-2.7394,-2.8081,-2.9222,-3.0991,-3.1536,-3.1625,-3.1669,-3.2394,-3.2853,-3.1945,-3.2413,-3.2791,-3.1889,-3.1689,-3.1356,-3.0474,-2.9532,-2.8863,-2.8724,0.0,0.0,-2.7309,-2.7309,-2.7309,-2.7309,-2.7309,-2.7133,-2.6708,-2.6667,-2.6667,-2.6667,-2.6667,-2.6853,-2.7289,-2.7309,-2.7309,-2.7309,-2.7309,-2.7309,-2.7309,-2.8222,-2.9222,-3.0215,-3.1169,-3.212,-3.3124,-3.3124,-3.3124,-3.3124,-3.3124,-3.3124,-3.3124,-3.3124,-3.3124,-3.3124,-3.3124,-3.3124,-3.3124,-3.3124,-3.3124,-3.3124,-3.6405,-3.6405,-3.6405,-3.6405,-3.6405,-3.6405,-3.6405,-3.6405,-3.6405,-3.6405,-3.6405,-3.6405,-3.6405,-3.6405,-3.6405,-3.6405,-3.6405,-3.6405,-3.6405,-3.6405,-3.6405,-3.6405,-3.6405,-3.6405,-3.6405,-3.6405,-3.6405,-3.6405,-3.5715,-3.5223,-3.4775,-3.3028,-3.1982,-3.1534,-3.0495,-2.9994,-2.9994,-2.9994,-2.9891,-2.9735,-2.9735,-2.9622,-2.9466,-2.9466,-2.929,-2.9021,-2.8835,-2.8411,-2.7903,-2.7728,-2.7489,-2.7309,-2.7309,-2.7309,-2.7394,-2.7998,-2.8398,-2.8991,-3.0351,-3.0711,-3.0857,-3.1436,-3.1901,-3.2077,-3.1681,-3.2394,-3.2667,-3.108,-3.1169,-3.1125,-2.9578,-2.8945,-2.8491,-2.7951,0.0,-2.7309,-2.7309,-2.7309,-2.7309,-2.7309,-2.7309,-2.7123,-2.6656,-2.6874,-2.6926,-2.6635,-2.6884,-2.7123,-2.7299,-2.7309,-2.7309,-2.7309,-2.7309,-2.7309,-2.7309,-2.7631,-2.8631,-3.0215,-3.0576,-3.1581,-3.3124,-3.3124,-3.3124,-3.3124,-3.3124,-3.3124,-3.3124,-3.3124,-3.3124,-3.3124,-3.3124,-3.3124,-3.3124,-3.3124,-3.3124,-3.3124,-3.6405,-3.6405,-3.6405,-3.6405,-3.6405,-3.6405,-3.6405,-3.6405,-3.6405,-3.6405,-3.6405,-3.6405,-3.6405,-3.6405,-3.6405,-3.6405,-3.6405,-3.6405,-3.6405,-3.6405,-3.6405,-3.6405,-3.6405,-3.6405,-3.6405,-3.6061,-3.5918,-3.5918,-3.4824,-3.4141,-3.3784,-3.2275,-3.1432,-3.1084,-3.0339,-2.9994,-2.9994,-2.9994,-2.9994,-2.9994,-2.9994,-2.9994,-2.9994,-2.9994,-2.9798,-2.9508,-2.9352,-2.8897,-2.8307,-2.8028,-2.7717,-2.7486,-2.7351,-2.7309,-2.7441,-2.8081,-2.8269,-2.8398,-2.9084,-2.9486,-2.9943,-3.0902,-3.1625,-3.1901,-3.1303,-3.1945,-3.2077,-3.0125,-3.0215,-3.017,-2.8538,-2.8269,-2.8034,-2.7404,-2.7309,-2.7309,-2.7309,-2.7309,-2.7309,-2.7309,-2.7309,-2.7123,-2.6656,-2.6905,-2.6957,-2.6635,-2.6915,-2.7154,-2.7299,-2.7309,-2.7309,-2.7309,-2.7309,-2.7309,-2.7309,-2.7309,-2.8258,-3.0215,-3.0215,-3.1214,-3.3124,-3.3124,-3.3124,-3.3124,-3.3124,-3.3124,-3.3124,-3.3124,-3.3124,-3.3124,-3.3124,-3.3124,-3.3124,-3.3124,-3.3124,-3.3124,-3.6405,-3.6405,-3.6405,-3.6405,-3.6405,-3.6405,-3.6405,-3.6405,-3.6405,-3.6405,-3.6405,-3.6405,-3.6405,-3.6405,-3.6405,-3.6405,-3.6405,-3.6405,-3.6405,-3.6405,-3.6405,-3.6405,-3.6405,-3.6405,-3.6405,-3.5367,-3.4775,-3.4775,-3.3747,-3.2639,-3.1575,-3.1575,-3.1043,-2.9994,-2.9994,-2.9994,-2.9994,-2.9994,-2.9994,-2.9994,-2.9994,-2.9994,-2.9994,-2.9994,-2.9994,-2.9932,-2.9477,-2.9301,-2.9166,-2.8245,-2.7935,-2.7852,-2.7455,-2.7309,-2.7309,-2.7309,-2.7309,-2.7309,-2.7309,-2.7998,-2.8945,-2.9943,-3.1657,-3.2568,-3.0621,-3.0902,-3.1036,-2.9084,-2.8678,-2.8398,-2.7489,-2.7309,-2.7309,-2.7309,-2.7309,-2.7309,-2.7309,-2.7309,-2.7309,-2.7309,-2.7309,-2.7123,-2.6656,-2.6615,-2.6615,-2.6615,-2.6615,-2.6822,-2.7289,-2.7309,-2.7309,-2.7309,-2.7309,-2.7309,-2.7309,-2.7309,-2.8258,-3.0215,-3.0215,-3.1214,-3.3124,-3.3124,-3.3124,-3.3124,-3.3124,-3.3124,-3.3124,-3.3124,-3.3124,-3.3124,-3.3124,-3.3124,-3.3124,-3.3124,-3.3124,-3.3124,-3.6405,-3.6405,-3.6405,-3.6405,-3.6405,-3.6405,-3.6405,-3.6405,-3.6405,-3.6405,-3.6405,-3.6405,-3.6405,-3.6405,-3.6405,-3.6405,-3.6405,-3.6405,-3.6405,-3.6405,-3.6405,-3.6405,-3.6405,-3.6405,-3.6405,-3.5367,-3.4775,-3.4775,-3.2978,-3.1931,-3.1575,-3.0836,-3.0297,-2.9994,-2.9994,-2.9994,-2.9994,-2.9994,-2.9994,-2.9994,-2.9994,-2.9994,-2.9994,-2.9994,-2.9994,-2.9973,-2.9839,-2.958,-2.9259,-2.899,-2.868,-2.8328,-2.7862,-2.7728,-2.7665,-2.7392,-2.7309,-2.7309,-2.7309,-2.7998,-2.8771,-2.9084,-3.0125,-3.0711,-2.9452,-2.9897,-3.0079,-2.8128,-2.8222,-2.8398,-2.7489,-2.7309,-2.7309,-2.7309,-2.7309,-2.7309,-2.7309,-2.7309,-2.7309,-2.7309,-2.7309,-2.7123,-2.6656,-2.6915,-2.6967,-2.6635,-2.6915,-2.7164,-2.7299,-2.7309,-2.7309,-2.7309,-2.7309,-2.7309,-2.7309,-2.794,-2.8945,-3.0215,-3.0857,-3.1857,-3.3124,-3.3124,-3.3124,-3.3124,-3.3124,-3.3124,-3.3124,-3.3124,-3.3124,-3.3124,-3.3124,-3.3124,-3.3124,-3.3124,-3.3124,-3.3124,-3.6405,-3.6405,-3.6405,-3.6405,-3.6405,-3.6405,-3.6405,-3.6405,-3.6405,-3.6405,-3.6405,-3.6405,-3.6405,-3.6405,-3.6405,-3.6405,-3.6405,-3.6405,-3.6405,-3.6405,-3.6405,-3.6405,-3.6013,-3.5763,-3.5763,-3.4727,-3.3932,-3.3525,-3.183,-3.0981,-3.094,-3.0287,-2.9994,-2.9994,-2.9994,-2.9994,-2.9994,-2.9994,-2.9994,-2.9994,-2.9994,-2.9994,-2.9994,-2.9994,-2.9994,-2.9994,-2.9994,-2.9818,-2.9549,-2.9363,-2.9001,-2.8566,-2.8286,-2.8069,-2.7872,-2.7603,-2.7396,-2.7309,-2.7309,-2.7998,-2.8631,-2.8222,-2.9176,-2.9943,-2.8945,-2.9176,-2.9176,-2.7631,-2.7762,-2.7998,-2.7404,-2.7309,-2.7309,-2.7309,-2.7309,-2.7309,-2.7309,-2.7309,-2.7309,-2.7309,-2.7309,-2.7195,-2.6915,-2.7143,-2.7195,-2.6915,-2.7154,-2.7309,-2.7309,-2.7309,-2.7309,-2.7309,-2.7309,-2.7309,-2.7309,-2.8631,-2.9578,-3.0215,-3.0767,-3.1757,-3.3124,-3.3124,-3.3124,-3.3124,-3.3124,-3.3124,-3.3124,-3.3124,-3.3124,-3.3124,-3.3124,-3.3124,-3.3124,-3.3124,-3.3124,-3.3124,-3.6405,-3.6405,-3.6405,-3.6405,-3.6405,-3.6405,-3.6405,-3.6405,-3.6405,-3.6405,-3.6405,-3.6405,-3.6405,-3.6405,-3.6405,-3.6405,-3.6405,-3.6405,-3.6405,-3.6405,-3.6358,-3.6263,-3.5319,-3.4727,-3.4532,-3.3537,-3.26,-3.1575,-3.0547,-2.9994,-2.9994,-2.9994,-2.9994,-2.9994,-2.9994,-2.9994,-2.9994,-2.9994,-2.9994,-2.9994,-2.9994,-2.9994,-2.9994,-2.9994,-2.9994,-2.9994,-2.9994,-2.9994,-2.9932,-2.9508,-2.9083,-2.8731,-2.869,-2.839,-2.8028,-2.7896,-2.7634,-2.7361,-2.732,-2.7893,-2.8362,-2.7489,-2.8631,-2.9715,-2.8771,-2.8585,-2.8305,-2.7489,-2.7309,-2.7309,-2.7309,-2.7309,-2.7309,-2.7309,-2.7309,-2.7309,-2.7309,-2.7309,-2.7309,-2.7309,-2.7309,-2.7309,-2.7309,-2.7309,-2.7309,-2.7309,-2.7309,-2.7309,-2.7309,-2.7309,-2.7309,-2.7309,-2.7309,-2.7309,-2.7309,-2.913,-3.0125,-3.0215,-3.0396,-3.1392,-3.3124,-3.3124,-3.3124,-3.3068,-3.2982,-3.2982,-3.2982,-3.2982,-3.2982,-3.2982,-3.3081,-3.3124,-3.3124,-3.3124,-3.3124,-3.3124,-3.6405,-3.6405,-3.6405,-3.6405,-3.6405,-3.6405,-3.6405,-3.6405,-3.6405,-3.6405,-3.6405,-3.6405,-3.6405,-3.6405,-3.6405,-3.6405,-3.6405,-3.6405,-3.6405,-3.6405,-3.6013,-3.5174,-3.4933,-3.403,-3.2325,-3.2083,-3.183,-3.1575,-3.0547,-2.9994,-2.9994,-2.9994,-2.9994,-2.9994,-2.9994,-2.9994,-2.9994,-2.9994,-2.9994,-2.9994,-2.9994,-2.9994,-2.9994,-2.9994,-2.9994,-2.9994,-2.9994,-2.9994,-2.9984,-2.988,-2.9777,-2.9632,-2.927,-2.9083,-2.8866,-2.8142,-2.7852,-2.7707,-2.7403,-2.7441,-2.7536,-2.7347,-2.7631,-2.7857,-2.7631,-2.7573,-2.7536,-2.7357,-2.7309,-2.7309,-2.7309,-2.7309,-2.7309,-2.7309,-2.7309,-2.7309,-2.7309,-2.7309,-2.7309,-2.7309,-2.7309,-2.7309,-2.7309,-2.7309,-2.7309,-2.7309,-2.7309,-2.7309,-2.7309,-2.7309,-2.7309,-2.7309,-2.7309,-2.7309,-2.7309,-2.8445,-2.9395,-3.0215,-3.1757,-3.2711,-3.3124,-3.3124,-3.3124,-3.3081,-3.2264,-3.1945,-3.1945,-3.1945,-3.1945,-3.1989,-3.281,-3.3124,-3.3124,-3.3124,-3.3124,-3.3124,-3.6405,-3.6405,-3.6405,-3.6405,-3.6405,-3.6405,-3.6405,-3.6405,-3.6405,-3.6405,-3.6405,-3.6405,-3.6405,-3.6405,-3.6405,-3.6405,-3.6405,-3.6156,-3.5667,-3.5619,-3.5174,-3.4091,-3.3537,-3.2728,-3.1626,-3.1084,-3.0836,-3.0836,-3.0287,-2.9994,-2.9994,-2.9994,-2.9994,-2.9994,-2.9994,-2.9994,-2.9994,-2.9994,-2.9994,-2.9994,-2.9994,-2.9994,-2.9994,-2.9994,-2.9994,-2.9994,-2.9994,-2.9994,-2.9994,-2.9994,-2.9994,-2.9953,-2.9715,-2.9477,-2.9208,-2.8721,-2.8421,-2.8152,-2.7696,-2.7572,-2.7521,-2.7361,-2.7309,-2.7309,-2.7309,-2.7309,-2.7309,-2.7309,-2.7309,-2.7309,-2.7309,-2.7309,-2.7309,-2.7309,-2.7309,-2.7309,-2.7309,-2.7309,-2.7309,-2.7309,-2.7309,-2.7309,-2.7309,-2.7309,-2.7309,-2.7309,-2.7309,-2.7309,-2.7309,-2.7309,-2.7309,-2.7309,-2.7309,-2.7309,-2.7309,-2.8222,-2.8945,-2.9486,-3.0979,-3.1933,-3.2351,-3.1945,-3.1713,-3.1713,-3.1169,-3.0946,-3.0946,-3.0946,-3.0946,-3.1036,-3.1989,-3.2394,-3.2438,-3.2939,-3.3124,-3.3124,-3.6405,-3.6405,-3.6405,-3.6405,-3.6405,-3.6405,-3.6405,-3.6405,-3.6405,-3.6405,-3.6405,-3.6405,-3.6405,-3.6405,-3.6405,-3.6405,-3.6405,-3.5966,-3.4884,-3.4775,-3.4239,-3.3001,-3.2083,-3.1524,-3.133,-3.0443,-2.9994,-2.9994,-2.9994,-2.9994,-2.9994,-2.9994,-2.9994,-2.9994,-2.9994,-2.9994,-2.9994,-2.9994,-2.9994,-2.9994,-2.9994,-2.9994,-2.9994,-2.9994,-2.9994,-2.9994,-2.9994,-2.9994,-2.9994,-2.9994,-2.9994,-2.9994,-2.9994,-2.9735,-2.9404,-2.9332,-2.9032,-2.8628,-2.8173,-2.7937,-2.7831,-2.7469,-2.7361,-2.7309,-2.7309,-2.7309,-2.7309,-2.7309,-2.7309,-2.7309,-2.7309,-2.7309,-2.7309,-2.7309,-2.7309,-2.7309,-2.7309,-2.7309,-2.7309,-2.7309,-2.7309,-2.7309,-2.7309,-2.7309,-2.7309,-2.7309,-2.7309,-2.7309,-2.7309,-2.7309,-2.7309,-2.7309,-2.7309,-2.7309,-2.7309,-2.8222,-2.8678,-2.8724,-2.9532,-3.0441,-3.1347,-3.0531,-3.0215,-3.017,-3.0034,-2.9943,-2.9943,-2.9943,-2.9943,-3.0034,-3.1169,-3.1581,-3.1713,-3.2711,-3.3124,-3.3124,-3.6405,-3.6405,-3.6405,-3.6405,-3.6405,-3.6405,-3.6405,-3.6405,-3.6405,-3.6405,-3.6405,-3.6405,-3.6405,-3.6405,-3.6405,-3.6405,-3.6405,-3.5966,-3.4884,-3.4775,-3.3932,-3.188,-3.1677,-3.1187,-3.0245,-3.0088,-2.9994,-2.9994,-2.9994,-2.9994,-2.9994,-2.9994,-2.9994,-2.9994,-2.9994,-2.9994,-2.9994,-2.9994,-2.9994,-2.9994,-2.9994,-2.9994,-2.9994,-2.9994,-2.9994,-2.9994,-2.9994,-2.9994,-2.9994,-2.9994,-2.9994,-2.9994,-2.9994,-2.9953,-2.9829,-2.9425,-2.9259,-2.9104,-2.8649,-2.8235,-2.7914,-2.7852,-2.7541,-2.7309,-2.7309,-2.7309,-2.7309,-2.7309,-2.7309,-2.7309,-2.7309,-2.7309,-2.7309,-2.7309,-2.7309,-2.7309,-2.7309,-2.7309,-2.7309,-2.7309,-2.7309,-2.7309,-2.7309,-2.7309,-2.7309,-2.7309,-2.7309,-2.7309,-2.7309,-2.7309,-2.7309,-2.7309,-2.7309,-2.7309,-2.7309,-2.8222,-2.8678,-2.8678,-2.8863,-2.9395,-3.0396,-3.026,-3.0215,-3.017,-2.9268,-2.8899,-2.8899,-2.8899,-2.8899,-2.9084,-3.0902,-3.1581,-3.1713,-3.2711,-3.3124,-3.3124,-3.6405,-3.6405,-3.6405,-3.6405,-3.6405,-3.6405,-3.6405,-3.6405,-3.6405,-3.6405,-3.6405,-3.6405,-3.6405,-3.6405,-3.6405,-3.6405,-3.5858,-3.5078,-3.3993,-3.3338,-3.2336,-3.0785,-3.0692,-3.0495,-2.9994,-2.9994,-2.9994,-2.9994,-2.9994,-2.9994,-2.9994,-2.9994,-2.9994,-2.9994,-2.9994,-2.9994,-2.9994,-2.9994,-2.9994,-2.9994,-2.9994,-2.9994,-2.9994,-2.9994,-2.9994,-2.9994,-2.9994,-2.9994,-2.9994,-2.9994,-2.9994,-2.9994,-2.9994,-2.9994,-2.9953,-2.9746,-2.9684,-2.9591,-2.9125,-2.8856,-2.8566,-2.8059,-2.7779,-2.7572,-2.7361,-2.7309,-2.7309,-2.7309,-2.7309,-2.7309,-2.7309,-2.7309,-2.7262,-2.7081,-2.7214,-2.7262,-2.7081,-2.7214,-2.7309,-2.7309,-2.7309,-2.7309,-2.7309,-2.7309,-2.7309,-2.7309,-2.7309,-2.7309,-2.7309,-2.7309,-2.7309,-2.7309,-2.7309,-2.7309,-2.7309,-2.7715,-2.7904,-2.7904,-2.7904,-2.8445,-2.936,-2.8806,-2.8574,-2.8585,-2.8128,-2.7904,-2.7904,-2.7904,-2.8222,-2.8863,-3.026,-3.1492,-3.2494,-3.2939,-3.3124,-3.3124]}]]